[[{"header":{"parameterUnit":"m.s-1","parameterCategory":1,"la1":30.6,"la2":29.2853,"lo1":-89.7004,"lo2":-87.6739,"dy":0.0162,"dx":0.0183,"nx":112,"ny":82,"refTime":"2024-04-20T00:00:00:Z","depth":0,"parameterNumber":2,"parameterNumberName":"U-component_of_WINDS"},"data":[0.0,0.0,0.0,0.0,0.0,0.0,0.0,0.0,0.0,0.0,0.0,0.0,0.0,0.0,0.0,0.0,0.0,0.0,0.0,0.0,0.0,0.0,0.0,0.0,0.0,0.0,0.0,0.0,0.0,0.0,0.0,0.0,0.0,0.0,0.0,0.0,0.0,0.0,0.0,0.0,0.0,0.0,0.0,0.0,0.0,0.0,0.0,0.0,0.0,0.0,0.0,0.0,0.0,0.0,0.0,0.0,0.0,0.0,0.0,0.0,0.0,0.0,0.0,0.0,0.0,0.0,0.0,0.0,0.0,0.0,0.0,0.0,0.0,0.0,0.0,0.0,0.0,0.0,0.0,0.0,0.0,0.0,0.0,0.0,0.0,0.0,0.0,0.0,0.0,0.0,1.0078,1.1085,1.2595,1.3504,1.3505,1.3282,1.2371,1.0544,0.0,0.0,0.0,0.0,0.0,0.0,0.0,0.0,0.0,0.0,0.0,0.0,0.0,0.0,0.0,0.0,0.0,0.0,0.0,0.0,0.0,0.0,0.0,0.0,0.0,0.0,0.0,0.0,0.0,0.0,0.0,0.0,0.0,0.0,0.0,0.0,0.0,0.0,0.0,0.0,0.0,0.0,0.0,0.0,0.0,0.0,0.0,0.0,0.0,0.0,0.0,0.0,0.0,0.0,0.0,0.0,0.0,0.0,0.0,0.0,0.0,0.0,0.0,0.0,0.0,0.0,0.0,0.0,0.0,0.0,0.0,0.0,0.0,0.0,0.0,0.0,0.0,0.0,0.0,0.0,0.0,0.0,0.0,0.0,0.0,0.0,0.0,0.0,0.0,0.0,0.0,0.0,0.0,0.0,0.0,0.0,0.0,0.0,0.0,0.0,0.0,0.0,0.0,0.0,0.9579,1.1855,1.2979,1.3558,1.3505,1.2853,1.1912,1.0658,0.0,0.0,0.0,0.0,0.0,0.0,0.0,0.0,0.0,0.0,0.0,0.0,0.0,0.0,0.0,0.0,0.0,0.0,0.0,0.0,0.0,0.0,0.0,0.0,0.0,0.0,0.0,0.0,0.0,0.0,0.0,0.0,0.0,0.0,0.0,0.0,0.0,0.0,0.0,0.0,0.0,0.0,0.0,0.0,0.0,0.0,0.0,0.0,0.0,0.0,0.0,0.0,0.0,0.0,0.0,0.0,0.0,0.0,0.0,0.0,0.0,0.0,0.0,0.0,0.0,0.0,0.0,0.0,0.0,0.0,0.0,0.0,0.0,0.0,0.0,0.0,0.0,0.0,0.0,0.0,0.0,0.0,0.0,0.0,0.0,0.0,0.0,0.0,0.0,0.0,0.0,0.0,0.0,0.0,0.0,0.0,0.0,0.0,0.0,0.0,0.0,0.0,0.0,0.8926,1.0159,1.2085,1.2714,1.3087,1.3317,1.2605,1.1617,1.0415,0.9416,0.0,0.0,0.0,0.0,0.0,0.0,0.0,0.0,0.0,0.0,0.0,0.0,0.0,0.0,0.0,0.0,0.0,0.0,0.0,0.0,0.0,0.0,0.0,0.0,0.0,0.0,0.0,0.0,0.0,0.0,0.0,0.0,0.0,0.0,0.0,0.0,0.0,0.0,0.0,0.0,0.0,0.0,0.0,0.0,0.0,0.0,0.0,0.0,0.0,0.0,0.0,0.0,0.0,0.0,0.0,0.0,0.0,0.0,0.0,0.0,0.0,0.0,0.0,0.0,0.0,0.0,0.0,0.0,0.0,0.0,0.0,0.0,0.0,0.0,0.0,0.0,0.0,0.0,0.0,0.0,0.0,0.0,0.0,0.0,0.0,0.0,0.0,0.0,0.0,0.0,0.0,0.0,0.0,0.0,0.0,0.0,0.0,0.0,0.0,0.0,0.0,0.0,0.9805,1.0756,1.21,1.2378,1.266,1.3098,1.2304,1.1297,1.0169,0.878,0.0,0.0,0.0,0.0,0.0,0.0,0.0,0.0,0.0,0.0,0.0,0.0,0.0,0.0,0.0,0.0,0.0,0.0,0.0,0.0,0.0,0.0,0.0,0.0,0.0,0.0,0.0,0.0,0.0,0.0,0.0,0.0,0.0,0.0,0.0,0.0,0.0,0.0,0.0,0.0,0.0,0.0,0.0,0.0,0.0,0.0,0.0,0.0,0.0,0.0,0.0,0.0,0.0,0.0,0.0,0.0,0.0,0.0,0.0,0.0,0.0,0.0,0.0,0.0,0.0,0.0,0.0,0.0,0.0,0.0,0.0,0.0,0.0,0.0,0.0,0.0,0.0,0.0,0.0,0.0,0.0,0.0,0.0,0.0,0.0,0.0,0.0,0.0,0.0,0.0,0.0,0.0,0.0,0.0,0.0,0.0,0.0,0.0,0.0,0.0,0.0,0.0,0.9522,1.0809,1.1895,1.2256,1.2557,1.289,1.1841,1.0857,1.0141,0.7873,0.0,0.0,0.0,0.0,0.0,0.0,0.0,0.0,0.0,0.0,0.0,0.0,0.0,0.0,0.0,0.0,0.0,0.0,0.0,0.0,0.0,0.0,0.0,0.0,0.0,0.0,0.0,0.0,0.0,0.0,0.0,0.0,0.0,0.0,0.0,0.0,0.0,0.0,0.0,0.0,0.0,0.0,0.0,0.0,0.0,0.0,0.0,0.0,0.0,0.0,0.0,0.0,0.0,0.0,0.0,0.0,0.0,0.0,0.0,0.0,0.0,0.0,0.0,0.0,0.0,0.0,0.0,0.0,0.0,0.0,0.0,0.0,0.0,0.0,0.0,0.0,0.0,0.0,0.0,0.0,0.0,0.0,0.0,0.0,0.0,0.0,0.0,0.0,0.0,0.0,0.0,0.0,0.0,0.0,0.0,0.0,0.0,0.0,0.0,0.0,0.0,0.0,0.9437,1.0626,0.0,1.197,1.2253,1.2689,1.184,1.0887,0.9914,0.0,0.0,0.0,0.0,0.0,0.0,0.0,0.0,0.0,0.0,0.0,0.0,0.0,0.0,0.0,0.0,0.0,0.0,0.0,0.0,0.0,0.0,0.0,0.0,0.0,0.0,0.0,0.0,0.0,0.0,0.0,0.0,0.0,0.0,0.0,0.0,0.0,0.0,0.0,0.0,0.0,0.0,0.0,0.0,0.0,0.0,0.0,0.0,0.0,0.0,0.0,0.0,0.0,0.0,0.0,0.0,0.0,0.0,0.0,0.0,0.0,0.0,0.0,0.0,0.0,0.0,0.0,0.0,0.0,0.0,0.0,0.0,0.0,0.0,0.0,0.0,0.0,0.0,0.0,0.0,0.0,0.0,0.0,0.0,0.0,0.0,0.0,0.0,0.0,0.0,0.0,0.0,0.0,0.0,0.0,0.0,0.0,0.0,0.0,0.0,0.0,0.0,0.8056,0.9366,1.0495,0.0,1.1583,1.1834,1.206,1.1335,1.0448,0.9476,0.0,0.0,0.0,0.0,0.0,0.0,0.0,0.0,0.0,0.0,0.0,0.0,0.0,0.0,0.0,0.0,0.0,0.0,0.0,0.0,0.0,0.0,0.0,0.0,0.0,0.0,0.0,0.0,0.0,0.0,0.0,0.0,0.0,0.0,0.0,0.0,0.0,0.0,0.0,0.0,0.0,0.0,0.0,0.0,0.0,0.0,0.0,0.0,0.0,0.0,0.0,0.0,0.0,0.0,0.0,0.0,0.0,0.0,0.0,0.0,0.0,0.0,0.0,0.0,0.0,0.0,0.0,0.0,0.0,0.0,0.0,0.0,0.0,0.0,0.0,0.0,0.0,0.0,0.0,0.0,0.0,0.0,0.0,0.0,0.0,0.0,0.0,0.0,0.0,0.0,0.0,0.0,0.0,0.0,0.0,0.0,0.0,0.0,0.0,0.0,0.0,0.0,0.7735,0.9325,1.0457,1.0579,1.1087,1.1286,1.1013,1.0202,0.9445,0.0,0.0,0.0,0.0,0.0,0.0,0.0,0.0,0.0,0.0,0.0,0.0,0.0,0.0,0.0,0.0,0.0,0.0,0.0,0.0,0.0,0.0,0.0,0.0,0.0,0.0,0.0,0.0,0.0,0.0,0.0,0.0,0.0,0.0,0.0,0.0,0.0,0.0,0.0,0.0,0.0,0.0,0.0,0.0,0.0,0.0,0.0,0.0,0.0,0.0,0.0,0.0,0.0,0.0,0.0,0.0,0.0,0.0,0.0,0.0,0.0,0.0,0.0,0.0,0.0,0.0,0.0,0.0,0.0,0.0,0.0,0.0,0.0,0.0,0.0,0.0,0.0,0.0,0.0,0.0,0.0,0.0,0.0,0.0,0.0,0.0,0.0,0.0,0.0,0.0,0.0,0.0,0.0,0.0,0.0,0.0,0.0,0.0,0.0,0.0,0.0,0.0,0.0,0.7766,0.9309,1.0345,1.039,1.0997,1.1304,1.1095,1.0616,0.9822,0.8595,0.0,0.0,0.0,0.0,0.0,0.0,0.0,0.0,0.0,0.0,0.0,0.0,0.0,0.0,0.0,0.0,0.0,0.0,0.0,0.0,0.0,0.0,0.0,0.0,0.0,0.0,0.0,0.0,0.0,0.0,0.0,0.0,0.0,0.0,0.0,0.0,0.0,0.0,0.0,0.0,0.0,0.0,0.0,0.0,0.0,0.0,0.0,0.0,0.0,0.0,0.0,0.0,0.0,0.0,0.0,0.0,0.0,0.0,0.0,0.0,0.0,0.0,0.0,0.0,0.0,0.0,0.0,0.0,0.0,0.0,0.0,0.0,0.0,0.0,0.0,0.0,0.0,0.0,0.0,0.0,0.0,0.0,0.0,0.0,0.0,0.0,0.0,0.0,0.0,0.0,0.0,0.0,0.0,0.0,0.0,0.0,0.0,0.0,0.0,0.0,0.0,0.0,0.7614,0.9023,0.9983,1.0095,1.0652,1.0958,1.0721,1.0593,0.9916,0.8487,0.0,0.0,0.0,0.0,0.0,0.0,0.0,0.0,0.0,0.0,0.0,0.0,0.0,0.0,0.0,0.0,0.0,0.0,0.0,0.0,0.0,0.0,0.0,0.0,0.0,0.0,0.0,0.0,0.0,0.0,0.0,0.0,0.0,0.0,0.0,0.0,0.0,0.0,0.0,0.0,0.0,0.0,0.0,0.0,0.0,0.0,0.0,0.0,0.0,0.0,0.0,0.0,0.0,0.0,0.0,0.0,0.0,0.0,0.0,0.0,0.0,0.0,0.0,0.0,0.0,0.0,0.0,0.0,0.0,0.0,0.0,0.0,0.0,0.0,0.0,0.0,0.0,0.0,0.0,0.0,0.0,0.0,0.0,0.0,0.0,0.0,0.0,0.0,0.0,0.0,0.0,0.0,0.0,0.0,0.0,0.0,0.0,0.0,0.0,0.0,0.0,0.0,0.7376,0.8599,0.9491,0.9758,1.0202,1.0371,1.0108,1.0249,0.9788,0.8467,0.0,0.0,0.0,0.0,0.0,0.0,0.0,0.0,0.0,0.0,0.0,0.0,0.0,0.0,0.0,0.0,0.0,0.0,0.0,0.0,0.0,0.0,0.0,0.0,0.0,0.0,0.0,0.0,0.0,0.0,0.0,0.0,0.0,0.0,0.0,0.0,0.0,0.0,0.0,0.0,0.0,0.0,0.0,0.0,0.0,0.0,0.0,0.0,0.0,0.0,0.0,0.0,0.0,0.0,0.0,0.0,0.0,0.0,0.0,0.0,0.6443,0.0,0.0,0.0,0.0,0.0,0.0,0.0,0.0,0.0,0.0,0.0,0.0,0.0,0.0,0.0,0.0,0.0,0.0,0.0,0.0,0.0,0.0,0.0,0.0,0.0,0.0,0.0,0.0,0.0,0.0,0.0,0.0,0.0,0.0,0.0,0.0,0.0,0.0,0.0,0.0,0.0,0.7307,0.8478,0.935,0.9619,1.0009,1.0177,0.9959,0.9992,0.9506,0.832,0.7647,0.0,0.0,0.0,0.0,0.0,0.0,0.0,0.0,0.0,0.0,0.0,0.0,0.0,0.0,0.0,0.0,0.0,0.0,0.0,0.0,0.0,0.0,0.0,0.0,0.0,0.0,0.0,0.0,0.0,0.0,0.0,0.0,0.0,0.0,0.0,0.0,0.0,0.0,0.0,0.0,0.0,0.0,0.0,0.0,0.0,0.0,0.0,0.0,0.0,0.0,0.0,0.0,0.0,0.0,0.0,0.0,0.0,0.0,0.0,0.0,0.6936,0.0,0.0,0.0,0.0,0.0,0.0,0.0,0.0,0.0,0.0,0.0,0.0,0.0,0.0,0.0,0.0,0.0,0.0,0.0,0.0,0.0,0.0,0.0,0.0,0.0,0.0,0.0,0.0,0.0,0.0,0.0,0.0,0.0,0.0,0.0,0.0,0.0,0.0,0.0,0.0,0.7221,0.8178,0.8939,0.94,0.9819,1.0011,0.9903,1.0088,0.974,0.8701,0.8156,0.0,0.0,0.0,0.0,0.0,0.0,0.0,0.0,0.0,0.0,0.0,0.0,0.0,0.0,0.0,0.0,0.0,0.0,0.0,0.0,0.0,0.0,0.0,0.0,0.0,0.0,0.0,0.0,0.0,0.0,0.0,0.0,0.0,0.0,0.0,0.0,0.0,0.0,0.0,0.0,0.0,0.0,0.0,0.0,0.0,0.0,0.0,0.0,0.0,0.0,0.0,0.0,0.0,0.9172,0.9425,0.9643,0.9774,1.0035,1.0281,0.8489,0.8088,0.8599,0.7217,0.0,0.0,0.0,0.0,0.0,0.0,0.0,0.0,0.0,0.0,0.0,0.0,0.0,0.0,0.0,0.0,0.0,0.0,0.0,0.0,0.0,0.0,0.0,0.0,0.6762,0.687,0.6422,0.0,0.0,0.0,0.0,0.0,0.0,0.0,0.0,0.0,0.0,0.0,0.7204,0.7886,0.8518,0.9186,0.9542,0.9747,0.9747,1.0086,0.9941,0.9137,0.8782,0.8088,0.0,0.0,0.0,0.0,0.0,0.0,0.0,0.0,0.0,0.0,0.0,0.0,0.0,0.0,0.0,0.0,0.0,0.0,0.0,0.0,0.0,0.0,0.0,0.0,0.0,0.0,0.0,0.0,0.0,0.0,0.0,0.0,0.4962,0.546,0.0,0.0,0.0,0.0,0.0,0.0,0.0,0.0,0.0,0.0,0.0,0.0,0.0,0.8083,0.8607,0.9446,0.9921,0.9989,1.0383,1.0428,1.0201,1.0327,1.0522,1.0697,1.0013,0.0,0.905,0.8036,0.0,0.0,0.0,0.0,0.0,0.0,0.0,0.0,0.0,0.0,0.0,0.0,0.0,0.0,0.0,0.0,0.0,0.0,0.0,0.0,0.0,0.0,0.7536,0.7449,0.7379,0.7316,0.0,0.6215,0.5284,0.5179,0.4731,0.0,0.0,0.0,0.0,0.0,0.0,0.0,0.742,0.7889,0.8364,0.8971,0.9083,0.9112,0.9112,0.9335,0.9326,0.9034,0.8753,0.8338,0.7759,0.7084,0.0,0.0,0.0,0.0,0.0,0.0,0.0,0.0,0.0,0.0,0.0,0.0,0.0,0.0,0.0,0.0,0.0,0.0,0.0,0.0,0.0,0.0,0.0,0.0,0.0,0.0,0.0,0.0,0.0,0.5345,0.6294,0.6179,0.6309,0.6281,0.0,0.0,0.0,0.0,0.0,0.0,0.0,0.0,0.0,0.8651,0.8997,0.9436,0.9968,1.0288,1.0557,1.0827,1.0873,1.0976,1.11,1.1112,1.1176,1.1231,1.075,1.0304,0.9857,0.8834,0.8021,0.7362,0.0,0.0,0.0,0.0,0.673,0.6841,0.74,0.7432,0.7144,0.6644,0.0,0.0,0.0,0.0,0.0,0.0,0.0,0.6014,0.0,0.0,0.7489,0.7307,0.7452,0.7521,0.7141,0.6606,0.6142,0.0,0.5474,0.5092,0.4943,0.0,0.0,0.0,0.0,0.6633,0.7432,0.7865,0.8286,0.8784,0.8937,0.8994,0.8994,0.9189,0.9207,0.9011,0.8885,0.8613,0.8151,0.7443,0.6667,0.0,0.0,0.0,0.0,0.0,0.0,0.0,0.0,0.0,0.0,0.0,0.0,0.0,0.0,0.0,0.0,0.0,0.0,0.0,0.0,0.0,0.0,0.0,0.0,0.0,0.0,0.0,0.0,0.6236,0.7109,0.6791,0.7147,0.7245,0.0,0.0,0.0,0.0,0.0,0.0,0.8295,0.8478,0.8957,0.9844,1.0088,1.0382,1.0687,1.0599,1.0707,1.0977,1.0798,1.0901,1.128,1.1248,1.1258,1.1303,1.087,1.0546,1.0261,0.9469,0.8793,0.819,0.7721,0.7532,0.7546,0.7649,0.7624,0.7624,0.8294,0.8268,0.7834,0.7222,0.675,0.6304,0.5592,0.0,0.0,0.0,0.0,0.602,0.6492,0.6916,0.7186,0.7091,0.739,0.7532,0.7029,0.6918,0.6838,0.0,0.6135,0.5747,0.535,0.0,0.0,0.0,0.0,0.677,0.7417,0.7717,0.8021,0.8418,0.8599,0.8699,0.8699,0.887,0.8944,0.8852,0.8843,0.871,0.8409,0.7744,0.7076,0.6412,0.0,0.0,0.0,0.0,0.0,0.0,0.0,0.0,0.0,0.0,0.0,0.0,0.0,0.0,0.0,0.0,0.0,0.0,0.0,0.0,0.0,0.0,0.0,0.0,0.0,0.0,0.0,0.0,0.0,0.7156,0.7695,0.0,0.0,0.0,0.0,0.7625,0.7996,0.8512,0.9196,0.9425,0.9616,0.9802,1.031,1.0433,1.0135,1.0378,1.0383,1.0159,0.9944,0.9966,1.0178,1.0177,1.0306,1.0542,1.0257,1.0029,0.983,0.9838,0.9561,0.9117,0.8831,0.8595,0.8426,0.8437,0.8433,0.8417,0.8346,0.8287,0.8234,0.8015,0.7404,0.6701,0.6275,0.6058,0.0,0.0,0.6161,0.6301,0.6839,0.6858,0.6833,0.7198,0.7304,0.7308,0.728,0.7121,0.6925,0.0,0.6466,0.6291,0.6083,0.0,0.5806,0.6186,0.6282,0.6597,0.739,0.7347,0.741,0.7802,0.7861,0.7861,0.7861,0.8049,0.8231,0.8428,0.8435,0.8502,0.8679,0.8153,0.7577,0.6968,0.6103,0.0,0.0,0.0,0.0,0.0,0.0,0.0,0.0,0.0,0.0,0.0,0.0,0.0,0.0,0.0,0.0,0.0,0.0,0.0,0.0,0.0,0.0,0.0,0.0,0.0,0.0,0.0,0.0,0.7969,0.8195,0.0,0.7881,0.8026,0.8146,0.8147,0.8597,0.8976,0.9223,0.9416,0.9766,1.0303,1.0127,1.0114,1.0292,0.9921,0.983,1.0029,0.9664,0.9668,1.0034,0.9863,0.982,0.9912,0.982,0.9747,0.9686,0.9694,0.9504,0.919,0.9101,0.893,0.8742,0.8559,0.8501,0.8466,0.8247,0.8166,0.8054,0.7381,0.6711,0.6137,0.5988,0.5967,0.6017,0.6063,0.6067,0.6146,0.6421,0.6601,0.6728,0.6828,0.6953,0.7,0.6886,0.6833,0.681,0.6794,0.6614,0.6408,0.6204,0.6128,0.6094,0.6114,0.6325,0.6636,0.7066,0.7281,0.7453,0.7595,0.7834,0.7891,0.7622,0.7791,0.7882,0.7829,0.7937,0.8044,0.812,0.7726,0.7387,0.7132,0.6353,0.5444,0.0,0.0,0.0,0.0,0.0,0.0,0.0,0.0,0.0,0.0,0.0,0.0,0.0,0.0,0.0,0.0,0.0,0.0,0.0,0.0,0.0,0.0,0.0,0.0,0.0,0.0,0.8101,0.8216,0.841,0.8473,0.835,0.8511,0.8614,0.8575,0.8835,0.9025,0.9087,0.9209,0.9476,0.9936,0.9705,0.9627,0.9719,0.9327,0.9234,0.9447,0.9059,0.9067,0.9447,0.9179,0.9105,0.9204,0.9204,0.9204,0.9204,0.9204,0.9032,0.8814,0.9116,0.9116,0.8893,0.853,0.8394,0.8344,0.8016,0.7818,0.7624,0.7005,0.6397,0.59,0.59,0.5964,0.6026,0.5984,0.5945,0.593,0.6083,0.6207,0.6327,0.6433,0.6571,0.663,0.6556,0.6563,0.6631,0.6713,0.6632,0.6513,0.6486,0.6366,0.6316,0.6328,0.6565,0.6777,0.6855,0.7099,0.7266,0.7266,0.7463,0.7532,0.7375,0.7383,0.7372,0.7334,0.7352,0.7393,0.7467,0.719,0.6971,0.6861,0.6136,0.5349,0.4501,0.0,0.0,0.0,0.0,0.0,0.0,0.0,0.0,0.0,0.0,0.0,0.0,0.0,0.0,0.0,0.0,0.0,0.0,0.0,0.0,0.0,0.0,0.0,0.7195,0.737,0.7539,0.786,0.8308,0.8388,0.7866,0.8458,0.8867,0.8848,0.8678,0.8666,0.8855,0.8806,0.8761,0.8695,0.9064,0.8972,0.8393,0.8638,0.8638,0.8372,0.8098,0.8119,0.8365,0.8098,0.8123,0.8365,0.8365,0.8368,0.8372,0.8368,0.8219,0.8063,0.8924,0.9136,0.8898,0.8375,0.8188,0.8094,0.7631,0.7273,0.6985,0.6985,0.6579,0.6094,0.6094,0.6072,0.6053,0.5922,0.58,0.5739,0.5927,0.5746,0.5621,0.6104,0.6199,0.6233,0.6369,0.6383,0.638,0.6377,0.649,0.665,0.6947,0.6614,0.6476,0.6931,0.6991,0.0,0.6787,0.6789,0.6789,0.6769,0.6667,0.6728,0.704,0.6782,0.6704,0.6949,0.6657,0.6572,0.6766,0.658,0.6383,0.6178,0.5461,0.4892,0.4503,0.0,0.0,0.0,0.0,0.0,0.0,0.0,0.0,0.0,0.0,0.0,0.0,0.0,0.0,0.0,0.0,0.0,0.0,0.0,0.0,0.0,0.658,0.7154,0.7094,0.7512,0.7897,0.8105,0.8241,0.823,0.8029,0.8074,0.7969,0.7624,0.7989,0.8177,0.8042,0.8286,0.8424,0.8419,0.8365,0.8268,0.8101,0.7894,0.7795,0.782,0.7638,0.7617,0.7671,0.7698,0.7689,0.7668,0.7668,0.7725,0.7813,0.7709,0.7677,0.7746,0.8179,0.8318,0.8234,0.7885,0.7637,0.7419,0.7107,0.6897,0.6762,0.6547,0.6181,0.5805,0.5805,0.5663,0.5551,0.5701,0.5592,0.5466,0.5719,0.5794,0.5878,0.6192,0.6163,0.6041,0.6042,0.5879,0.5758,0.581,0.5816,0.6028,0.6734,0.678,0.6724,0.6719,0.676,0.0,0.6274,0.6514,0.66,0.6247,0.6485,0.6593,0.6391,0.6516,0.6456,0.615,0.6183,0.6191,0.6155,0.6007,0.5868,0.5765,0.5127,0.4736,0.0,0.0,0.0,0.0,0.0,0.0,0.0,0.0,0.0,0.0,0.0,0.0,0.0,0.0,0.0,0.0,0.0,0.0,0.0,0.0,0.0,0.0,0.6817,0.7241,0.6883,0.7407,0.7889,0.8014,0.797,0.7851,0.7699,0.7446,0.7227,0.7074,0.7256,0.7313,0.7155,0.7526,0.7724,0.7683,0.7728,0.7689,0.7588,0.7251,0.7121,0.7273,0.6833,0.6771,0.6977,0.6821,0.6821,0.6904,0.6904,0.6947,0.7012,0.6935,0.6869,0.0,0.0,0.0,0.0,0.0,0.6841,0.658,0.6383,0.6265,0.6168,0.6025,0.5682,0.5377,0.5377,0.5256,0.5147,0.5243,0.522,0.5132,0.5149,0.528,0.5435,0.5584,0.563,0.562,0.5635,0.5516,0.5425,0.5455,0.5511,0.0,0.6164,0.6435,0.6561,0.6511,0.6638,0.6546,0.6017,0.6288,0.6394,0.599,0.6142,0.6249,0.6145,0.6175,0.0,0.0,0.0,0.558,0.5447,0.5369,0.0,0.0,0.0,0.4798,0.4727,0.429,0.0,0.0,0.3943,0.3939,0.0,0.0,0.0,0.0,0.0,0.0,0.0,0.0,0.0,0.0,0.0,0.0,0.0,0.0,0.0,0.0,0.6714,0.7026,0.6675,0.7085,0.7484,0.7647,0.7498,0.7264,0.7015,0.6655,0.6566,0.6838,0.6546,0.636,0.6384,0.0,0.0,0.0,0.0,0.7136,0.692,0.6657,0.6569,0.6653,0.5919,0.5804,0.623,0.5766,0.5771,0.611,0.611,0.6143,0.6179,0.6115,0.5967,0.5865,0.6949,0.7214,0.6897,0.6261,0.5885,0.5679,0.5549,0.0,0.0,0.5397,0.5134,0.4834,0.4834,0.481,0.4782,0.47,0.476,0.4779,0.4524,0.4608,0.4749,0.4749,0.494,0.5134,0.5217,0.5244,0.5244,0.5244,0.5398,0.5523,0.5457,0.578,0.6124,0.6299,0.6511,0.6464,0.5924,0.6066,0.6131,0.5869,0.0,0.0,0.6141,0.5788,0.5502,0.5385,0.511,0.4912,0.4791,0.4834,0.4897,0.5019,0.497,0.4921,0.4873,0.4819,0.4667,0.4375,0.3979,0.4014,0.0,0.0,0.0,0.0,0.0,0.0,0.0,0.0,0.0,0.0,0.0,0.0,0.0,0.0,0.0,0.6113,0.6457,0.6792,0.6762,0.6506,0.6431,0.6784,0.6714,0.6526,0.6319,0.5847,0.5675,0.5936,0.5968,0.6082,0.6305,0.6337,0.6403,0.6487,0.6395,0.6364,0.6429,0.6224,0.6035,0.5908,0.0,0.0,0.528,0.5283,0.5391,0.5543,0.5543,0.5744,0.6025,0.5681,0.5505,0.5419,0.5762,0.5822,0.5603,0.5085,0.498,0.5057,0.485,0.4868,0.4897,0.4747,0.4611,0.4489,0.4489,0.4338,0.0,0.441,0.4478,0.4522,0.4676,0.4924,0.5114,0.5114,0.5139,0.5132,0.4937,0.4907,0.4907,0.4907,0.5067,0.5204,0.5186,0.5517,0.5788,0.583,0.584,0.5741,0.5529,0.5689,0.5733,0.5515,0.5608,0.578,0.5945,0.558,0.5304,0.5173,0.4908,0.474,0.4717,0.4988,0.5128,0.5152,0.4851,0.4665,0.4651,0.4328,0.4225,0.4323,0.4392,0.4358,0.0,0.0,0.0,0.0,0.0,0.0,0.0,0.0,0.0,0.0,0.0,0.6244,0.6039,0.0,0.6522,0.6157,0.6356,0.6509,0.6411,0.5992,0.5841,0.6207,0.6061,0.5833,0.5521,0.5085,0.5028,0.5559,0.5377,0.5415,0.5824,0.5691,0.5661,0.5786,0.5708,0.568,0.5707,0.5474,0.5319,0.5246,0.4741,0.4573,0.4704,0.4488,0.4532,0.4795,0.4795,0.4922,0.5135,0.479,0.452,0.4308,0.4308,0.4634,0.5031,0.4573,0.4489,0.4564,0.4364,0.4376,0.442,0.4294,0.4244,0.4236,0.4223,0.411,0.4033,0.416,0.421,0.421,0.421,0.4386,0.4611,0.4611,0.4713,0.4788,0.4809,0.4809,0.4809,0.4809,0.4874,0.4927,0.4908,0.5051,0.5239,0.5468,0.5533,0.5463,0.5235,0.544,0.5522,0.5319,0.5456,0.5618,0.5788,0.5529,0.5297,0.5151,0.4957,0.4829,0.4747,0.4879,0.4943,0.4943,0.4679,0.4469,0.4292,0.4331,0.4284,0.4158,0.4356,0.4378,0.0,0.0,0.0,0.0,0.0,0.0,0.0,0.0,0.6756,0.6899,0.6678,0.64,0.6304,0.6311,0.6259,0.6031,0.6056,0.6066,0.5855,0.5405,0.5192,0.5433,0.5333,0.5122,0.4789,0.4438,0.4541,0.5257,0.4818,0.4731,0.5212,0.4936,0.482,0.4944,0.4891,0.4832,0.479,0.4559,0.4458,0.4432,0.3761,0.3655,0.4009,0.3553,0.3589,0.3941,0.4006,0.4019,0.3998,0.3786,0.3485,0.3159,0.3031,0.3597,0.4412,0.4018,0.3914,0.3945,0.378,0.376,0.3774,0.3719,0.3738,0.3774,0.3718,0.371,0.3719,0.3719,0.3746,0.3745,0.3582,0.3753,0.395,0.3937,0.4135,0.4386,0.4609,0.4684,0.4736,0.4784,0.4809,0.4764,0.4671,0.4586,0.4687,0.5166,0.5262,0.5203,0.498,0.5179,0.5273,0.5094,0.524,0.5415,0.5571,0.5419,0.5228,0.5047,0.4935,0.4824,0.4711,0.4697,0.4708,0.4708,0.455,0.4328,0.4055,0.439,0.4378,0.4042,0.4143,0.4214,0.8135,0.7916,0.786,0.8189,0.7663,0.7483,0.0,0.0,0.7602,0.8025,0.7282,0.6508,0.6265,0.5938,0.5586,0.5277,0.5178,0.5171,0.5198,0.4549,0.4016,0.3868,0.4189,0.4401,0.4292,0.4141,0.4185,0.4582,0.4392,0.4387,0.4667,0.4199,0.3968,0.4031,0.3762,0.3626,0.3672,0.3587,0.3424,0.3205,0.3001,0.2799,0.2623,0.2573,0.2726,0.3064,0.3294,0.3268,0.3064,0.3017,0.2882,0.2669,0.2606,0.2673,0.285,0.2806,0.2777,0.278,0.2769,0.2712,0.2669,0.2665,0.2666,0.2669,0.2664,0.2666,0.2674,0.2674,0.2833,0.3061,0.3272,0.3542,0.3729,0.3649,0.386,0.4058,0.4083,0.4286,0.4512,0.4759,0.4809,0.4732,0.4475,0.4381,0.4467,0.4888,0.4701,0.4584,0.4717,0.4759,0.4745,0.4589,0.4909,0.5152,0.5173,0.5035,0.482,0.4499,0.4421,0.4368,0.4357,0.4578,0.4709,0.4709,0.4446,0.4312,0.426,0.4137,0.4119,0.4178,0.3961,0.3918,0.9115,0.8823,0.8506,0.8559,0.8458,0.8399,0.868,0.8049,0.7471,0.7633,0.6975,0.6278,0.5976,0.5646,0.5324,0.0,0.4808,0.4608,0.4482,0.39,0.3319,0.2895,0.3014,0.3212,0.3365,0.3234,0.3316,0.3782,0.3459,0.3461,0.3943,0.3439,0.3238,0.3429,0.2961,0.2716,0.2742,0.2509,0.2423,0.2425,0.2253,0.2256,0.2461,0.2307,0.238,0.2664,0.2656,0.2487,0.2191,0.2191,0.1955,0.1636,0.1751,0.1724,0.1696,0.2317,0.2546,0.2542,0.2489,0.2499,0.2489,0.2489,0.2534,0.2555,0.2503,0.2489,0.2504,0.2504,0.2584,0.2686,0.2799,0.2927,0.3078,0.3367,0.3514,0.3655,0.3942,0.4119,0.424,0.4318,0.4334,0.4309,0.4185,0.4134,0.4173,0.436,0.4212,0.4114,0.4126,0.422,0.4346,0.4485,0.4827,0.505,0.505,0.4986,0.486,0.4652,0.4602,0.4575,0.4536,0.442,0.4342,0.4342,0.4053,0.3883,0.3883,0.3798,0.3794,0.3851,0.3739,0.3633,0.9312,0.9108,0.8871,0.8689,0.8821,0.8828,0.8142,0.7556,0.7134,0.7011,0.6334,0.5711,0.5464,0.5115,0.48,0.4636,0.4334,0.4062,0.3805,0.331,0.2734,0.2171,0.2097,0.2134,0.2236,0.2392,0.2578,0.2848,0.2626,0.2652,0.3005,0.2584,0.2401,0.2598,0.2103,0.1827,0.1811,0.158,0.1538,0.1678,0.152,0.1664,0.2014,0.1836,0.1878,0.2041,0.1913,0.1702,0.1476,0.1476,0.1254,0.0921,0.1109,0.1081,0.0985,0.176,0.2065,0.2059,0.1996,0.2058,0.2166,0.2052,0.2134,0.2227,0.2092,0.21,0.2162,0.2162,0.2243,0.2322,0.2391,0.2472,0.2629,0.2983,0.3216,0.3412,0.3749,0.3916,0.4001,0.4024,0.4021,0.3984,0.3909,0.3883,0.3858,0.3783,0.3738,0.3704,0.3728,0.3878,0.4098,0.4415,0.4725,0.4944,0.4988,0.4972,0.4868,0.4709,0.4663,0.4568,0.4428,0.4138,0.3985,0.3962,0.3713,0.3609,0.3609,0.3609,0.3609,0.3588,0.3541,0.3414,0.8295,0.837,0.8678,0.8543,0.8365,0.823,0.8203,0.747,0.6746,0.6483,0.5519,0.4746,0.4728,0.4197,0.3774,0.3827,0.366,0.3461,0.3247,0.2711,0.2145,0.1669,0.1574,0.1359,0.0,0.1803,0.2212,0.1786,0.2037,0.2105,0.1859,0.1528,0.1353,0.1361,0.1094,0.0919,0.0835,0.0835,0.0842,0.083,0.083,0.0839,0.0853,0.0922,0.0929,0.0957,0.0946,0.0943,0.0929,0.0929,0.0921,0.0908,0.0907,0.0907,0.0907,0.0933,0.0959,0.0957,0.094,0.1128,0.1274,0.0966,0.1063,0.1284,0.1038,0.1133,0.1344,0.1344,0.1568,0.187,0.2141,0.2404,0.2583,0.2539,0.2982,0.3407,0.3427,0.3565,0.3782,0.404,0.4033,0.3909,0.366,0.3611,0.3534,0.3256,0.3229,0.3358,0.3758,0.3867,0.4015,0.4273,0.4545,0.4792,0.4988,0.4881,0.4685,0.4426,0.4297,0.407,0.374,0.3715,0.3681,0.3607,0.3609,0.3609,0.3609,0.3609,0.3609,0.3588,0.341,0.3302,0.8746,0.8722,0.8522,0.835,0.8108,0.7821,0.7371,0.6784,0.6155,0.5542,0.4862,0.4257,0.3896,0.3471,0.3065,0.2792,0.2597,0.2362,0.1931,0.1543,0.1185,0.0835,0.0796,0.0,0.0,0.0,0.0,0.1192,0.1286,0.1302,0.1209,0.1109,0.0944,0.0772,0.0474,0.0208,0.0,-0.0206,-0.0206,0.0,0.0372,0.0651,0.0855,0.0887,0.089,0.089,0.0475,0.0307,0.0278,0.0055,-0.0136,-0.0271,-0.0107,-0.0133,-0.0267,-0.0053,-0.0107,-0.0213,0.0371,0.0737,0.0919,0.0641,0.0758,0.1013,0.0914,0.0977,0.1065,0.1262,0.1374,0.154,0.1866,0.2123,0.2375,0.2524,0.2902,0.3245,0.3366,0.3477,0.3519,0.3334,0.3433,0.343,0.3111,0.3205,0.3306,0.3205,0.3171,0.324,0.3491,0.3516,0.3573,0.3747,0.3925,0.4072,0.4141,0.4127,0.4105,0.4011,0.3963,0.3873,0.3704,0.3399,0.3273,0.3341,0.2887,0.2819,0.3136,0.2819,0.2769,0.2928,0.2675,0.2564,0.8808,0.8546,0.8037,0.7841,0.7552,0.7117,0.6454,0.5869,0.5255,0.4539,0.3939,0.3453,0.3068,0.2709,0.2375,0.2099,0.1917,0.163,0.1126,0.0903,0.0655,0.0289,0.0268,0.0147,0.0,0.0,0.0,0.0591,0.0491,0.0444,0.0423,0.0346,0.0213,0.0053,-0.0183,-0.0415,-0.0726,-0.0934,-0.094,-0.0714,-0.0272,0.0055,0.0252,0.0252,0.0252,0.0224,-0.014,-0.0335,-0.0333,-0.0549,-0.0735,-0.0893,-0.0722,-0.0749,-0.0861,-0.0646,-0.0727,-0.0807,-0.0134,0.0292,0.0451,0.0054,0.0384,0.0857,0.0643,0.0785,0.1065,0.1262,0.1374,0.1514,0.1598,0.1919,0.218,0.2152,0.2567,0.2972,0.2967,0.3078,0.3096,0.2842,0.2984,0.305,0.2757,0.2828,0.2976,0.3056,0.304,0.3108,0.3293,0.3328,0.3382,0.3478,0.3612,0.3666,0.3598,0.3643,0.3662,0.3564,0.3491,0.3463,0.3487,0.3084,0.2883,0.2939,0.2523,0.2418,0.2652,0.2345,0.2299,0.2454,0.2308,0.2237,0.8459,0.7896,0.7255,0.7122,0.67,0.6163,0.5509,0.4784,0.4103,0.357,0.2892,0.2363,0.0,0.0,0.1684,0.1733,0.1567,0.126,0.0802,0.0724,0.0505,0.0,0.0,0.0,0.0,0.0,0.0,-0.0101,0.0,-0.0441,-0.0416,-0.0686,-0.0819,-0.0857,-0.0857,-0.1012,-0.1348,-0.1376,-0.1348,-0.134,-0.1085,-0.0953,-0.0953,-0.0925,-0.0925,-0.0953,-0.0925,-0.0945,-0.0958,-0.0958,-0.0976,-0.099,-0.099,-0.0999,-0.0985,-0.0958,-0.0958,-0.0956,-0.0592,-0.0297,-0.0137,-0.0739,-0.0138,0.0729,0.014,0.0561,0.1234,0.1262,0.1486,0.1655,0.1346,0.1739,0.2048,0.1458,0.202,0.2609,0.23,0.2437,0.2628,0.2599,0.2767,0.2806,0.2545,0.2493,0.2555,0.2762,0.2847,0.2964,0.3163,0.3299,0.3388,0.3453,0.3561,0.3553,0.336,0.3403,0.3342,0.3071,0.2873,0.2854,0.3059,0.2742,0.2553,0.2479,0.2457,0.2366,0.2156,0.2158,0.2134,0.2127,0.2189,0.2232,0.8242,0.7736,0.7137,0.7056,0.6191,0.5255,0.4891,0.4204,0.347,0.2942,0.252,0.2117,0.1708,0.0,0.0,0.0883,0.0579,0.0,-0.0048,-0.0436,0.0,-0.0613,0.0,-0.0923,-0.0983,-0.1179,0.0,0.0,-0.1099,-0.0927,-0.0794,-0.0986,-0.1208,-0.1452,-0.1478,-0.1712,-0.2178,-0.2237,-0.2168,-0.1969,-0.1892,-0.1767,-0.157,-0.1318,-0.1346,-0.157,-0.1318,-0.1454,-0.1867,-0.1867,-0.203,-0.2244,-0.2244,-0.225,-0.2174,-0.1727,-0.1867,-0.2173,-0.1636,-0.1101,-0.0739,-0.1082,-0.0699,-0.0084,-0.0252,0.0,0.0364,0.0561,0.0701,0.0785,0.0953,0.1458,0.1851,0.1711,0.2188,0.2665,0.2581,0.2795,0.2886,0.266,0.2634,0.2646,0.2514,0.2487,0.2525,0.2556,0.2585,0.2757,0.3137,0.3015,0.2878,0.2893,0.2746,0.2639,0.2579,0.2651,0.2654,0.2579,0.2541,0.2496,0.2509,0.229,0.2193,0.228,0.1978,0.1768,0.168,0.1537,0.1358,0.1145,0.1175,0.1286,0.7872,0.7386,0.6748,0.6246,0.541,0.4528,0.391,0.3375,0.2838,0.2209,0.1866,0.1561,0.1206,0.0877,0.0584,0.0,0.0,0.0,-0.0677,-0.0886,-0.1,0.0,-0.1137,0.0,-0.1235,-0.1624,-0.1892,0.0,-0.1815,-0.1676,-0.1447,-0.1654,-0.1841,-0.1998,-0.1998,-0.2297,-0.2937,-0.3016,-0.2958,-0.2819,-0.2541,-0.2412,-0.2354,-0.2047,-0.2075,-0.2354,-0.2047,-0.2104,-0.2413,-0.2413,-0.2525,-0.2693,-0.2693,-0.2693,-0.2665,-0.2328,-0.2413,-0.2637,-0.2132,-0.184,-0.1689,-0.1705,-0.1121,-0.0421,-0.0589,-0.0252,0.0196,0.0364,0.0589,0.0785,0.0701,0.1121,0.1514,0.1262,0.1655,0.2076,0.2076,0.2327,0.251,0.2441,0.2333,0.2258,0.2321,0.2252,0.2217,0.2317,0.2324,0.2443,0.281,0.2655,0.2526,0.2575,0.2402,0.2263,0.2184,0.2107,0.2044,0.2044,0.1817,0.1776,0.1939,0.1718,0.163,0.1718,0.1494,0.1307,0.1183,0.1074,0.0937,0.0796,0.0796,0.0871,0.7456,0.6956,0.6199,0.5228,0.4554,0.3889,0.293,0.2528,0.2181,0.154,0.1166,0.0934,0.0791,0.0382,0.0034,0.0,0.0,-0.0792,-0.1054,-0.0989,-0.0993,-0.1236,-0.1337,-0.1403,-0.1407,-0.1954,-0.2319,-0.2324,-0.2525,-0.2507,-0.2193,-0.2418,-0.2549,-0.2508,-0.2614,-0.2966,-0.3592,-0.3656,-0.3688,-0.3631,-0.3165,-0.3029,-0.3166,-0.2917,-0.2943,-0.3138,-0.2833,-0.275,-0.2806,-0.2778,-0.2778,-0.2806,-0.2806,-0.2806,-0.2806,-0.2778,-0.275,-0.2721,-0.2412,-0.2468,-0.2581,-0.2244,-0.143,-0.0617,-0.0841,-0.0336,0.0308,0.0336,0.0729,0.1009,0.0477,0.0757,0.1037,0.0533,0.0841,0.1262,0.129,0.1598,0.1927,0.2146,0.2003,0.1883,0.2044,0.1874,0.179,0.1968,0.1981,0.2051,0.223,0.2263,0.229,0.2339,0.2265,0.2132,0.1917,0.1693,0.1541,0.1491,0.1061,0.0978,0.1381,0.1183,0.1051,0.1058,0.1057,0.0945,0.0739,0.0739,0.0721,0.0682,0.0682,0.0701,0.7101,0.6352,0.5507,0.5031,0.4106,0.321,0.2866,0.2167,0.0,0.1425,0.1101,0.0799,0.0654,0.0463,0.0235,-0.0035,-0.0435,-0.0784,-0.1073,-0.1271,-0.1436,0.0,-0.1813,-0.1956,-0.1959,-0.2506,0.0,0.0,-0.318,-0.3087,-0.2547,-0.2715,-0.2927,-0.3125,-0.3693,-0.4022,-0.4154,-0.4185,-0.4063,-0.3842,-0.4091,-0.3949,-0.3503,-0.3475,-0.3475,-0.3475,-0.2945,0.0,-0.3419,-0.3139,-0.3195,-0.3447,-0.3447,-0.3447,-0.3419,-0.3138,-0.3026,-0.3026,-0.297,-0.2663,-0.2244,-0.1964,-0.1739,-0.1486,-0.1037,-0.0589,-0.0224,0.0,0.014,0.0196,0.0084,0.0308,0.0533,0.0421,0.0701,0.1037,0.1262,0.1739,0.213,0.218,0.215,0.2065,0.1892,0.1588,0.1386,0.144,0.145,0.1421,0.1421,0.1788,0.2062,0.2062,0.186,0.1611,0.1364,0.1288,0.1187,0.096,0.0859,0.0832,0.093,0.0879,0.0853,0.085,0.085,0.0726,0.0477,0.0477,0.0352,0.0126,0.0126,0.0252,0.6495,0.5919,0.5223,0.45,0.3771,0.303,0.2385,0.0,0.0,0.1159,0.093,0.0739,0.0529,0.0211,-0.0076,-0.0276,-0.0652,-0.0983,-0.1176,-0.1338,-0.1501,-0.1624,-0.1951,-0.2137,-0.2102,-0.2686,-0.3064,-0.3089,-0.3335,-0.3348,-0.3024,-0.3183,-0.3325,-0.3454,-0.4147,-0.4498,-0.4498,-0.4591,-0.4484,-0.4207,-0.4242,-0.4091,-0.3813,-0.3671,-0.3671,-0.3785,-0.3365,-0.3337,-0.3587,-0.3418,-0.3447,-0.3587,-0.3587,-0.3587,-0.3587,-0.3418,-0.3362,-0.3306,-0.2999,-0.2915,-0.2803,-0.2047,-0.1795,-0.1739,-0.1458,-0.1037,-0.0645,-0.0505,-0.014,0.0168,0.0028,0.0196,0.0364,0.0224,0.0561,0.1009,0.1458,0.1795,0.1992,0.1992,0.1851,0.1739,0.1795,0.1402,0.1143,0.1288,0.1167,0.1071,0.0991,0.1212,0.1425,0.1571,0.1356,0.1136,0.101,0.0859,0.0732,0.0606,0.0455,0.0379,0.0379,0.0379,0.0379,0.0379,0.0379,0.0328,0.0202,0.0202,0.0126,0.0,0.0,0.0075,0.5904,0.5534,0.5017,0.4027,0.3485,0.2958,0.2071,0.177,0.1518,0.1,0.0829,0.0697,0.0453,0.0027,-0.0316,0.0,-0.0802,-0.1095,-0.1284,-0.1358,-0.1456,-0.1609,-0.2012,0.0,-0.2062,-0.274,0.0,-0.301,-0.3296,-0.3459,-0.3414,-0.3542,-0.365,-0.3685,-0.4285,-0.4653,-0.4706,-0.4748,-0.4634,-0.4397,-0.4203,-0.4036,-0.3896,-0.3757,-0.3757,-0.3896,-0.3699,-0.3587,-0.3587,-0.3587,-0.3587,-0.3587,-0.3587,-0.3587,-0.3587,-0.3587,-0.3531,-0.3337,-0.2917,-0.2973,-0.3055,-0.2187,-0.1936,-0.1936,-0.1683,-0.129,-0.0869,-0.0757,-0.0224,0.0252,0.0056,0.0168,0.028,0.0112,0.0505,0.1037,0.157,0.1683,0.1683,0.1683,0.143,0.129,0.157,0.1149,0.0865,0.1074,0.0931,0.0762,0.0725,0.0713,0.0801,0.1003,0.0884,0.0788,0.0711,0.0534,0.038,0.0328,0.0126,0.0,0.0,0.0,0.0,0.0,0.0,0.0,0.0,0.0,0.0,0.0,0.0,0.0,0.5521,0.5121,0.4601,0.389,0.3282,0.2778,0.2498,0.0,0.1236,0.1178,0.092,0.0645,0.0443,0.0255,0.0,0.0,-0.0688,-0.0931,-0.1258,-0.1355,-0.1464,-0.1666,0.0,0.0,-0.1879,-0.2812,-0.3225,-0.2681,-0.3127,-0.3418,-0.3413,-0.3633,-0.3848,-0.3961,-0.4207,-0.4445,-0.4706,-0.4476,-0.4252,-0.4036,-0.4314,-0.4173,-0.3643,-0.3868,-0.3841,-0.3643,-0.3615,-0.3587,0.0,-0.3587,-0.3587,-0.3587,-0.3587,-0.3587,-0.3587,-0.3587,-0.3253,-0.2806,-0.2999,-0.2578,-0.1991,-0.2132,-0.2356,-0.2413,-0.1318,-0.0953,-0.0785,-0.0224,-0.0028,0.0028,0.0,0.0028,0.0084,0.0308,0.0645,0.0981,0.129,0.1346,0.1346,0.1346,0.1121,0.0953,0.0981,0.0673,0.0448,0.0476,0.047,0.0438,0.0437,0.043,0.0452,0.0477,0.0679,0.0699,0.0466,0.0414,0.0309,0.0051,0.0025,0.0,0.0,0.0,0.0,0.0,0.0,0.0,0.0,0.0,0.0,0.0,0.0,0.0,0.5203,0.4864,0.4469,0.3762,0.3208,0.2736,0.2249,0.0,0.1202,0.1,0.0752,0.0547,0.0427,0.0155,-0.0124,-0.0396,-0.0682,-0.0935,-0.1143,-0.1244,-0.1349,-0.1558,-0.2001,0.0,0.0,0.0,-0.31,-0.3022,-0.3245,-0.337,-0.3334,-0.3591,-0.3769,-0.3819,-0.4126,-0.434,-0.4471,-0.439,-0.4224,-0.3947,-0.4128,-0.3979,-0.3615,-0.3699,-0.3699,-0.3587,-0.3587,-0.3587,0.0,-0.3587,-0.3587,-0.3587,-0.3587,-0.3587,-0.3587,-0.3587,-0.3307,-0.2943,-0.2889,-0.2636,-0.23,-0.2048,-0.2048,-0.2076,-0.1598,-0.1177,-0.0897,-0.0813,-0.0533,-0.0253,-0.0227,-0.0114,0.0057,0.0337,0.0505,0.0673,0.0981,0.1065,0.1062,0.1051,0.0807,0.0671,0.0858,0.0501,0.0224,0.0364,0.0251,0.0167,0.0167,0.0164,0.0163,0.0165,0.0242,0.0264,0.0158,0.0158,0.0105,0.0,0.0,0.0,0.0,0.0,0.0,0.0,0.0,0.0,0.0,0.0,0.0,0.0,0.0,0.0,0.4803,0.4583,0.4309,0.359,0.3191,0.2795,0.2139,0.1642,0.1239,0.0902,0.0641,0.0442,0.0362,0.0047,-0.0265,-0.0453,-0.072,-0.096,-0.1135,-0.1204,-0.1294,-0.1455,0.0,-0.204,0.0,-0.2473,-0.2933,-0.3247,-0.3342,-0.3351,-0.3273,-0.3464,-0.3628,-0.3704,-0.3923,-0.4094,-0.4153,-0.4145,-0.4017,-0.3772,-0.3817,-0.3766,-0.3587,-0.3587,-0.3587,-0.3587,-0.3587,-0.3587,0.0,-0.3587,-0.3587,-0.3587,-0.3587,-0.3587,-0.3587,-0.3587,-0.339,-0.3054,-0.2806,-0.2637,-0.2469,-0.1964,-0.1739,-0.1685,-0.1777,-0.1323,-0.0785,-0.0981,-0.0675,-0.0283,-0.0287,-0.0144,0.0057,0.0338,0.0393,0.0505,0.0841,0.0813,0.0753,0.0741,0.0499,0.0363,0.0603,0.0277,0.0056,0.0252,0.0112,0.0,0.0,0.0,0.0,0.0,0.0,0.0,0.0,0.0,0.0,0.0,0.0,0.0,0.0,0.0,0.0,0.0,0.0,0.0,0.0,0.0,0.0,0.0,0.0,0.0,0.4277,0.4207,0.4045,0.3375,0.3145,0.2935,0.2336,0.179,0.1305,0.0966,0.0629,0.036,0.0225,-0.0022,-0.0312,-0.0648,-0.0817,-0.0994,-0.1254,-0.1293,-0.1322,0.0,0.0,-0.1891,-0.1637,-0.2202,-0.2756,-0.3169,-0.3317,0.0,-0.3213,-0.3263,-0.3424,-0.3704,-0.3567,-0.3603,-0.3807,-0.3601,-0.3496,-0.3496,-0.3497,-0.3529,-0.3587,-0.3587,-0.3587,-0.3587,-0.3587,-0.3587,0.0,-0.3587,-0.3587,-0.3587,-0.3587,-0.3587,-0.3587,-0.3587,-0.339,-0.3054,-0.2806,-0.2497,-0.216,-0.1879,-0.157,-0.1378,-0.1687,-0.1136,-0.0393,-0.0421,-0.0227,0.0,0.0,0.0,0.0057,0.0338,0.0393,0.0505,0.0841,0.0645,0.0418,0.0412,0.0194,0.0,0.0,0.0,0.0,0.0,0.0,0.0,0.0,0.0,0.0,0.0,0.0,0.0,0.0,0.0,0.0,0.0,0.0,0.0,0.0,0.0,0.0,0.0,0.0,0.0,0.0,0.0,0.0,0.0,0.0,0.0,0.3717,0.3584,0.346,0.2926,0.2631,0.2387,0.2016,0.1546,0.11,0.0758,0.0392,0.0112,0.0067,-0.023,-0.0478,-0.0491,-0.076,-0.0965,0.0,0.0,0.0,-0.1401,-0.1784,-0.2097,0.0,0.0,-0.2787,-0.3223,-0.3183,-0.3165,-0.3271,-0.3285,-0.3346,-0.3424,-0.3383,-0.3394,-0.3453,-0.3393,-0.335,-0.3351,-0.3458,-0.3506,-0.3526,-0.3568,-0.3587,-0.3587,-0.3587,-0.3587,-0.3587,-0.3587,-0.3587,-0.3587,-0.3587,-0.3587,-0.3559,-0.3334,-0.3194,-0.3026,-0.2524,-0.23,-0.216,-0.1879,-0.157,-0.1375,-0.1693,-0.1306,-0.0742,-0.0742,-0.0693,-0.0553,-0.0341,-0.0285,-0.02,0.0056,0.014,0.0168,0.0252,0.0195,0.0137,0.0135,0.0055,0.0,0.0,0.0,0.0,0.0,0.0,-0.0056,-0.0252,-0.0112,-0.0084,-0.0252,-0.028,-0.0196,-0.0028,-0.0167,-0.0194,0.0,-0.0386,-0.0524,-0.0276,-0.0276,-0.0276,-0.0276,-0.0083,0.0,0.0,0.0,0.0,0.0,0.0,0.0,0.3053,0.3083,0.3077,0.2492,0.2331,0.2185,0.1721,0.133,0.095,0.0531,0.0165,-0.009,-0.0146,-0.0374,-0.0547,-0.0488,-0.0744,-0.0945,0.0,0.0,0.0,-0.1416,0.0,0.0,0.0,-0.252,-0.2795,-0.3216,-0.3081,-0.3063,-0.3239,-0.3262,-0.3262,-0.3262,-0.3307,-0.3319,-0.3296,-0.3296,-0.3296,-0.3296,-0.3395,-0.3454,-0.3497,-0.3536,-0.3565,-0.3587,-0.3587,-0.3587,0.0,-0.3587,-0.3587,-0.3587,-0.3587,-0.3587,-0.3559,-0.3222,-0.3109,-0.3026,-0.2412,-0.2207,-0.2169,-0.1875,-0.1661,-0.15,-0.1585,-0.1369,-0.1035,-0.0776,-0.0727,-0.0703,-0.0456,-0.0314,-0.02,-0.0028,0.0,0.0,0.0,0.0,0.0,0.0,0.0,0.0,0.0,0.0,0.0,0.0,0.0,-0.0084,-0.0364,-0.0252,-0.0252,-0.0561,-0.0589,-0.0477,-0.0168,-0.0421,-0.0505,-0.0336,-0.0701,-0.0813,-0.0589,-0.0477,-0.0393,-0.0393,-0.014,0.0,0.0,0.0,0.0,0.0,0.0,0.0,0.0,0.2658,0.2817,0.2056,0.2148,0.2228,0.1483,0.1143,0.0,0.0334,0.0012,-0.0225,-0.035,-0.045,-0.0533,-0.0581,-0.076,-0.0949,0.0,-0.1211,0.0,0.0,-0.1804,0.0,-0.2383,-0.2528,-0.2755,-0.3169,-0.3005,-0.2987,-0.3189,-0.3208,-0.3205,-0.3205,-0.3315,-0.3346,-0.329,-0.3289,-0.3289,-0.3289,-0.3293,-0.3352,-0.3485,-0.3493,-0.3527,0.0,-0.3585,-0.3587,-0.3587,-0.3587,-0.3587,-0.3587,-0.3587,-0.3587,-0.3559,-0.3194,-0.3109,-0.3054,-0.2384,-0.2193,-0.2197,-0.1897,-0.1814,-0.1751,-0.1407,-0.1351,-0.1267,-0.0633,-0.0494,-0.0527,-0.0461,-0.023,-0.0029,0.0,0.0,0.0,0.0,0.0,0.0,0.0,0.0,0.0,0.0,0.0,0.0,0.0,0.0,-0.0112,-0.0392,-0.0421,-0.0533,-0.0897,-0.0925,-0.0813,-0.0477,-0.0757,-0.0897,-0.0869,-0.0925,-0.0953,-0.0925,-0.0617,-0.0449,-0.0449,-0.014,0.0,0.0,0.0,0.0,0.0,0.0,0.0,0.1655,0.0,0.1953,0.1663,0.1669,0.1671,0.0,0.1183,0.0,0.0,0.0,-0.0057,-0.0094,-0.0402,-0.0613,-0.0475,-0.0702,-0.0913,-0.0945,-0.1201,0.0,-0.1562,-0.1831,-0.2107,-0.238,-0.2466,-0.2731,-0.3251,-0.3054,-0.3003,-0.3275,-0.3231,-0.3205,-0.3205,-0.3234,-0.324,-0.3227,-0.3227,-0.3227,-0.3227,-0.3273,-0.3311,-0.3339,-0.3455,-0.3504,-0.3521,-0.3567,-0.3587,-0.3587,-0.3587,-0.3587,-0.3587,-0.3587,-0.3587,-0.3531,-0.3001,-0.3083,-0.3335,-0.2271,-0.2182,-0.2484,-0.1961,-0.18,-0.1749,-0.1411,-0.135,-0.1344,-0.1154,-0.0951,-0.0806,-0.0793,-0.0541,-0.0258,-0.0056,0.0,0.0,0.0,0.0,0.0,0.0,0.0,0.0,0.0,0.0,0.0,0.0,0.0,-0.0194,-0.0728,-0.0561,-0.0617,-0.1149,-0.1206,-0.1177,-0.1093,-0.1149,-0.1009,-0.0561,-0.1177,-0.1486,-0.1206,-0.0925,-0.0785,-0.0785,-0.028,0.0,0.0,0.0,0.0,0.0,0.0,-0.0148,0.1247,0.1498,0.1765,0.1481,0.152,0.1592,0.1401,0.0,0.0,0.0,0.0,0.0034,-0.0154,-0.0345,-0.049,-0.0531,-0.0612,0.0,0.0,0.0,-0.149,-0.1581,-0.1833,-0.2046,0.0,-0.2241,-0.2486,-0.3024,-0.2818,-0.2843,-0.3228,-0.3223,-0.3205,-0.3205,-0.3205,-0.3205,-0.3205,-0.3332,-0.3332,-0.3206,-0.3366,-0.3397,-0.3297,-0.3387,-0.3446,-0.3499,-0.3531,-0.3561,-0.3587,-0.3587,-0.3587,-0.3587,-0.3587,-0.3587,-0.3531,-0.2918,-0.2918,-0.3057,-0.2131,-0.202,-0.2241,-0.1917,-0.1811,-0.1767,-0.157,-0.1562,-0.1524,-0.1197,-0.1,-0.0859,-0.0704,-0.0452,-0.017,-0.0028,0.0,0.0,0.0,0.0,0.0,0.0,-0.0107,-0.0188,-0.0189,-0.0298,-0.0326,-0.0192,-0.0192,-0.0357,-0.0831,-0.0753,-0.0869,-0.1458,-0.1402,-0.1262,-0.1121,-0.1121,-0.1037,-0.0813,-0.143,-0.1655,-0.1318,-0.1037,-0.0757,-0.0505,-0.017,0.0,0.0,0.0,0.0,0.0,-0.0148,-0.0329,0.1104,0.1506,0.1849,0.142,0.1543,0.1688,0.1371,0.0,0.0,0.0,0.0,0.0,0.0,-0.025,0.0,0.0,0.0,0.0,-0.1053,-0.131,-0.1484,-0.1599,-0.1811,0.0,-0.198,-0.199,-0.222,-0.2764,-0.2594,-0.2674,-0.318,-0.3205,-0.3205,-0.3205,-0.3205,-0.3205,-0.3205,-0.3383,-0.3383,-0.3205,-0.3383,-0.3411,-0.3282,-0.3292,-0.3348,-0.347,-0.3544,0.0,-0.3602,-0.364,-0.3643,-0.3587,-0.3587,-0.3587,-0.3531,-0.2973,-0.2748,-0.2665,-0.2076,-0.1823,-0.1791,-0.1792,-0.1802,-0.1795,-0.1739,-0.1767,-0.1683,-0.1065,-0.0906,-0.0828,-0.0478,-0.0197,0.0,0.0,0.0,0.0,0.0,0.0,0.0,0.0,-0.0211,-0.0393,-0.0399,-0.0585,-0.0665,-0.0428,-0.0352,-0.0464,-0.0795,-0.0864,-0.1126,-0.1689,-0.1495,-0.1215,-0.0989,-0.0933,-0.0989,-0.1159,-0.149,-0.1514,-0.1177,-0.0956,-0.0563,0.0,0.0,0.0,0.0,0.0,0.0,0.0,-0.0301,-0.0454,0.1411,0.1586,0.1689,0.1446,0.151,0.157,0.1354,0.0,0.0,0.0,0.0,0.0,0.0,-0.0081,-0.0363,0.0,0.0,-0.0716,0.0,0.0,-0.1268,-0.1568,0.0,-0.174,-0.1905,-0.1959,-0.2233,-0.2763,-0.275,-0.2876,-0.318,-0.3205,-0.3205,-0.3205,-0.3205,-0.3205,-0.3205,-0.3027,-0.3027,-0.3205,-0.3002,-0.3033,-0.322,-0.3271,-0.3305,-0.3354,0.0,-0.3721,-0.3542,-0.3819,-0.3813,-0.3587,-0.3587,-0.3587,-0.3559,-0.3166,-0.3026,-0.2942,-0.2355,-0.1992,-0.1794,-0.1789,-0.1791,-0.1739,-0.1458,-0.157,-0.1683,-0.1065,-0.0899,-0.0816,-0.0477,-0.0198,0.0,0.0,0.0,0.0,0.0,0.0,0.0,0.0,-0.0213,-0.0399,-0.04,-0.0421,-0.0448,-0.0407,-0.0216,-0.0162,-0.0445,-0.0737,-0.1031,-0.1432,-0.1421,-0.1374,-0.1316,-0.1053,-0.0789,-0.0555,-0.0855,-0.0897,-0.0561,-0.0512,-0.0315,0.0,0.0,0.0,0.0,0.0,0.0,0.0,-0.0061,-0.0215,0.1244,0.1403,0.1552,0.1384,0.1527,0.1657,0.1457,0.1196,0.0,0.0,0.0,0.0,0.0,0.0,-0.0096,-0.0128,0.0,-0.0896,-0.0965,-0.1216,-0.1429,0.0,0.0,-0.1639,-0.1722,-0.1773,-0.2016,-0.2539,-0.2585,-0.2775,-0.318,-0.3205,-0.3205,-0.3205,-0.3205,-0.3205,-0.3205,-0.2927,-0.2927,-0.3205,-0.323,-0.323,-0.3206,-0.3234,-0.3265,-0.3298,0.0,-0.3528,-0.3456,-0.3652,-0.3649,-0.3541,-0.3575,-0.3567,-0.3483,-0.3014,-0.2642,-0.2354,-0.2075,-0.1907,-0.1767,-0.1598,-0.1655,-0.1711,-0.1234,-0.129,-0.1402,-0.0813,-0.0757,-0.0812,-0.0499,-0.0196,0.0,0.0,0.0,0.0,0.0,0.0,0.0,0.0,-0.0212,-0.0394,-0.0394,-0.0518,-0.0572,-0.0435,-0.0297,-0.027,-0.0391,-0.0541,-0.0748,-0.1092,-0.0963,-0.0854,-0.0854,-0.0589,-0.0501,-0.0648,-0.0639,-0.0547,-0.0403,-0.0406,-0.0262,0.0,0.0,0.0,0.0,0.0,0.0,0.0,-0.0185,-0.0341,0.1168,0.1272,0.1383,0.1368,0.1539,0.1663,0.1488,0.1176,0.0,0.0,0.0,0.0,0.0,0.0128,0.0,-0.0059,-0.0576,-0.0926,-0.0876,-0.123,-0.1518,-0.1574,-0.1574,-0.1571,-0.1565,-0.1632,-0.1874,-0.2339,-0.246,-0.2699,-0.318,-0.3192,-0.319,-0.3205,-0.3192,-0.319,-0.3205,-0.3002,-0.3002,-0.3205,-0.3358,-0.3332,-0.3205,-0.3205,-0.3231,-0.3275,-0.3366,-0.34,-0.3395,-0.3533,-0.3557,-0.3481,-0.3527,-0.3498,-0.3334,-0.2734,-0.2239,-0.1879,-0.1823,-0.1739,-0.1655,-0.1374,-0.1486,-0.1598,-0.1065,-0.1149,-0.1318,-0.0757,-0.0757,-0.0811,-0.0414,-0.0167,0.0,0.0,0.0,0.0,0.0,0.0,0.0,0.0,-0.0212,-0.0392,-0.0392,-0.0566,-0.0648,-0.0437,-0.0352,-0.0298,-0.0309,-0.0372,-0.052,-0.0781,-0.0589,-0.0387,-0.0328,-0.0119,-0.0208,-0.0655,-0.0445,-0.0296,-0.0295,-0.0296,-0.0207,0.0,0.0,0.003,0.0121,0.0031,0.0031,0.0123,-0.0217,-0.0375,0.1548,0.1354,0.1121,0.1484,0.1506,0.1404,0.1329,0.1141,0.0,0.0926,0.0,0.0,0.0,0.0176,-0.0079,-0.0333,-0.0414,-0.0587,-0.1015,0.0,-0.1228,-0.1484,-0.1511,-0.1476,-0.1425,-0.176,-0.2074,-0.2279,-0.2598,-0.2901,-0.318,-0.3152,-0.3147,-0.3204,-0.3151,-0.3148,-0.3205,-0.318,-0.318,-0.3205,-0.2977,-0.2977,-0.3205,-0.3205,-0.3208,-0.324,-0.3603,-0.3581,-0.3332,-0.3707,-0.3682,-0.3418,-0.3424,-0.3295,-0.3063,-0.2461,-0.2212,-0.2132,-0.1879,-0.1598,-0.1346,-0.1318,-0.1318,-0.129,-0.0981,-0.1318,-0.1683,-0.1346,-0.1065,-0.0757,-0.0168,-0.0028,0.0,0.0,0.0,0.0,0.0,0.0,0.0,0.0,-0.0216,-0.0399,-0.0399,-0.042,-0.0422,-0.0417,-0.0191,-0.0027,-0.0029,-0.0291,-0.05,-0.0529,-0.0514,-0.0369,-0.0062,0.0,-0.0031,-0.0062,-0.003,-0.003,-0.0029,-0.003,-0.003,0.0,0.0,0.0154,0.0462,0.0154,0.0154,0.0463,0.0125,-0.0032,0.1266,0.1352,0.142,0.1369,0.1435,0.0,0.0,0.1208,0.1115,0.0887,0.0671,0.0,0.0,0.0,-0.0176,-0.0146,-0.0437,-0.07,-0.0899,-0.1162,-0.1396,-0.1482,-0.1504,-0.1499,-0.1465,-0.1606,-0.1812,-0.2088,-0.224,-0.2481,-0.2876,-0.2704,-0.2772,-0.3122,-0.3004,-0.2995,-0.3205,-0.3205,-0.3205,-0.3205,-0.3104,-0.3104,-0.3205,-0.3205,-0.3205,-0.3206,-0.3355,-0.3366,-0.3244,-0.346,-0.3354,-0.3066,-0.2909,-0.272,-0.2513,-0.2241,-0.1917,-0.1627,-0.1514,-0.129,-0.1009,-0.0813,-0.0981,-0.1177,-0.0533,-0.0757,-0.1149,-0.0645,-0.0421,-0.0364,-0.0526,-0.028,0.0,0.0,0.0,0.0,0.0,0.0,0.0,0.0,-0.0083,-0.0165,-0.0163,-0.016,-0.0161,-0.0141,-0.0055,0.0,0.0,-0.0117,-0.0177,-0.0177,-0.0182,-0.0123,0.0,0.0,0.0,0.0,0.0,0.0,0.0,0.0,0.0,0.0,0.0,0.0062,0.0185,0.0281,0.0376,0.0501,0.0636,0.0547,0.1202,0.1375,0.1575,0.1328,0.0,0.0,0.1198,0.113,0.1066,0.0864,0.0656,0.0385,-0.0019,0.0,0.0,0.0,-0.0524,-0.0789,-0.0891,-0.1229,-0.1466,-0.1469,-0.1466,-0.1466,-0.1466,-0.1564,-0.1711,-0.1951,-0.2037,-0.2238,-0.2552,-0.246,-0.2581,-0.299,-0.2925,-0.3001,-0.3205,-0.3104,-0.3079,-0.3079,-0.3079,-0.313,-0.3205,-0.3205,-0.3205,-0.3205,-0.3104,-0.3079,-0.3082,-0.3044,-0.2906,-0.2728,-0.2458,-0.2298,-0.2166,-0.2033,-0.1688,-0.1289,-0.131,-0.106,-0.0701,-0.0477,-0.0757,-0.1037,-0.0336,-0.0561,-0.0925,-0.0421,-0.0196,-0.0224,-0.0636,-0.0363,0.0,0.0,0.0,0.0,0.0,0.0,0.0,0.0,0.0,0.0,0.0,0.0,0.0,0.0,0.0,0.0,0.0,0.0,0.0,0.0,0.0,0.0,0.0,0.0,0.0,0.0,0.0,0.0,0.0,0.0,0.0,0.0,0.0,0.0062,0.0154,0.0374,0.0503,0.0506,0.0769,0.0715,0.1477,0.1452,0.1486,0.1423,0.0,0.0,0.107,0.0857,0.0745,0.0862,0.0565,0.0167,-0.0234,-0.014,0.0,-0.0629,-0.0698,-0.0784,-0.1054,-0.1278,-0.1391,-0.1391,-0.1413,-0.1413,-0.1391,-0.1692,-0.1898,-0.1898,-0.2146,-0.229,-0.229,-0.2481,-0.2663,-0.2791,-0.2984,-0.3132,-0.3204,-0.2927,-0.2801,-0.2799,-0.2799,-0.2952,-0.3205,-0.3205,-0.3205,-0.318,-0.2927,-0.2801,-0.2775,-0.2497,-0.2396,-0.2375,-0.2162,-0.2097,-0.2077,-0.1784,-0.1525,-0.1287,-0.1293,-0.0885,-0.0393,-0.0393,-0.0617,-0.0841,-0.0505,-0.0813,-0.1234,-0.0981,-0.0645,-0.0393,-0.0393,-0.0199,0.0,0.0,0.0,0.0,0.0,0.0,0.0,0.0,0.0,0.0,0.0,0.0,0.0,0.0,0.0,0.0,0.0,0.0,0.0,0.0,0.0,0.0,0.0,0.0,0.0,0.0,0.0,0.0,0.0,0.0,0.0,0.0,0.0,0.0154,0.0494,0.0494,0.0498,0.0506,0.0513,0.0325,0.1573,0.1622,0.0,0.1641,0.0,0.0,0.0,0.1199,0.0,0.0,0.002,-0.0281,-0.0532,-0.0421,0.0,-0.0399,-0.0582,-0.0728,-0.0806,-0.1143,-0.1391,-0.1391,-0.157,-0.1615,-0.1413,-0.1668,-0.1782,-0.1619,-0.1699,-0.1798,-0.1938,-0.2016,-0.226,-0.2712,-0.2795,-0.2937,-0.3204,-0.313,-0.3058,-0.3018,-0.3018,-0.2989,-0.2927,-0.3104,-0.3205,-0.3205,-0.3104,-0.2977,-0.2775,-0.2297,-0.2122,-0.2097,-0.1854,-0.1777,-0.1782,-0.1513,-0.1244,-0.0992,-0.075,-0.0419,-0.0112,-0.0112,-0.0477,-0.0813,-0.028,-0.0533,-0.0925,-0.0421,-0.0196,-0.0112,-0.0112,-0.0056,0.0,0.0,0.0,0.0,0.0,0.0,0.0,0.0,0.0,0.0,0.0,0.0,0.0,0.0,0.0,0.0,0.0,0.0,0.0,0.0,0.0,0.0,0.0,0.0,0.0,0.0,0.0,0.0,0.0,0.0,0.0123,0.034,0.034,0.0403,0.0502,0.1014,0.1155,0.0911,0.1156,0.11,0.1759,0.1832,0.0,0.1906,0.1833,0.1663,0.1285,0.0,0.0,0.0,-0.0123,-0.0329,-0.0601,-0.0504,0.0,-0.065,-0.0772,-0.0852,-0.0972,-0.1227,-0.1431,-0.1551,-0.1696,-0.1727,-0.157,-0.1702,-0.1714,-0.1486,-0.1463,-0.1554,-0.1783,-0.1897,-0.2164,-0.2635,-0.2754,-0.2939,-0.3157,-0.3035,-0.2895,-0.279,-0.2861,-0.2732,-0.2468,-0.2936,-0.3172,-0.3145,-0.2968,-0.2726,-0.2449,-0.2021,-0.1844,-0.182,-0.1681,-0.1672,-0.1666,-0.1404,-0.1131,-0.0849,-0.0526,-0.0223,0.0,0.0,-0.0308,-0.0617,-0.014,-0.0336,-0.0617,-0.014,0.0,0.0,0.0,0.0,0.0,0.0,0.0,0.0,0.0,0.0,0.003,0.0182,0.0211,0.024,0.0387,0.0297,0.0208,0.0208,0.009,0.0,0.0,0.0,0.0,0.0,0.0,0.0,0.0,0.0,0.0,0.0,0.0123,0.0185,0.0185,0.0185,0.037,0.0679,0.071,0.0684,0.0695,0.1274,0.1389,0.1121,0.1429,0.1339,0.1971,0.202,0.2091,0.2152,0.1907,0.0,0.0762,0.0591,0.0448,0.0041,0.0,-0.0164,-0.057,-0.045,-0.0516,-0.1134,-0.1094,-0.1066,-0.1304,-0.1392,-0.151,-0.1763,-0.1815,-0.1817,-0.1794,-0.1794,-0.1682,-0.1413,-0.1391,-0.1503,-0.1749,-0.2019,-0.2288,-0.2545,-0.2822,-0.2988,-0.3072,-0.2762,-0.2499,-0.2284,-0.2471,-0.235,-0.1946,-0.2712,-0.3058,-0.3021,-0.2552,-0.2221,-0.1971,-0.1718,-0.1592,-0.1594,-0.1673,-0.1684,-0.1662,-0.1349,-0.1103,-0.0846,-0.0493,-0.0194,0.0,0.0,-0.0168,-0.0336,-0.0084,-0.0196,-0.0336,-0.0084,0.0,0.0,0.0,0.0,0.0,0.0,0.0,0.0,0.003,0.003,0.0151,0.0492,0.0524,0.0582,0.0909,0.0665,0.0453,0.0453,0.0214,0.0031,0.0031,0.0031,0.0062,0.0093,0.0062,0.0031,0.0031,0.0031,0.0031,0.0031,0.037,0.0556,0.0587,0.0556,0.071,0.105,0.1051,0.106,0.1044,0.1393,0.1414,0.1155,0.1453,0.123,0.1914,0.1859,0.0,0.1886,0.1586,0.1186,0.0714,0.0478,0.0244,-0.0224,-0.0314,-0.0446,-0.084,-0.0616,-0.0457,-0.0719,-0.0751,-0.0783,-0.0848,-0.1309,-0.1681,-0.1782,-0.1993,-0.2042,-0.1817,-0.1794,-0.1682,-0.1413,-0.1391,-0.1436,-0.148,-0.1749,-0.2016,-0.2266,-0.2546,-0.2709,-0.2785,-0.2715,-0.2529,-0.2213,-0.2259,-0.224,-0.214,-0.2583,-0.2696,-0.2528,-0.2229,-0.2046,-0.1971,-0.1718,-0.1592,-0.1592,-0.1624,-0.1626,-0.1557,-0.108,-0.0882,-0.0754,-0.0249,-0.0056,0.0,0.0,-0.0168,-0.0336,-0.0084,-0.0196,-0.0336,-0.0084,0.0,0.0,0.0,0.0,0.0,0.0,0.0,0.0059,0.0336,0.0362,0.0418,0.0829,0.0636,0.0449,0.0582,0.0338,0.0092,0.0092,0.0277,0.0401,0.0401,0.0401,0.0494,0.0772,0.0556,0.0401,0.0401,0.0401,0.0401,0.0401,0.071,0.1019,0.1266,0.1019,0.105,0.139,0.1405,0.1391,0.138,0.1786,0.1812,0.1508,0.1575,0.151,0.1905,0.0,0.0,0.1633,0.0,0.1086,0.0683,0.0377,0.006,-0.028,-0.035,-0.0483,-0.0913,-0.0717,-0.0596,-0.0894,-0.0873,-0.0886,-0.0973,-0.1321,-0.1663,-0.1909,-0.1981,-0.1997,-0.1997,-0.1867,-0.1686,-0.1412,-0.14,-0.1464,-0.1592,-0.1839,-0.2052,-0.2188,-0.2418,-0.2521,-0.2455,-0.2455,-0.2303,-0.2007,-0.2144,-0.2132,-0.2021,-0.2317,-0.241,-0.2295,-0.2093,-0.1994,-0.1971,-0.1711,-0.1592,-0.1592,-0.1592,-0.1524,-0.1362,-0.0951,-0.0724,-0.0542,-0.0139,0.0,0.0,0.0,-0.0084,-0.0196,-0.0056,-0.0084,-0.0168,-0.0028,0.0,0.0,0.0,0.0084,0.0197,0.0231,0.0233,0.0293,0.0421,0.057,0.0779,0.1126,0.1061,0.1,0.117,0.0803,0.037,0.0062,0.0278,0.0494,0.0494,0.0648,0.0803,0.0988,0.0833,0.0741,0.0741,0.0587,0.0494,0.0494,0.0803,0.108,0.1266,0.139,0.1575,0.1729,0.1754,0.1747,0.1773,0.1996,0.2025,0.1885,0.1885,0.1784,0.182,0.0,0.1543,0.1342,0.1167,0.0,0.0586,0.0177,-0.0157,-0.0375,-0.0381,-0.0491,-0.0918,-0.0786,-0.0738,-0.1173,-0.1102,-0.1049,-0.1221,-0.1338,-0.1561,-0.1986,-0.1852,-0.1827,-0.2087,-0.1878,-0.1633,-0.1462,-0.1418,-0.1505,-0.176,-0.1957,-0.2072,-0.2131,-0.2303,-0.2303,-0.2131,-0.2131,-0.1997,-0.1727,-0.1952,-0.1952,-0.1728,-0.1964,-0.2076,-0.2065,-0.198,-0.194,-0.1919,-0.168,-0.1566,-0.1541,-0.1592,-0.1402,-0.1114,-0.0874,-0.0619,-0.0355,-0.0084,0.0,0.0,0.0,0.0,0.0,-0.0056,-0.0028,0.0,-0.0056,-0.0028,0.0,0.0056,0.0224,0.0424,0.0555,0.0612,0.0638,0.0592,0.0838,0.1147,0.1454,0.15,0.1544,0.1698,0.1328,0.0772,0.0093,0.0309,0.0556,0.0587,0.0833,0.105,0.1173,0.1173,0.1143,0.108,0.0833,0.0679,0.0679,0.0988,0.1173,0.1173,0.1698,0.201,0.2015,0.2011,0.2041,0.2105,0.2102,0.213,0.2188,0.2188,0.202,0.1375,0.0,0.1139,0.0,0.064,0.0362,0.0,0.0,-0.0592,0.0,-0.0731,-0.0652,-0.094,-0.0788,-0.0696,-0.0989,-0.1024,-0.0999,-0.1034,-0.1238,-0.1491,-0.1728,-0.1568,-0.1537,-0.1742,-0.1524,-0.1439,-0.1653,-0.1439,-0.143,-0.17,-0.1523,-0.1556,-0.1837,-0.1873,-0.1872,-0.1861,-0.1861,-0.1727,-0.1458,-0.148,-0.148,-0.1458,-0.1485,-0.1547,-0.1601,-0.1642,-0.1645,-0.1648,-0.1605,-0.1465,-0.1288,-0.1516,-0.129,-0.084,-0.0817,-0.0641,-0.035,-0.0083,0.0,0.0,0.0,0.0,-0.0056,-0.028,-0.0196,-0.0056,-0.028,-0.0168,0.0056,0.028,0.0364,0.0481,0.0789,0.1059,0.1302,0.1342,0.1338,0.1454,0.1842,0.1696,0.1328,0.0803,0.0864,0.0772,0.0093,0.037,0.0741,0.0926,0.0957,0.1235,0.1791,0.1853,0.176,0.1451,0.139,0.1359,0.1359,0.1667,0.1853,0.1853,0.1946,0.1988,0.2012,0.2043,0.2105,0.2104,0.2167,0.2184,0.2188,0.2188,0.2155,0.1246,0.1204,0.1177,0.0,0.0695,0.0373,0.021,-0.0233,-0.067,-0.0896,-0.1057,-0.1162,-0.1157,-0.0944,-0.085,-0.1131,-0.1083,-0.1029,-0.1154,-0.1294,-0.1465,-0.1685,-0.1485,-0.1446,-0.1683,-0.1456,-0.135,-0.1472,-0.1369,-0.1353,-0.1473,-0.1541,-0.1578,-0.1585,-0.1725,-0.1734,-0.1569,-0.157,-0.1525,-0.1391,-0.1391,-0.1345,-0.1233,-0.1233,-0.124,-0.1275,-0.1314,-0.1259,-0.1143,-0.1154,-0.1094,-0.0995,-0.1107,-0.0915,-0.0565,-0.0575,-0.0399,-0.0163,-0.0028,0.0,0.0,0.0,0.0,-0.0028,-0.014,-0.0084,-0.0028,-0.014,-0.0084,0.0084,0.0369,0.0569,0.0774,0.1155,0.1463,0.1713,0.1752,0.1751,0.1777,0.1974,0.1884,0.1575,0.0895,0.0895,0.0772,0.0093,0.0401,0.0741,0.0833,0.1266,0.1667,0.1977,0.2008,0.1946,0.1791,0.1606,0.1513,0.1513,0.1637,0.1729,0.1729,0.1915,0.199,0.1986,0.208,0.2111,0.2109,0.2173,0.2188,0.2188,0.2188,0.2188,0.0,0.0,0.105,0.095,0.0608,0.0268,0.0,0.0,-0.072,0.0,-0.1174,-0.14,-0.1297,-0.116,-0.1106,-0.1269,-0.1171,-0.1127,-0.1305,-0.1318,-0.1382,-0.1593,-0.1379,-0.1332,-0.1565,-0.1418,-0.1329,-0.1365,-0.1325,-0.1308,-0.1294,-0.1539,-0.156,-0.1325,-0.1548,-0.1585,-0.1412,-0.1345,-0.13,-0.1233,-0.13,-0.1211,-0.1009,-0.1076,-0.1031,-0.092,-0.0986,-0.0948,-0.0789,-0.0797,-0.0761,-0.0713,-0.0777,-0.0586,-0.031,-0.0365,-0.0239,0.0,0.0,0.0,0.0,0.0,0.0,0.0,-0.0084,-0.0056,-0.0028,-0.0084,-0.0056,0.0084,0.0484,0.0745,0.1013,0.1482,0.174,0.1909,0.2001,0.2008,0.2008,0.2008,0.2008,0.1822,0.1235,0.1142,0.0926,0.0278,0.0463,0.0648,0.0525,0.139,0.1946,0.1822,0.1915,0.2008,0.2008,0.176,0.1637,0.1637,0.1637,0.1637,0.1637,0.1853,0.199,0.1986,0.208,0.2111,0.2109,0.2173,0.2256,0.2323,0.2256,0.2256,0.0,0.0684,0.0,0.0445,0.0091,-0.0264,0.0,0.0,-0.0892,-0.0892,-0.0927,-0.0995,-0.1164,-0.135,-0.144,-0.131,-0.13,-0.1303,-0.1393,-0.1189,-0.1109,-0.1388,-0.1172,-0.109,-0.131,-0.1303,-0.1372,-0.1561,-0.14,-0.1295,-0.1303,-0.1319,-0.1263,-0.113,-0.1253,-0.1348,-0.139,-0.1211,-0.0987,-0.074,-0.0987,-0.0987,-0.074,-0.0987,-0.0852,-0.0449,-0.0711,-0.0809,-0.0789,-0.0797,-0.0638,-0.0443,-0.0702,-0.048,-0.0051,-0.0316,-0.024,0.0,0.0,0.0,0.0,0.0,0.0,-0.0056,-0.0308,-0.0196,-0.0056,-0.0308,-0.0196,0.014,0.073,0.0881,0.1035,0.1642,0.183,0.1909,0.2001,0.2008,0.2008,0.2008,0.2008,0.1884,0.1544,0.1482,0.1297,0.0741,0.0679,0.0525,0.0093,0.1173,0.1822,0.139,0.1729,0.2008,0.2008,0.1977,0.1977,0.1977,0.1977,0.1977,0.1977,0.1977,0.199,0.1986,0.208,0.2111,0.2109,0.2173,0.2357,0.266,0.2357,0.2357,0.0,0.0,0.0,0.0513,0.0302,0.0075,-0.0176,-0.048,-0.0746,-0.0865,-0.1106,-0.1263,-0.1214,-0.125,-0.1306,-0.1301,-0.1291,-0.1333,-0.1392,-0.1274,-0.1242,-0.1388,-0.1267,-0.1263,-0.147,-0.1384,-0.1391,-0.1595,-0.1295,-0.1082,-0.1055,-0.0961,-0.0901,-0.0851,-0.1014,-0.1128,-0.1144,-0.1078,-0.093,-0.0695,-0.0807,-0.0718,-0.0515,-0.0605,-0.0471,-0.0157,-0.0249,-0.0295,-0.0296,-0.0284,-0.0241,-0.0145,-0.0249,-0.0177,0.0,-0.0104,-0.0079,0.0,0.0,0.0,0.0,0.0,0.0,-0.0028,-0.0112,-0.0084,-0.0028,-0.0112,-0.0084,0.0141,0.0739,0.0923,0.1116,0.1768,0.1945,0.1963,0.2005,0.2008,0.2008,0.2008,0.2008,0.1884,0.1544,0.1513,0.142,0.1142,0.108,0.1143,0.1266,0.1328,0.1451,0.1729,0.1915,0.2008,0.2008,0.2008,0.2008,0.2008,0.2008,0.2008,0.2008,0.1994,0.1999,0.1992,0.2059,0.2098,0.2109,0.2374,0.2458,0.239,0.2492,0.2458,0.0709,0.0,0.0,0.0,0.0351,0.0163,-0.0074,-0.0321,-0.0567,-0.0795,-0.1022,-0.1194,-0.1165,-0.1189,-0.1229,-0.129,-0.1288,-0.1293,-0.1363,-0.1339,-0.1295,-0.1258,-0.1297,-0.1382,-0.1486,-0.1369,-0.1351,-0.1496,-0.1168,-0.0911,-0.0806,-0.0778,-0.0769,-0.0761,-0.0844,-0.0853,-0.0766,-0.0794,-0.0696,-0.0466,-0.0555,-0.049,-0.0269,-0.0359,-0.0247,0.0,0.0,0.0,0.0,0.0,0.0,0.0,0.0,0.0,0.0,0.0,0.0,0.0,0.0,0.0,0.0,0.0,0.0,0.0,0.0,0.0,0.0,0.0,0.0,0.0141,0.0739,0.1092,0.1374,0.1841,0.1976,0.1979,0.1959,0.1969,0.2008,0.2008,0.2008,0.1915,0.1698,0.1667,0.1637,0.1544,0.1451,0.1482,0.1791,0.1451,0.1328,0.1791,0.1946,0.2008,0.2008,0.2008,0.2008,0.2008,0.2008,0.2008,0.2008,0.1994,0.2,0.1991,0.2059,0.2099,0.2109,0.2508,0.2593,0.2357,0.2593,0.2526,0.0,0.0,0.0,0.0,0.015,-0.0073,-0.0014,-0.015,-0.0366,-0.0637,-0.0642,-0.0702,-0.1039,-0.1146,-0.1222,-0.1284,-0.1249,-0.1223,-0.1291,-0.1303,-0.123,-0.1042,-0.124,-0.1366,-0.1307,-0.1298,-0.1289,-0.1296,-0.1054,-0.0803,-0.0607,-0.0766,-0.0884,-0.0884,-0.076,-0.0562,-0.0305,-0.0374,-0.0255,0.0,-0.0261,-0.0242,0.0,-0.0269,-0.0247,0.0,0.0,0.0,0.0,0.0,0.0,0.0,0.0,0.0,0.0,0.0,0.0,0.0,0.0,0.0,0.0,0.0,0.0,0.0,0.0,0.0,0.0,0.0,0.0,0.014,0.0729,0.1347,0.1812,0.1872,0.1887,0.1896,0.1896,0.1956,0.2008,0.2008,0.2008,0.2008,0.2008,0.2008,0.2008,0.2008,0.1729,0.1513,0.1513,0.1513,0.1513,0.1513,0.1791,0.2008,0.2008,0.2008,0.2008,0.2008,0.2008,0.2008,0.2008,0.201,0.1992,0.1987,0.2082,0.2113,0.2109,0.2508,0.2694,0.2694,0.2694,0.2526,0.0893,0.0,0.0,0.0,0.0,0.0,-0.0071,-0.0154,-0.0224,-0.05,-0.0659,-0.0796,-0.0926,-0.1053,-0.1146,-0.1222,-0.1203,-0.1222,-0.1292,-0.1302,-0.1289,-0.1296,-0.118,-0.1208,-0.1485,-0.1123,-0.0973,0.0,-0.0888,-0.0596,-0.0401,-0.0297,-0.038,-0.0668,-0.0506,-0.0369,-0.0305,-0.0328,-0.0208,0.0,-0.0065,-0.0066,0.0,-0.0067,-0.0067,0.0,0.0,0.0,0.0,0.0,0.0,0.0,0.0,0.0,0.0,0.0,0.0,0.0,0.0,0.0,0.0,0.0,0.0,0.0,0.0,0.0,0.0,0.0,0.0,0.0141,0.074,0.1342,0.1814,0.1875,0.1889,0.1927,0.1958,0.2001,0.2008,0.2008,0.2008,0.2008,0.2008,0.2008,0.2008,0.2008,0.1915,0.1853,0.1853,0.1853,0.1853,0.1853,0.1946,0.2008,0.2008,0.2008,0.2008,0.2008,0.2008,0.1986,0.2006,0.206,0.2075,0.2083,0.2136,0.2156,0.2109,0.274,0.2928,0.2694,0.2694,0.2526,0.0,0.0,0.0,0.0,0.0,0.0,-0.0011,-0.006,-0.0116,-0.0467,-0.0613,-0.0726,-0.091,-0.1029,-0.1116,-0.1196,-0.1203,-0.1215,-0.1252,-0.128,-0.1281,-0.1198,-0.1143,-0.1216,-0.1449,-0.106,-0.0909,-0.1171,-0.0747,-0.0426,-0.0307,-0.0197,-0.0239,-0.0471,-0.0279,-0.018,-0.018,-0.018,-0.0122,0.0,0.0,0.0,0.0,0.0,0.0,0.0,0.0,0.0,0.0,0.0,0.0,0.0,0.0,0.0,0.0,0.0,0.0,0.0,0.0,0.0,0.0,0.0,0.0,0.0,0.0,0.0,0.0,0.0,0.0168,0.0478,0.0936,0.1423,0.1773,0.1662,0.1775,0.1883,0.1768,0.1889,0.2008,0.2008,0.2008,0.2008,0.2008,0.2008,0.2008,0.2008,0.2008,0.2008,0.2008,0.2008,0.2008,0.2008,0.2008,0.2008,0.2008,0.2008,0.2008,0.2008,0.2008,0.2015,0.2001,0.2029,0.2083,0.2096,0.2144,0.2233,0.2361,0.2915,0.3195,0.3164,0.2996,0.2727,0.0,0.0,0.0,0.0,0.0684,0.0,0.0108,0.007,0.0,-0.0457,-0.0502,-0.0556,-0.0869,-0.0999,-0.1083,-0.1162,-0.1181,-0.1174,-0.1206,-0.1256,-0.1185,-0.0933,-0.1096,-0.1215,-0.1212,-0.0969,-0.0876,-0.1086,-0.058,-0.0297,-0.0369,-0.0312,-0.0274,-0.0294,-0.0098,0.0,0.0,0.0,0.0,0.0,0.0,0.0,0.0,0.0,0.0,0.0,0.0,0.0,0.0,0.0,-0.0024,-0.0048,0.0,-0.0025,-0.0051,0.0,0.0,0.0,0.0,0.0,0.0,0.0,0.0,0.0,0.0,0.0,0.0,0.0028,0.0477,0.1009,0.1234,0.1542,0.1711,0.1434,0.164,0.1817,0.1507,0.1735,0.2003,0.2007,0.2008,0.2008,0.2008,0.2008,0.2008,0.2008,0.2008,0.2008,0.2008,0.2008,0.2008,0.2008,0.2008,0.2008,0.2008,0.2008,0.2008,0.2008,0.2008,0.201,0.2017,0.201,0.2039,0.2106,0.2101,0.2294,0.2694,0.3027,0.3363,0.3667,0.3363,0.2995,0.0,0.0,0.0,0.0,0.0936,0.0,0.0224,0.0211,0.022,-0.019,-0.0264,-0.0313,-0.0491,-0.0663,-0.0824,-0.094,-0.1012,-0.1076,-0.1189,-0.1213,-0.1164,-0.0992,-0.0841,-0.0746,-0.0731,-0.0393,-0.0252,-0.0464,-0.021,-0.0269,-0.0757,-0.0321,-0.0135,-0.0294,-0.0098,0.0,0.0,0.0,0.0,0.0,0.0,0.0,0.0,0.0,0.0,0.0,0.0,0.0,0.0,0.0,-0.0119,-0.0293,-0.0075,-0.0126,-0.0303,-0.0076,0.0,0.0,0.0,0.0,0.0,0.0,0.0,0.0,0.0,0.0,0.0056,0.0252,0.0757,0.1234,0.129,0.1542,0.1773,0.1711,0.1754,0.1803,0.1815,0.1867,0.1947,0.2003,0.2008,0.2008,0.2008,0.2008,0.2008,0.2008,0.2008,0.2008,0.2008,0.2008,0.2008,0.2008,0.2008,0.2008,0.2008,0.2008,0.2008,0.2008,0.2008,0.2029,0.2077,0.2084,0.2114,0.2169,0.2177,0.2351,0.2694,0.3027,0.3095,0.2929,0.3095,0.2859,0.0,0.0,0.0,0.1378,0.1176,0.0,0.0,0.0354,0.0262,-0.0036,-0.0095,-0.016,-0.0363,-0.0451,-0.0574,-0.0814,-0.0874,-0.094,-0.1078,-0.113,-0.1146,-0.1095,-0.0897,-0.0757,-0.0757,-0.0388,-0.0144,-0.0155,-0.0209,-0.0302,-0.0437,-0.0168,0.0,0.0,0.0098,0.0196,0.0294,0.0294,0.0294,0.0295,0.0206,0.0147,0.0148,0.0044,0.0,0.0,0.0,0.0,0.0,-0.0141,-0.0289,-0.0373,-0.0099,-0.0174,-0.0378,-0.01,0.0,0.0,0.0,0.0,0.0,0.0,0.0,0.0,0.0,0.0084,0.0252,0.0561,0.0953,0.1346,0.1514,0.1683,0.1771,0.1587,0.1686,0.1758,0.1627,0.1746,0.1921,0.1947,0.1954,0.1971,0.2002,0.2008,0.2008,0.2008,0.2008,0.2008,0.2008,0.2008,0.2008,0.2008,0.2008,0.2008,0.2008,0.2008,0.2008,0.2008,0.199,0.2011,0.204,0.2071,0.2141,0.2188,0.2188,0.2289,0.2458,0.2794,0.2961,0.2961,0.3128,0.2928,0.0,0.0,0.0,0.0,0.0,0.1091,0.0,0.0,0.0,0.0093,0.0036,0.0,0.0,0.0,0.0,-0.0672,0.0,0.0,0.0,-0.0923,0.0,-0.1092,-0.0986,-0.0872,-0.0772,-0.0483,-0.0228,-0.007,-0.0309,-0.0346,-0.0072,0.0019,0.0132,0.0303,0.0291,0.0373,0.055,0.051,0.051,0.053,0.0369,0.0293,0.0295,0.0132,0.0045,0.0,0.0,0.0,-0.0024,-0.024,-0.0342,-0.0377,-0.017,-0.022,-0.0378,-0.0099,0.0,0.0,0.0,0.0,0.0,0.0,0.0,0.0,0.0056,0.028,0.0561,0.0897,0.1177,0.1458,0.1739,0.1795,0.1739,0.1458,0.1615,0.1712,0.1469,0.1651,0.1892,0.1895,0.1907,0.1909,0.1997,0.2008,0.2008,0.2008,0.2008,0.2008,0.2008,0.2008,0.2008,0.2008,0.2008,0.2008,0.2008,0.2008,0.2008,0.2008,0.2003,0.2021,0.2026,0.2086,0.2129,0.2188,0.2188,0.2188,0.2188,0.2458,0.276,0.3095,0.3095,0.2961,0.0,0.0,0.0,0.0,0.1479,0.1397,0.0823,0.0,0.0639,0.026,0.0,0.0,0.0,0.0,0.0,0.0,0.0,0.0,-0.0438,-0.0475,-0.0546,-0.0735,-0.0842,-0.0743,-0.0314,-0.0297,-0.0297,-0.0269,-0.0299,-0.03,-0.0263,0.0072,0.0277,0.0303,0.0291,0.0314,0.0334,0.0157,0.0157,0.0334,0.0302,0.031,0.0295,0.0281,0.0177,0.0,0.0,0.0,0.0,-0.0024,-0.0195,-0.0403,-0.037,-0.0372,-0.0378,-0.0099,0.0,0.0,0.0,0.0,0.0,0.0,0.0,0.0056,0.028,0.0589,0.0897,0.1177,0.1486,0.1739,0.1795,0.1795,0.1795,0.1739,0.1769,0.1778,0.1744,0.1785,0.1826,0.1878,0.1898,0.1924,0.1999,0.2008,0.2008,0.2008,0.2008,0.2008,0.2008,0.2008,0.2008,0.2008,0.2008,0.2008,0.2008,0.2008,0.2008,0.2008,0.2003,0.2031,0.209,0.215,0.2185,0.2188,0.2188,0.2188,0.2188,0.2222,0.2424,0.2761,0.2761,0.2727,0.0,0.0,0.0,0.0,0.0,0.0,0.1154,0.0891,0.0712,0.0624,0.0,0.0,0.0,0.0,0.0,0.0,-0.007,-0.0095,0.0,0.0,-0.0447,-0.0565,0.0,0.0,-0.0113,-0.0253,-0.0332,-0.0246,-0.0307,-0.0291,-0.0133,0.0035,0.0289,0.0629,0.0423,0.0412,0.0648,0.0452,0.0393,0.0471,0.0347,0.0292,0.0295,0.0175,0.009,0.0,0.0,0.0,0.0,-0.0168,-0.0195,-0.0201,-0.0513,-0.0541,-0.0377,-0.0268,-0.0124,0.0026,0.0179,0.0233,0.0237,0.0244,0.0138,0.0056,0.0308,0.0645,0.0953,0.1234,0.1542,0.1795,0.1795,0.1795,0.1795,0.1795,0.1795,0.1804,0.1805,0.1798,0.1818,0.1831,0.1839,0.1851,0.1868,0.196,0.2008,0.2008,0.2008,0.2008,0.2008,0.2008,0.2008,0.2008,0.2008,0.2008,0.2008,0.2008,0.2015,0.2,0.2045,0.2077,0.209,0.2165,0.2188,0.2188,0.2188,0.2188,0.2188,0.2188,0.2357,0.2694,0.2492,0.2424,0.3092,0.2859,0.2644,0.2296,0.205,0.1808,0.1414,0.1131,0.0931,0.0854,0.0723,0.0,0.0,0.0,0.0,0.0,0.0,0.0067,0.0,-0.0247,0.0,0.0,-0.0442,0.0,0.0,-0.0272,-0.0331,-0.0157,-0.0308,-0.0263,0.0064,0.0135,0.0388,0.0892,0.057,0.0527,0.0805,0.0569,0.0473,0.0516,0.0369,0.0294,0.0298,0.0154,0.0045,0.0,0.0,0.0,-0.0024,-0.0217,-0.0221,-0.0151,-0.0609,-0.0636,-0.0399,-0.0314,-0.017,0.005,0.0403,0.0513,0.0525,0.0539,0.0414,0.0308,0.0561,0.0813,0.1065,0.1346,0.1598,0.1795,0.1795,0.1795,0.1767,0.1683,0.1739,0.1773,0.1681,0.1726,0.1795,0.1795,0.1711,0.1683,0.1795,0.1868,0.1968,0.2003,0.2008,0.2008,0.2008,0.2008,0.2008,0.2008,0.2008,0.2008,0.2008,0.2008,0.2055,0.2155,0.2113,0.2146,0.2254,0.221,0.2188,0.2188,0.2188,0.2188,0.2188,0.2188,0.2323,0.2559,0.2323,0.2256,0.3284,0.3138,0.2944,0.2346,0.2194,0.2051,0.1514,0.149,0.1405,0.0824,0.0801,0.0,0.0,0.0,0.0,0.0,0.0,0.0,0.0,0.0,0.0,-0.0455,-0.0437,0.0,0.0,-0.0361,-0.0296,0.0,-0.0248,-0.0199,0.0272,0.0482,0.0674,0.0891,0.0692,0.0594,0.0609,0.0216,0.0119,0.0305,0.0305,0.0292,0.0304,0.0283,0.0176,0.0,0.0,0.0,0.0,0.0,-0.0149,-0.0403,-0.0692,-0.0638,-0.0368,-0.012,0.0,0.0074,0.0602,0.0828,0.088,0.0881,0.0874,0.0925,0.1177,0.129,0.1346,0.1683,0.1795,0.1795,0.1795,0.1795,0.1711,0.1402,0.157,0.1711,0.1375,0.1571,0.1795,0.1795,0.1486,0.1346,0.1739,0.1798,0.184,0.199,0.2008,0.2008,0.2008,0.2008,0.2008,0.2008,0.2008,0.2008,0.2008,0.2008,0.2158,0.2542,0.2288,0.2288,0.2657,0.2357,0.2188,0.2188,0.2188,0.2188,0.2188,0.2188,0.2222,0.2222,0.2188,0.239,0.3413,0.3289,0.3132,0.3021,0.2733,0.2375,0.2071,0.1893,0.173,0.1483,0.1363,0.1234,0.0,0.0,0.0,0.0,0.0,0.0,0.0,0.0,-0.0019,-0.015,-0.0147,-0.0122,0.0,0.0,0.0,0.0,-0.0092,0.0,0.0287,0.0455,0.0685,0.1029,0.0629,0.0536,0.0805,0.0275,0.0099,0.0305,0.0351,0.0359,0.037,0.0375,0.0337,0.0252,0.0069,0.0,0.0,0.0,-0.005,-0.0151,-0.0439,-0.0361,-0.0169,-0.0436,-0.0293,0.0074,0.0602,0.0957,0.1172,0.1172,0.1037,0.0953,0.1206,0.129,0.1374,0.1711,0.1795,0.1795,0.1795,0.1795,0.1762,0.1659,0.1557,0.143,0.1318,0.1402,0.1407,0.1252,0.1426,0.1484,0.1088,0.1232,0.1546,0.1932,0.2008,0.2008,0.2008,0.2008,0.2008,0.2008,0.2008,0.2008,0.2008,0.2044,0.2139,0.2256,0.2211,0.2202,0.2291,0.2244,0.2188,0.2188,0.2188,0.2188,0.2188,0.2188,0.2188,0.2188,0.2188,0.2256,0.3649,0.3537,0.3406,0.3375,0.308,0.2737,0.2435,0.2273,0.2128,0.1911,0.1753,0.162,0.0,0.0,0.0,0.0,0.0,0.0,0.0,0.0284,0.0,0.0047,-0.0032,-0.0011,0.0,0.0,0.0,0.0,0.0,0.0,0.0,0.0541,0.0763,0.1118,0.0722,0.0632,0.0903,0.0475,0.0322,0.0433,0.0481,0.0513,0.0506,0.0423,0.0408,0.0393,0.021,0.0095,0.0,0.0099,0.0025,-0.0151,-0.0342,-0.0288,-0.0167,-0.0435,-0.0172,0.0323,0.0578,0.0879,0.1172,0.1278,0.1173,0.1093,0.1402,0.1486,0.1514,0.1739,0.1795,0.1793,0.181,0.1787,0.1757,0.1663,0.1462,0.1288,0.1169,0.1228,0.1212,0.0946,0.1207,0.1355,0.096,0.1025,0.1338,0.1906,0.2008,0.2008,0.2008,0.2008,0.2008,0.2008,0.2008,0.2008,0.2008,0.2062,0.2161,0.2257,0.2221,0.2246,0.2326,0.2245,0.2188,0.2188,0.2188,0.2188,0.2188,0.2188,0.2188,0.2188,0.2188,0.2188]},{"header":{"parameterUnit":"m.s-1","parameterCategory":1,"la1":30.6,"la2":29.2853,"lo1":-89.7004,"lo2":-87.6739,"dy":0.0162,"dx":0.0183,"nx":112,"ny":82,"refTime":"2024-04-20T00:00:00:Z","depth":0,"parameterNumber":3,"parameterNumberName":"V-component_of_WINDS"},"data":[0.0,0.0,0.0,0.0,0.0,0.0,0.0,0.0,0.0,0.0,0.0,0.0,0.0,0.0,0.0,0.0,0.0,0.0,0.0,0.0,0.0,0.0,0.0,0.0,0.0,0.0,0.0,0.0,0.0,0.0,0.0,0.0,0.0,0.0,0.0,0.0,0.0,0.0,0.0,0.0,0.0,0.0,0.0,0.0,0.0,0.0,0.0,0.0,0.0,0.0,0.0,0.0,0.0,0.0,0.0,0.0,0.0,0.0,0.0,0.0,0.0,0.0,0.0,0.0,0.0,0.0,0.0,0.0,0.0,0.0,0.0,0.0,0.0,0.0,0.0,0.0,0.0,0.0,0.0,0.0,0.0,0.0,0.0,0.0,0.0,0.0,0.0,0.0,0.0,0.0,2.3177,2.6315,2.9854,3.2057,3.2205,3.1917,2.9821,2.5377,0.0,0.0,0.0,0.0,0.0,0.0,0.0,0.0,0.0,0.0,0.0,0.0,0.0,0.0,0.0,0.0,0.0,0.0,0.0,0.0,0.0,0.0,0.0,0.0,0.0,0.0,0.0,0.0,0.0,0.0,0.0,0.0,0.0,0.0,0.0,0.0,0.0,0.0,0.0,0.0,0.0,0.0,0.0,0.0,0.0,0.0,0.0,0.0,0.0,0.0,0.0,0.0,0.0,0.0,0.0,0.0,0.0,0.0,0.0,0.0,0.0,0.0,0.0,0.0,0.0,0.0,0.0,0.0,0.0,0.0,0.0,0.0,0.0,0.0,0.0,0.0,0.0,0.0,0.0,0.0,0.0,0.0,0.0,0.0,0.0,0.0,0.0,0.0,0.0,0.0,0.0,0.0,0.0,0.0,0.0,0.0,0.0,0.0,0.0,0.0,0.0,0.0,0.0,0.0,2.2669,2.8533,3.0858,3.2331,3.3114,3.127,2.8891,2.6175,0.0,0.0,0.0,0.0,0.0,0.0,0.0,0.0,0.0,0.0,0.0,0.0,0.0,0.0,0.0,0.0,0.0,0.0,0.0,0.0,0.0,0.0,0.0,0.0,0.0,0.0,0.0,0.0,0.0,0.0,0.0,0.0,0.0,0.0,0.0,0.0,0.0,0.0,0.0,0.0,0.0,0.0,0.0,0.0,0.0,0.0,0.0,0.0,0.0,0.0,0.0,0.0,0.0,0.0,0.0,0.0,0.0,0.0,0.0,0.0,0.0,0.0,0.0,0.0,0.0,0.0,0.0,0.0,0.0,0.0,0.0,0.0,0.0,0.0,0.0,0.0,0.0,0.0,0.0,0.0,0.0,0.0,0.0,0.0,0.0,0.0,0.0,0.0,0.0,0.0,0.0,0.0,0.0,0.0,0.0,0.0,0.0,0.0,0.0,0.0,0.0,0.0,0.0,2.2303,2.5302,2.9959,3.1517,3.2545,3.3379,3.1644,2.9305,2.6483,2.3601,0.0,0.0,0.0,0.0,0.0,0.0,0.0,0.0,0.0,0.0,0.0,0.0,0.0,0.0,0.0,0.0,0.0,0.0,0.0,0.0,0.0,0.0,0.0,0.0,0.0,0.0,0.0,0.0,0.0,0.0,0.0,0.0,0.0,0.0,0.0,0.0,0.0,0.0,0.0,0.0,0.0,0.0,0.0,0.0,0.0,0.0,0.0,0.0,0.0,0.0,0.0,0.0,0.0,0.0,0.0,0.0,0.0,0.0,0.0,0.0,0.0,0.0,0.0,0.0,0.0,0.0,0.0,0.0,0.0,0.0,0.0,0.0,0.0,0.0,0.0,0.0,0.0,0.0,0.0,0.0,0.0,0.0,0.0,0.0,0.0,0.0,0.0,0.0,0.0,0.0,0.0,0.0,0.0,0.0,0.0,0.0,0.0,0.0,0.0,0.0,0.0,0.0,2.5337,2.7838,3.0815,3.1881,3.2714,3.3465,3.1742,2.943,2.6578,2.2613,0.0,0.0,0.0,0.0,0.0,0.0,0.0,0.0,0.0,0.0,0.0,0.0,0.0,0.0,0.0,0.0,0.0,0.0,0.0,0.0,0.0,0.0,0.0,0.0,0.0,0.0,0.0,0.0,0.0,0.0,0.0,0.0,0.0,0.0,0.0,0.0,0.0,0.0,0.0,0.0,0.0,0.0,0.0,0.0,0.0,0.0,0.0,0.0,0.0,0.0,0.0,0.0,0.0,0.0,0.0,0.0,0.0,0.0,0.0,0.0,0.0,0.0,0.0,0.0,0.0,0.0,0.0,0.0,0.0,0.0,0.0,0.0,0.0,0.0,0.0,0.0,0.0,0.0,0.0,0.0,0.0,0.0,0.0,0.0,0.0,0.0,0.0,0.0,0.0,0.0,0.0,0.0,0.0,0.0,0.0,0.0,0.0,0.0,0.0,0.0,0.0,0.0,2.5215,2.8529,3.0937,3.1928,3.2712,3.3525,3.0748,2.8238,2.6505,2.0576,0.0,0.0,0.0,0.0,0.0,0.0,0.0,0.0,0.0,0.0,0.0,0.0,0.0,0.0,0.0,0.0,0.0,0.0,0.0,0.0,0.0,0.0,0.0,0.0,0.0,0.0,0.0,0.0,0.0,0.0,0.0,0.0,0.0,0.0,0.0,0.0,0.0,0.0,0.0,0.0,0.0,0.0,0.0,0.0,0.0,0.0,0.0,0.0,0.0,0.0,0.0,0.0,0.0,0.0,0.0,0.0,0.0,0.0,0.0,0.0,0.0,0.0,0.0,0.0,0.0,0.0,0.0,0.0,0.0,0.0,0.0,0.0,0.0,0.0,0.0,0.0,0.0,0.0,0.0,0.0,0.0,0.0,0.0,0.0,0.0,0.0,0.0,0.0,0.0,0.0,0.0,0.0,0.0,0.0,0.0,0.0,0.0,0.0,0.0,0.0,0.0,0.0,2.558,2.866,0.0,3.2015,3.2827,3.3602,3.1667,2.9313,2.6695,0.0,0.0,0.0,0.0,0.0,0.0,0.0,0.0,0.0,0.0,0.0,0.0,0.0,0.0,0.0,0.0,0.0,0.0,0.0,0.0,0.0,0.0,0.0,0.0,0.0,0.0,0.0,0.0,0.0,0.0,0.0,0.0,0.0,0.0,0.0,0.0,0.0,0.0,0.0,0.0,0.0,0.0,0.0,0.0,0.0,0.0,0.0,0.0,0.0,0.0,0.0,0.0,0.0,0.0,0.0,0.0,0.0,0.0,0.0,0.0,0.0,0.0,0.0,0.0,0.0,0.0,0.0,0.0,0.0,0.0,0.0,0.0,0.0,0.0,0.0,0.0,0.0,0.0,0.0,0.0,0.0,0.0,0.0,0.0,0.0,0.0,0.0,0.0,0.0,0.0,0.0,0.0,0.0,0.0,0.0,0.0,0.0,0.0,0.0,0.0,0.0,0.0,2.2632,2.6312,2.9331,0.0,3.2427,3.3188,3.3418,3.1789,2.9452,2.6439,0.0,0.0,0.0,0.0,0.0,0.0,0.0,0.0,0.0,0.0,0.0,0.0,0.0,0.0,0.0,0.0,0.0,0.0,0.0,0.0,0.0,0.0,0.0,0.0,0.0,0.0,0.0,0.0,0.0,0.0,0.0,0.0,0.0,0.0,0.0,0.0,0.0,0.0,0.0,0.0,0.0,0.0,0.0,0.0,0.0,0.0,0.0,0.0,0.0,0.0,0.0,0.0,0.0,0.0,0.0,0.0,0.0,0.0,0.0,0.0,0.0,0.0,0.0,0.0,0.0,0.0,0.0,0.0,0.0,0.0,0.0,0.0,0.0,0.0,0.0,0.0,0.0,0.0,0.0,0.0,0.0,0.0,0.0,0.0,0.0,0.0,0.0,0.0,0.0,0.0,0.0,0.0,0.0,0.0,0.0,0.0,0.0,0.0,0.0,0.0,0.0,0.0,2.2992,2.7423,3.0751,3.1617,3.3136,3.379,3.2975,3.0713,2.8227,0.0,0.0,0.0,0.0,0.0,0.0,0.0,0.0,0.0,0.0,0.0,0.0,0.0,0.0,0.0,0.0,0.0,0.0,0.0,0.0,0.0,0.0,0.0,0.0,0.0,0.0,0.0,0.0,0.0,0.0,0.0,0.0,0.0,0.0,0.0,0.0,0.0,0.0,0.0,0.0,0.0,0.0,0.0,0.0,0.0,0.0,0.0,0.0,0.0,0.0,0.0,0.0,0.0,0.0,0.0,0.0,0.0,0.0,0.0,0.0,0.0,0.0,0.0,0.0,0.0,0.0,0.0,0.0,0.0,0.0,0.0,0.0,0.0,0.0,0.0,0.0,0.0,0.0,0.0,0.0,0.0,0.0,0.0,0.0,0.0,0.0,0.0,0.0,0.0,0.0,0.0,0.0,0.0,0.0,0.0,0.0,0.0,0.0,0.0,0.0,0.0,0.0,0.0,2.3681,2.8334,3.1489,3.1741,3.3166,3.4031,3.3833,3.2078,2.9461,2.5875,0.0,0.0,0.0,0.0,0.0,0.0,0.0,0.0,0.0,0.0,0.0,0.0,0.0,0.0,0.0,0.0,0.0,0.0,0.0,0.0,0.0,0.0,0.0,0.0,0.0,0.0,0.0,0.0,0.0,0.0,0.0,0.0,0.0,0.0,0.0,0.0,0.0,0.0,0.0,0.0,0.0,0.0,0.0,0.0,0.0,0.0,0.0,0.0,0.0,0.0,0.0,0.0,0.0,0.0,0.0,0.0,0.0,0.0,0.0,0.0,0.0,0.0,0.0,0.0,0.0,0.0,0.0,0.0,0.0,0.0,0.0,0.0,0.0,0.0,0.0,0.0,0.0,0.0,0.0,0.0,0.0,0.0,0.0,0.0,0.0,0.0,0.0,0.0,0.0,0.0,0.0,0.0,0.0,0.0,0.0,0.0,0.0,0.0,0.0,0.0,0.0,0.0,2.4058,2.8508,3.1482,3.1836,3.3278,3.4103,3.381,3.2846,3.0519,2.6465,0.0,0.0,0.0,0.0,0.0,0.0,0.0,0.0,0.0,0.0,0.0,0.0,0.0,0.0,0.0,0.0,0.0,0.0,0.0,0.0,0.0,0.0,0.0,0.0,0.0,0.0,0.0,0.0,0.0,0.0,0.0,0.0,0.0,0.0,0.0,0.0,0.0,0.0,0.0,0.0,0.0,0.0,0.0,0.0,0.0,0.0,0.0,0.0,0.0,0.0,0.0,0.0,0.0,0.0,0.0,0.0,0.0,0.0,0.0,0.0,0.0,0.0,0.0,0.0,0.0,0.0,0.0,0.0,0.0,0.0,0.0,0.0,0.0,0.0,0.0,0.0,0.0,0.0,0.0,0.0,0.0,0.0,0.0,0.0,0.0,0.0,0.0,0.0,0.0,0.0,0.0,0.0,0.0,0.0,0.0,0.0,0.0,0.0,0.0,0.0,0.0,0.0,2.4316,2.8292,3.1165,3.2043,3.35,3.4123,3.3386,3.32,3.14,2.7373,0.0,0.0,0.0,0.0,0.0,0.0,0.0,0.0,0.0,0.0,0.0,0.0,0.0,0.0,0.0,0.0,0.0,0.0,0.0,0.0,0.0,0.0,0.0,0.0,0.0,0.0,0.0,0.0,0.0,0.0,0.0,0.0,0.0,0.0,0.0,0.0,0.0,0.0,0.0,0.0,0.0,0.0,0.0,0.0,0.0,0.0,0.0,0.0,0.0,0.0,0.0,0.0,0.0,0.0,0.0,0.0,0.0,0.0,0.0,0.0,1.6648,0.0,0.0,0.0,0.0,0.0,0.0,0.0,0.0,0.0,0.0,0.0,0.0,0.0,0.0,0.0,0.0,0.0,0.0,0.0,0.0,0.0,0.0,0.0,0.0,0.0,0.0,0.0,0.0,0.0,0.0,0.0,0.0,0.0,0.0,0.0,0.0,0.0,0.0,0.0,0.0,0.0,2.5274,2.9265,3.2144,3.3002,3.3925,3.4426,3.4306,3.3666,3.1772,2.8315,2.5764,0.0,0.0,0.0,0.0,0.0,0.0,0.0,0.0,0.0,0.0,0.0,0.0,0.0,0.0,0.0,0.0,0.0,0.0,0.0,0.0,0.0,0.0,0.0,0.0,0.0,0.0,0.0,0.0,0.0,0.0,0.0,0.0,0.0,0.0,0.0,0.0,0.0,0.0,0.0,0.0,0.0,0.0,0.0,0.0,0.0,0.0,0.0,0.0,0.0,0.0,0.0,0.0,0.0,0.0,0.0,0.0,0.0,0.0,0.0,0.0,1.8613,0.0,0.0,0.0,0.0,0.0,0.0,0.0,0.0,0.0,0.0,0.0,0.0,0.0,0.0,0.0,0.0,0.0,0.0,0.0,0.0,0.0,0.0,0.0,0.0,0.0,0.0,0.0,0.0,0.0,0.0,0.0,0.0,0.0,0.0,0.0,0.0,0.0,0.0,0.0,0.0,2.615,2.9553,3.2099,3.3329,3.4103,3.4556,3.4607,3.4126,3.262,2.973,2.7589,0.0,0.0,0.0,0.0,0.0,0.0,0.0,0.0,0.0,0.0,0.0,0.0,0.0,0.0,0.0,0.0,0.0,0.0,0.0,0.0,0.0,0.0,0.0,0.0,0.0,0.0,0.0,0.0,0.0,0.0,0.0,0.0,0.0,0.0,0.0,0.0,0.0,0.0,0.0,0.0,0.0,0.0,0.0,0.0,0.0,0.0,0.0,0.0,0.0,0.0,0.0,0.0,0.0,2.7968,2.8687,2.8923,2.997,3.0377,2.9965,2.4963,2.349,2.4367,2.0774,0.0,0.0,0.0,0.0,0.0,0.0,0.0,0.0,0.0,0.0,0.0,0.0,0.0,0.0,0.0,0.0,0.0,0.0,0.0,0.0,0.0,0.0,0.0,0.0,2.7058,2.7112,2.3554,0.0,0.0,0.0,0.0,0.0,0.0,0.0,0.0,0.0,0.0,0.0,2.7005,2.9754,3.193,3.355,3.4262,3.4631,3.4631,3.4534,3.3559,3.1413,2.9706,2.7141,0.0,0.0,0.0,0.0,0.0,0.0,0.0,0.0,0.0,0.0,0.0,0.0,0.0,0.0,0.0,0.0,0.0,0.0,0.0,0.0,0.0,0.0,0.0,0.0,0.0,0.0,0.0,0.0,0.0,0.0,0.0,0.0,1.2698,1.3929,0.0,0.0,0.0,0.0,0.0,0.0,0.0,0.0,0.0,0.0,0.0,0.0,0.0,2.5733,2.7349,3.0361,3.1584,3.1029,3.416,3.4514,3.2478,3.4177,3.4893,3.4717,3.2496,0.0,2.6237,2.4415,0.0,0.0,0.0,0.0,0.0,0.0,0.0,0.0,0.0,0.0,0.0,0.0,0.0,0.0,0.0,0.0,0.0,0.0,0.0,0.0,0.0,0.0,3.0368,3.0369,3.0587,3.0622,0.0,2.5825,2.1851,2.0871,1.9473,0.0,0.0,0.0,0.0,0.0,0.0,0.0,2.7998,3.0641,3.2858,3.4457,3.473,3.4763,3.4763,3.4764,3.4281,3.3207,3.1563,2.9752,2.7744,2.4504,0.0,0.0,0.0,0.0,0.0,0.0,0.0,0.0,0.0,0.0,0.0,0.0,0.0,0.0,0.0,0.0,0.0,0.0,0.0,0.0,0.0,0.0,0.0,0.0,0.0,0.0,0.0,0.0,0.0,1.3722,1.6559,1.6498,1.7304,1.7584,0.0,0.0,0.0,0.0,0.0,0.0,0.0,0.0,0.0,2.8297,3.0375,3.2241,3.3856,3.537,3.6146,3.6188,3.7763,3.8119,3.7473,3.8751,3.9057,3.8533,3.7879,3.5935,3.3013,2.9527,2.6916,2.4952,0.0,0.0,0.0,0.0,2.2858,2.3517,2.5755,2.6517,2.6374,2.5516,0.0,0.0,0.0,0.0,0.0,0.0,0.0,2.7554,0.0,0.0,3.2848,3.3389,3.3877,3.4102,3.3685,3.1163,2.8286,0.0,2.4193,2.2617,2.1149,0.0,0.0,0.0,0.0,2.7432,2.981,3.1916,3.3623,3.4747,3.4869,3.4854,3.4854,3.4824,3.4435,3.3557,3.2802,3.1662,3.0027,2.7183,2.4297,0.0,0.0,0.0,0.0,0.0,0.0,0.0,0.0,0.0,0.0,0.0,0.0,0.0,0.0,0.0,0.0,0.0,0.0,0.0,0.0,0.0,0.0,0.0,0.0,0.0,0.0,0.0,0.0,1.679,1.9465,1.9144,2.0757,2.1343,0.0,0.0,0.0,0.0,0.0,0.0,2.7344,2.9936,3.2297,3.4258,3.5996,3.7597,3.9032,3.9299,3.9614,4.0006,4.0297,4.0593,4.0935,4.1794,4.1832,4.1192,4.1106,4.0323,3.8803,3.4364,3.1572,2.9975,2.8504,2.7806,2.762,2.7815,2.7903,2.8328,3.102,3.1612,3.1058,3.0083,2.9531,2.8731,2.6027,0.0,0.0,0.0,0.0,3.0704,3.2363,3.3712,3.4833,3.5749,3.6426,3.6716,3.6159,3.5484,3.3987,0.0,2.8707,2.6893,2.4321,0.0,0.0,0.0,0.0,2.9767,3.1422,3.2936,3.4149,3.4897,3.4974,3.4969,3.4969,3.4926,3.4585,3.3923,3.3662,3.3011,3.1798,2.9347,2.6938,2.4628,0.0,0.0,0.0,0.0,0.0,0.0,0.0,0.0,0.0,0.0,0.0,0.0,0.0,0.0,0.0,0.0,0.0,0.0,0.0,0.0,0.0,0.0,0.0,0.0,0.0,0.0,0.0,0.0,0.0,2.1702,2.395,0.0,0.0,0.0,0.0,2.5587,2.8773,3.1021,3.1742,3.4275,3.6125,3.7066,3.8729,4.007,4.1032,4.1817,4.1836,4.1127,4.2023,4.2018,4.1203,4.2088,4.2418,4.228,4.1525,4.1179,4.0946,3.8126,3.5998,3.4398,3.3544,3.2718,3.2076,3.292,3.3204,3.3369,3.4433,3.4768,3.4881,3.5693,3.4927,3.3496,3.2565,3.1811,0.0,0.0,3.3143,3.4309,3.5917,3.645,3.6753,3.7578,3.7797,3.7816,3.7782,3.7732,3.6696,0.0,3.187,3.0411,2.7799,0.0,2.8377,2.7476,2.8935,3.0706,3.233,3.3401,3.4307,3.51,3.5187,3.5187,3.5187,3.5125,3.5042,3.4935,3.4149,3.3629,3.3483,3.1037,2.8906,2.7248,2.3921,0.0,0.0,0.0,0.0,0.0,0.0,0.0,0.0,0.0,0.0,0.0,0.0,0.0,0.0,0.0,0.0,0.0,0.0,0.0,0.0,0.0,0.0,0.0,0.0,0.0,0.0,0.0,0.0,2.685,2.8229,0.0,2.8298,2.9312,3.0271,3.0877,3.3545,3.5262,3.5501,3.8031,3.9816,4.0568,4.1778,4.2846,4.3707,4.3512,4.3553,4.3768,4.359,4.3609,4.3787,4.4146,4.4296,4.4255,4.3955,4.3852,4.3805,4.2843,4.0762,3.8187,3.7907,3.7285,3.6587,3.6891,3.7005,3.7133,3.8082,3.8419,3.8303,3.7642,3.6319,3.4914,3.4623,3.4725,3.5014,3.5284,3.6016,3.6973,3.8115,3.8798,3.941,4.0265,4.0462,4.0473,4.0473,4.0026,3.9119,3.7336,3.5363,3.3554,3.2101,3.1619,3.1168,3.0307,3.162,3.2892,3.3421,3.4254,3.4877,3.5166,3.5153,3.514,3.52,3.5143,3.5102,3.5134,3.481,3.4585,3.4567,3.2653,3.1067,2.9923,2.7178,2.3579,0.0,0.0,0.0,0.0,0.0,0.0,0.0,0.0,0.0,0.0,0.0,0.0,0.0,0.0,0.0,0.0,0.0,0.0,0.0,0.0,0.0,0.0,0.0,0.0,0.0,0.0,2.8845,3.007,3.1454,3.2326,3.2358,3.3667,3.4628,3.496,3.7067,3.8327,3.8312,4.0289,4.1771,4.2507,4.3441,4.4338,4.5237,4.4721,4.4761,4.5295,4.4776,4.4815,4.5295,4.537,4.5385,4.5365,4.5365,4.5365,4.5365,4.5365,4.4024,4.1915,4.1551,4.0911,4.022,4.0239,4.0247,4.0337,4.1001,4.1059,4.0639,3.96,3.8357,3.725,3.725,3.7656,3.818,3.8463,3.8765,3.9242,4.0404,4.0919,4.1256,4.1793,4.193,4.1861,4.1537,4.1001,4.0436,3.9849,3.8099,3.6355,3.5208,3.4773,3.4286,3.343,3.4478,3.5273,3.4959,3.5389,3.5714,3.5714,3.5394,3.5339,3.5651,3.5111,3.4774,3.4782,3.4219,3.387,3.3854,3.2515,3.1524,3.0948,2.8487,2.53,2.1407,0.0,0.0,0.0,0.0,0.0,0.0,0.0,0.0,0.0,0.0,0.0,0.0,0.0,0.0,0.0,0.0,0.0,0.0,0.0,0.0,0.0,0.0,0.0,2.6279,2.7688,2.9481,3.1233,3.3557,3.4442,3.2921,3.6453,3.8504,3.7666,3.9247,4.0229,4.0148,4.1098,4.2006,4.2857,4.3699,4.4595,4.5561,4.5496,4.5496,4.5585,4.5635,4.5611,4.5547,4.5635,4.563,4.5547,4.5547,4.5566,4.5585,4.5566,4.5593,4.5581,4.4485,4.3564,4.2895,4.2961,4.2997,4.3015,4.3139,4.2606,4.1882,4.1882,4.1394,4.0777,4.0777,4.0781,4.0961,4.1809,4.1432,4.1164,4.2854,4.274,4.2166,4.2099,4.2105,4.1863,4.0933,4.0733,4.0714,4.0695,3.9985,3.8829,3.703,3.7507,3.7809,3.6834,3.7379,0.0,3.6841,3.6741,3.6741,3.6745,3.5969,3.5759,3.6535,3.5093,3.4093,3.3964,3.2449,3.1509,3.1408,3.0629,3.0192,3.0195,2.7769,2.5691,2.4075,0.0,0.0,0.0,0.0,0.0,0.0,0.0,0.0,0.0,0.0,0.0,0.0,0.0,0.0,0.0,0.0,0.0,0.0,0.0,0.0,0.0,2.8288,3.0681,2.9129,3.1981,3.4899,3.6654,3.7464,3.8206,3.9026,3.9575,3.9836,3.9684,4.0628,4.1228,4.1255,4.3256,4.4503,4.4742,4.6261,4.7191,4.7458,4.6859,4.6896,4.7525,4.6901,4.6608,4.6619,4.7268,4.721,4.66,4.66,4.6947,4.7486,4.685,4.6974,4.7398,4.5799,4.5019,4.4836,4.4859,4.4882,4.4938,4.5028,4.4488,4.3778,4.381,4.3291,4.2654,4.2654,4.2653,4.2707,4.2943,4.284,4.2777,4.3256,4.364,4.3905,4.3882,4.4379,4.4573,4.3686,4.355,4.3369,4.2692,4.1883,4.0945,3.9706,3.9203,3.8876,3.8599,3.8215,0.0,3.7744,3.7663,3.7668,3.7709,3.6895,3.6459,3.6713,3.5699,3.4519,3.3284,3.2761,3.2223,3.1574,3.0727,3.0276,3.0276,2.7832,2.6355,0.0,0.0,0.0,0.0,0.0,0.0,0.0,0.0,0.0,0.0,0.0,0.0,0.0,0.0,0.0,0.0,0.0,0.0,0.0,0.0,0.0,0.0,3.1817,3.4343,3.3001,3.5226,3.7619,3.9388,3.9616,4.0038,4.1042,4.1049,4.0989,4.1035,4.1816,4.2282,4.2329,4.4089,4.5244,4.5607,4.6966,4.7705,4.774,4.7279,4.7121,4.7256,4.6769,4.6521,4.6511,4.7047,4.7225,4.7074,4.7074,4.7364,4.7809,4.7287,4.7376,0.0,0.0,0.0,0.0,0.0,4.6294,4.6273,4.5965,4.5291,4.4595,4.4634,4.4088,4.3399,4.3399,4.3394,4.3485,4.3887,4.3693,4.3566,4.4331,4.461,4.467,4.4672,4.504,4.5159,4.4291,4.4129,4.3983,4.3448,4.2949,0.0,4.1399,4.0488,3.9874,3.9842,3.9406,3.8985,3.8675,3.8612,3.8595,3.864,3.7845,3.7471,3.7864,3.6414,0.0,0.0,0.0,3.2057,3.1188,3.0646,0.0,0.0,0.0,2.8961,2.9328,2.7875,0.0,0.0,2.4549,2.4609,0.0,0.0,0.0,0.0,0.0,0.0,0.0,0.0,0.0,0.0,0.0,0.0,0.0,0.0,0.0,0.0,3.4947,3.7909,3.7496,3.7997,3.8955,4.0396,4.0702,4.0804,4.0827,4.158,4.2049,4.1986,4.2843,4.3364,4.3361,0.0,0.0,0.0,0.0,4.7395,4.7546,4.7366,4.6925,4.6242,4.6126,4.6022,4.5966,4.6125,4.6577,4.7204,4.7204,4.7259,4.7333,4.7243,4.732,4.755,4.8114,4.8272,4.8121,4.7558,4.7291,4.71,4.6447,0.0,0.0,4.497,4.4411,4.3698,4.3698,4.3701,4.3881,4.4715,4.4355,4.4078,4.5675,4.5509,4.4945,4.4945,4.4885,4.4627,4.3871,4.369,4.369,4.369,4.3573,4.3223,4.2522,4.1454,4.0674,4.0628,4.0535,4.0246,3.9638,3.9557,3.9547,3.9567,0.0,0.0,3.9328,3.707,3.5237,3.4366,3.2728,3.1455,3.0683,3.0735,3.1141,3.1912,3.194,3.2323,3.31,3.3108,3.2814,3.2145,2.8197,2.7896,0.0,0.0,0.0,0.0,0.0,0.0,0.0,0.0,0.0,0.0,0.0,0.0,0.0,0.0,0.0,3.5116,3.7455,3.9657,4.1662,4.2118,4.209,4.1658,4.2243,4.2707,4.2758,4.2963,4.3105,4.3089,4.3853,4.4331,4.4339,4.5814,4.7047,4.7863,4.8782,4.9593,5.0314,4.8922,4.8493,4.9,0.0,0.0,4.7029,4.7755,4.7783,4.7274,4.7274,4.7643,4.8199,4.7552,4.8084,4.9234,4.8684,4.8067,4.7562,4.813,4.7886,4.7367,4.79,4.7053,4.5872,4.6634,4.6294,4.558,4.558,4.5575,0.0,4.5804,4.5719,4.5655,4.5934,4.5889,4.577,4.577,4.5767,4.5709,4.5534,4.5498,4.5498,4.5498,4.491,4.4383,4.4228,4.2259,4.0704,4.0678,4.0124,3.9902,4.0464,4.0481,4.0475,4.0525,3.9131,3.8534,3.9338,3.7063,3.5228,3.4359,3.272,3.1718,3.1563,3.2174,3.2607,3.2761,3.2827,3.2933,3.3093,3.3156,3.3799,3.4889,3.2675,3.1635,0.0,0.0,0.0,0.0,0.0,0.0,0.0,0.0,0.0,0.0,0.0,2.9063,3.1715,0.0,3.5956,3.7803,3.9848,4.1682,4.306,4.3673,4.3811,4.3307,4.3644,4.3753,4.34,4.4201,4.4561,4.4084,4.5641,4.6404,4.598,4.7197,4.8282,4.9113,4.9614,4.9853,4.985,4.8992,4.8321,4.7897,4.7086,4.6691,4.6717,4.715,4.7342,4.7355,4.7355,4.7833,4.8597,4.8632,4.8893,4.9245,4.9245,4.9255,4.9157,4.8319,4.7994,4.7947,4.7495,4.7062,4.6705,4.6737,4.6741,4.6663,4.6233,4.6106,4.6093,4.6102,4.6097,4.6097,4.6097,4.6081,4.6039,4.6039,4.6048,4.6041,4.5999,4.5999,4.5999,4.5999,4.5658,4.5221,4.481,4.328,4.2097,4.2068,4.133,4.0808,4.0798,4.1146,4.1076,4.0236,3.9764,3.9663,4.0072,3.8136,3.6532,3.5665,3.445,3.3561,3.3119,3.3909,3.4353,3.4353,3.4804,3.5284,3.5759,3.5754,3.6193,3.7033,3.6125,3.5493,0.0,0.0,0.0,0.0,0.0,0.0,0.0,0.0,2.7161,2.9958,3.1167,3.264,3.5638,3.746,3.8835,3.976,4.1928,4.3505,4.3553,4.4222,4.4699,4.4651,4.4643,4.4314,4.3507,4.5055,4.585,4.5262,4.7333,4.8304,4.7586,4.8225,4.8943,4.9637,4.9662,4.9334,4.8632,4.8458,4.7663,4.6292,4.6175,4.6125,4.6115,4.6113,4.6581,4.7434,4.7585,4.8055,4.8762,4.9484,4.9448,4.9019,4.9556,5.0262,5.0746,4.8682,4.8377,4.8766,4.7369,4.7116,4.7291,4.661,4.6843,4.7291,4.659,4.6493,4.661,4.661,4.6627,4.6607,4.6483,4.6391,4.6316,4.616,4.6104,4.6081,4.602,4.6012,4.6026,4.6002,4.5999,4.5808,4.515,4.4334,4.3675,4.3444,4.2665,4.1806,4.0929,4.1435,4.1266,3.9694,3.997,4.0282,4.028,3.9178,3.81,3.7238,3.6563,3.5888,3.5194,3.5826,3.6219,3.6219,3.6888,3.7623,3.838,3.8343,3.8423,3.8656,3.8606,3.8481,2.0684,2.1749,2.3238,2.5679,2.5413,2.6259,0.0,0.0,3.2602,3.6011,3.6925,3.7506,3.8735,3.9734,4.0712,4.1659,4.3344,4.4525,4.4541,4.4691,4.4781,4.4775,4.4785,4.4431,4.3578,4.5064,4.6374,4.7043,4.8081,4.8611,4.8467,4.8608,4.8725,4.8838,4.882,4.8791,4.869,4.7913,4.7474,4.7313,4.6563,4.6185,4.6195,4.6198,4.6659,4.7538,4.8247,4.864,4.879,4.8891,4.933,4.9889,4.9208,4.9459,5.0192,4.9902,4.9864,4.9923,4.9728,4.8694,4.7464,4.7386,4.7405,4.7464,4.7366,4.7875,4.85,4.85,4.8491,4.8321,4.7544,4.7309,4.7059,4.636,4.6147,4.6091,4.6089,4.609,4.6069,4.6004,4.5999,4.5988,4.5954,4.5237,4.4365,4.3535,4.2711,4.1859,4.0999,4.0974,4.0661,3.9697,3.893,3.8485,3.8482,3.9071,3.9079,3.8193,3.8064,3.7972,3.7875,3.7967,3.801,3.801,3.8101,3.8214,3.8319,3.8352,3.8786,3.9545,3.9548,3.9121,2.5344,2.6417,2.734,2.9486,3.0692,3.2043,3.4813,3.5125,3.5531,3.805,3.8693,3.9089,3.9986,4.1315,4.2401,0.0,4.4349,4.5509,4.5502,4.5144,4.4662,4.4163,4.4135,4.42,4.4306,4.5882,4.7051,4.7388,4.8705,4.9488,4.9413,4.996,5.0247,5.0215,4.9756,4.9261,4.8751,4.7883,4.7223,4.6753,4.6899,4.6957,4.6967,4.7483,4.791,4.8305,4.9147,4.9527,4.9561,4.9561,4.9766,4.9973,4.8621,4.8622,4.9346,4.8793,4.8586,4.8508,4.8002,4.7688,4.7493,4.7493,4.7843,4.8253,4.8255,4.851,4.8803,4.8803,4.8799,4.8715,4.8356,4.786,4.7361,4.7048,4.6939,4.6771,4.6219,4.6497,4.6702,4.6166,4.6066,4.6068,4.6099,4.581,4.5414,4.5024,4.4253,4.3222,4.1887,4.1681,4.1138,3.9748,3.9668,3.9699,3.9699,4.0062,3.994,3.9119,3.9066,3.8833,3.8326,3.8792,3.9056,3.9056,3.9598,3.987,3.987,3.9898,4.0094,4.0462,4.0452,4.0266,2.8395,2.9791,3.1002,3.2572,3.4576,3.6164,3.6165,3.6731,3.769,3.9262,3.9713,4.0004,4.065,4.2034,4.3171,4.3425,4.4751,4.5855,4.6093,4.5211,4.431,4.3696,4.366,4.3932,4.4514,4.6129,4.7215,4.7414,4.909,5.0086,5.0027,5.0891,5.1154,5.0636,5.0053,4.9243,4.811,4.7474,4.6967,4.6591,4.7222,4.7647,4.7926,4.8774,4.9163,4.9215,5.0081,5.0323,5.0095,5.0095,4.9965,4.9659,4.8425,4.8347,4.8818,4.8132,4.7885,4.7768,4.6891,4.7142,4.7822,4.7592,4.8273,4.9168,4.9155,4.933,4.9523,4.9523,4.9519,4.9457,4.9219,4.8687,4.8151,4.7915,4.7861,4.7671,4.6979,4.7123,4.7213,4.6584,4.6251,4.6117,4.6124,4.6126,4.6128,4.6134,4.5589,4.4573,4.2885,4.2205,4.1379,4.0109,4.0487,4.0815,4.0809,4.1048,4.0942,4.0351,4.0533,4.0289,3.944,4.0001,4.0233,4.0,4.0651,4.0994,4.0994,4.0994,4.0994,4.1015,4.1254,4.1363,2.881,3.0898,3.3705,3.4666,3.5613,3.6746,3.8491,3.8998,3.9387,4.0361,4.0721,4.0858,4.0899,4.1684,4.2606,4.3465,4.4341,4.5239,4.6077,4.4722,4.3658,4.3699,4.3702,4.3709,0.0,4.5257,4.6588,4.7427,4.9118,5.0092,5.0102,5.0934,5.0626,4.8926,4.8913,4.8116,4.6399,4.636,4.675,4.7551,4.7571,4.8039,4.8879,4.9698,5.0069,5.0108,5.0987,5.087,5.0108,5.0108,4.964,4.8937,4.8878,4.8878,4.8898,4.8878,4.8858,4.8721,4.7862,4.8092,4.8636,4.7842,4.8719,5.0062,5.0067,5.0651,5.131,5.131,5.1324,5.1138,5.0286,5.004,4.9816,4.8958,4.8756,4.8729,4.8629,4.7973,4.7388,4.7367,4.6681,4.6124,4.6183,4.6207,4.6193,4.6194,4.6176,4.5521,4.3784,4.2088,4.0995,4.0871,4.0881,4.0872,4.0809,4.1629,4.2143,4.2112,4.291,4.3011,4.2217,4.22,4.1811,4.0974,4.0994,4.0994,4.0994,4.0994,4.0994,4.1015,4.1873,4.2254,3.1808,3.3956,3.5756,3.7279,3.8351,3.9208,3.9891,4.0134,4.0136,3.991,3.9959,3.9871,3.9339,4.0437,4.1547,4.1899,4.3634,4.5075,4.5369,4.4895,4.432,4.3761,4.4211,0.0,0.0,0.0,0.0,4.7504,4.8108,4.8693,4.9262,4.9577,4.9444,4.8822,4.8298,4.7753,4.7168,4.7167,4.7304,4.7617,4.8729,4.9722,5.0579,5.0832,5.0969,5.0988,5.1267,5.1229,5.0917,5.0332,4.9941,4.9648,4.9062,4.8867,4.8905,4.8906,4.8906,4.8867,4.8553,4.8256,4.8136,4.898,4.9643,5.0205,5.0792,5.1162,5.1395,5.1391,5.1407,5.1324,5.104,5.0522,5.0022,4.9721,4.9661,4.9503,4.8908,4.8959,4.8799,4.7676,4.7239,4.6847,4.6302,4.6197,4.619,4.6197,4.571,4.4922,4.3748,4.2589,4.1624,4.1021,4.1475,4.1814,4.1807,4.2613,4.3125,4.3134,4.3393,4.3186,4.2338,4.2305,4.1884,4.1016,4.1619,4.1623,4.0993,4.1623,4.1901,4.187,4.222,4.2677,3.468,3.6293,3.7308,3.9084,4.0016,4.0492,4.0604,4.0475,4.0087,3.927,3.8903,3.8498,3.7668,3.844,3.9538,4.0473,4.232,4.3935,4.4869,4.4737,4.4448,4.4198,4.4667,4.4785,0.0,0.0,0.0,4.7125,4.7419,4.7849,4.8416,4.8729,4.8749,4.8379,4.7871,4.7596,4.7553,4.7569,4.7881,4.851,4.9901,5.0859,5.1406,5.1406,5.1406,5.1406,5.1406,5.1229,5.0897,5.0329,4.9936,4.9621,4.9057,4.9037,4.9328,4.9332,4.933,4.929,4.9004,4.8729,4.867,4.9746,5.0311,5.0676,5.1226,5.14,5.1395,5.1391,5.1407,5.1403,5.1401,5.0979,5.0558,5.056,5.056,5.0401,4.9853,4.9885,4.9728,4.8647,4.7934,4.7324,4.6755,4.6653,4.6565,4.6247,4.5993,4.5519,4.4644,4.3506,4.2679,4.2416,4.2346,4.2439,4.2739,4.3559,4.4067,4.4055,4.4355,4.4004,4.2807,4.276,4.2226,4.1067,4.1623,4.1785,4.1497,4.2103,4.2535,4.2801,4.3141,4.3595,3.7195,3.7857,3.8442,4.0135,4.0583,4.0629,4.0644,4.0047,3.9239,3.8389,3.7525,3.6662,0.0,0.0,3.6739,3.92,4.0458,4.1993,4.4563,4.4252,4.4079,0.0,0.0,0.0,0.0,0.0,0.0,4.6426,0.0,4.7576,4.7654,4.8374,4.8411,4.7629,4.759,4.7567,4.75,4.7597,4.8458,5.0119,5.0984,5.1397,5.1397,5.1398,5.1398,5.1397,5.1398,5.0929,5.0167,5.0167,4.9717,4.9033,4.9033,4.9482,5.0166,5.0167,5.0167,5.0069,4.9293,4.9491,5.0117,5.0151,5.0722,5.1401,5.1406,5.1403,5.1391,5.1391,5.1404,5.1399,5.1408,5.1396,5.1404,5.1405,5.1406,5.1399,5.1394,5.0742,5.0146,5.0108,4.873,4.7573,4.7569,4.7571,4.7275,4.6402,4.6964,4.7192,4.6318,4.4722,4.3971,4.4808,4.3428,4.2763,4.3601,4.4479,4.4974,4.4973,4.575,4.5438,4.3741,4.3664,4.2893,4.1273,4.1275,4.1671,4.2465,4.2504,4.2955,4.3776,4.4556,4.4925,3.8163,3.9225,4.0092,4.1197,4.1118,4.0599,4.0015,3.8777,3.7319,3.5876,3.442,3.3135,3.2259,0.0,0.0,3.6767,3.9293,0.0,4.375,4.4392,0.0,4.4976,0.0,4.5713,4.5067,4.5981,0.0,0.0,4.6842,4.7198,4.8509,4.7548,4.7133,4.7517,4.7536,4.7528,4.7509,4.8796,4.966,5.0117,5.098,5.1395,5.1402,5.1409,5.1408,5.1402,5.1409,5.1268,5.1079,5.1079,5.0956,5.0751,5.0751,5.0888,5.1067,5.1064,5.1079,5.1047,5.0833,5.0476,5.0209,5.0867,5.1226,5.1406,5.1406,5.1406,5.1405,5.1403,5.1401,5.14,5.1397,5.1405,5.1392,5.1397,5.1399,5.1396,5.14,5.1193,5.0816,5.0222,4.9226,4.8463,4.847,4.8471,4.8176,4.7294,4.7351,4.7185,4.632,4.5251,4.4653,4.4887,4.4505,4.4335,4.4554,4.5372,4.5861,4.5865,4.6082,4.5713,4.4617,4.4629,4.4145,4.3065,4.3666,4.3792,4.3366,4.4016,4.4452,4.4673,4.4887,4.5314,3.9238,4.0345,4.115,4.1328,4.1091,4.0332,3.8415,3.6955,3.5316,3.2875,3.1644,3.0742,2.9858,3.1531,3.3432,0.0,0.0,0.0,4.2827,4.3878,4.4715,0.0,4.6334,0.0,4.6194,4.7257,4.8146,0.0,4.7504,4.7255,4.822,4.7354,4.6858,4.693,4.693,4.7288,4.8016,4.9752,5.0636,5.0625,5.1148,5.1389,5.1352,5.1385,5.1384,5.1352,5.1385,5.1402,5.1408,5.1408,5.1403,5.1394,5.1394,5.1394,5.1396,5.1392,5.1408,5.1397,5.1401,5.108,5.0753,5.1241,5.1394,5.1404,5.1403,5.1406,5.1406,5.1405,5.1403,5.14,5.1401,5.1394,5.1403,5.1391,5.1399,5.1403,5.1403,5.1373,5.1091,5.0253,4.9711,4.9245,4.8871,4.9128,4.8934,4.7698,4.7834,4.7613,4.636,4.545,4.4909,4.4907,4.4897,4.506,4.5475,4.5967,4.6244,4.6244,4.6234,4.5844,4.4978,4.4987,4.4599,4.3716,4.4174,4.4375,4.4261,4.4753,4.5205,4.5579,4.5579,4.5636,4.0352,4.1154,4.1631,4.1094,4.0762,3.9712,3.6464,3.4791,3.2994,2.9687,2.8863,2.8539,2.7899,2.9216,3.1016,3.293,0.0,3.923,4.2018,4.3153,4.4383,4.6253,4.7129,4.7635,4.7753,4.9063,4.9985,5.0083,4.8684,4.7844,4.784,4.7634,4.7158,4.6397,4.6489,4.7231,4.8696,5.0316,5.1137,5.1121,5.1289,5.1356,5.1309,5.1362,5.1341,5.131,5.1367,5.1391,5.1388,5.139,5.139,5.1388,5.1388,5.1388,5.1388,5.139,5.1391,5.1393,5.1389,5.1386,5.14,5.1396,5.1406,5.1402,5.1399,5.1405,5.1405,5.1405,5.1401,5.1396,5.1404,5.1401,5.1396,5.1403,5.1399,5.1391,5.1409,5.1401,5.1175,5.0423,5.0273,5.0023,4.9274,4.9769,4.9714,4.8085,4.8397,4.8179,4.6431,4.5549,4.5098,4.5096,4.5099,4.5419,4.623,4.6297,4.6302,4.6304,4.6296,4.5966,4.5194,4.516,4.4812,4.4069,4.405,4.4423,4.517,4.517,4.5561,4.6303,4.6303,4.5893,4.1328,4.1272,4.1137,4.1729,4.0338,3.8127,3.5431,3.2525,0.0,2.6915,2.521,2.4401,2.4972,2.65,2.869,3.1816,3.4646,3.7843,4.1842,4.3145,4.4606,0.0,4.7465,4.7792,4.8515,4.8842,0.0,0.0,4.9762,4.9591,4.9642,4.8283,4.7429,4.728,4.7924,4.8407,4.871,4.9707,5.0226,5.0224,5.091,5.1254,5.1306,5.1308,5.1308,5.1308,5.1361,0.0,5.1312,5.133,5.1326,5.131,5.131,5.131,5.1312,5.131,5.1317,5.1317,5.132,5.1357,5.1396,5.1408,5.1396,5.1404,5.1396,5.1403,5.1406,5.1406,5.1406,5.1406,5.1406,5.1405,5.1403,5.1404,5.1401,5.1396,5.1391,5.1396,5.1362,5.1204,5.1166,5.113,5.098,5.1069,5.0821,4.9803,4.9217,4.8241,4.6502,4.6157,4.6067,4.6067,4.6056,4.6124,4.6288,4.6291,4.6293,4.6299,4.6301,4.6223,4.6084,4.6066,4.6008,4.5851,4.5851,4.5912,4.6072,4.6072,4.6151,4.6308,4.6308,4.623,4.0439,4.0665,4.0701,4.0277,3.8939,3.6711,3.2824,0.0,0.0,2.4973,2.3673,2.3367,2.4232,2.5819,2.7695,2.9784,3.2298,3.5318,3.9201,4.0857,4.2982,4.6495,4.7675,4.8332,4.8763,4.9204,4.9652,5.0061,5.0045,4.9829,4.9439,4.7765,4.6816,4.6826,4.8005,4.866,4.866,4.9965,5.0622,5.0626,5.1054,5.1263,5.1304,5.1294,5.1294,5.1306,5.1335,5.1337,5.13,5.1292,5.131,5.13,5.13,5.13,5.13,5.1292,5.1296,5.13,5.1338,5.1343,5.1349,5.1385,5.1394,5.1396,5.1405,5.1396,5.1402,5.1404,5.1406,5.1406,5.1406,5.1406,5.1405,5.1406,5.1403,5.1396,5.1405,5.1394,5.1407,5.1407,5.1392,5.1396,5.1394,5.1407,5.11,5.0237,4.9771,4.907,4.7802,4.727,4.6638,4.5715,4.6035,4.6295,4.6297,4.6301,4.6303,4.6305,4.6306,4.6307,4.6307,4.6307,4.6307,4.6307,4.6307,4.6307,4.6308,4.6308,4.6308,4.6308,4.6308,4.6055,3.9068,3.9694,3.996,3.8717,3.7475,3.5365,3.0829,2.8676,2.6734,2.3494,2.268,2.2821,2.3707,2.498,2.6365,0.0,3.0009,3.2911,3.6755,3.8902,4.1693,4.6066,4.7887,0.0,4.9058,4.969,0.0,5.0105,4.9872,4.9469,4.8826,4.7309,4.638,4.6181,4.7777,4.8606,4.8601,5.0166,5.104,5.1218,5.1254,5.1287,5.1297,5.1308,5.1308,5.1297,5.1292,5.13,5.13,5.13,5.13,5.13,5.13,5.13,5.13,5.13,5.1304,5.1337,5.1362,5.1359,5.1335,5.1379,5.1409,5.1409,5.1398,5.139,5.1399,5.1401,5.1406,5.1406,5.1406,5.1406,5.1405,5.1406,5.1404,5.1396,5.1402,5.1398,5.1398,5.1398,5.1406,5.1409,5.1402,5.1393,5.1164,5.0477,5.0226,4.9896,4.9252,4.8413,4.7356,4.5985,4.6281,4.6575,4.6576,4.6579,4.6502,4.6307,4.6308,4.6308,4.6308,4.6308,4.6308,4.6308,4.6308,4.6387,4.6582,4.6387,4.6406,4.6562,4.6387,4.6035,3.8078,3.841,3.8515,3.8417,3.6591,3.4106,3.1307,0.0,2.5165,2.2469,2.1347,2.1103,2.1968,2.2264,2.3418,0.0,2.8644,3.1588,3.6599,3.943,4.2592,4.6963,0.0,0.0,4.9906,4.9999,5.0033,5.0104,4.9354,4.8884,4.8806,4.7831,4.6932,4.6139,4.7784,4.8665,4.8601,4.9603,5.0505,5.1287,5.1244,5.1236,5.1296,5.13,5.1302,5.1296,5.1298,5.13,0.0,5.13,5.13,5.13,5.13,5.13,5.13,5.13,5.1342,5.1388,5.1338,5.1341,5.1387,5.1401,5.1391,5.1408,5.1409,5.1397,5.14,5.1406,5.1406,5.1406,5.1406,5.1406,5.1406,5.1405,5.1402,5.1397,5.139,5.1408,5.1408,5.1408,5.1394,5.1397,5.1397,5.1402,5.1365,5.1287,5.0662,5.0154,5.0096,4.9314,4.8728,4.8552,4.7905,4.7475,4.7478,4.7479,4.7147,4.6348,4.6308,4.6308,4.6308,4.6308,4.6308,4.6308,4.6308,4.6699,4.748,4.6699,4.6719,4.7461,4.668,4.668,3.6447,3.7104,3.741,3.6957,3.4911,3.2502,3.0484,0.0,2.4463,2.2908,2.153,2.0872,2.1734,2.1894,2.2675,2.5055,2.6026,2.809,3.2734,3.5623,3.9235,4.4602,4.6422,0.0,0.0,0.0,4.8514,4.8539,4.87,4.8575,4.8048,4.7619,4.7233,4.6895,4.8065,4.8694,4.8662,4.9552,5.0174,5.051,5.1025,5.1272,5.1298,5.1292,5.1292,5.13,5.13,5.13,0.0,5.13,5.13,5.13,5.13,5.13,5.13,5.13,5.1319,5.1341,5.1364,5.1378,5.1394,5.1404,5.1404,5.1403,5.1401,5.1393,5.1398,5.14,5.1403,5.1523,5.205,5.2187,5.2051,5.1522,5.1404,5.1402,5.1397,5.1395,5.1239,5.0712,5.1048,5.1226,5.0715,5.1052,5.1406,5.1405,5.1132,5.0918,5.0918,5.0195,4.9863,5.0351,4.9199,4.8378,4.8379,4.8379,4.8222,4.7891,4.7851,4.7851,4.7851,4.7851,4.7851,4.7851,4.7851,4.8047,4.8379,4.8027,4.8047,4.8379,4.8027,4.8047,3.4314,3.5408,3.6072,3.5267,3.352,3.1556,2.9884,2.6844,2.4148,2.3283,2.1768,2.0796,2.1403,2.1523,2.2069,2.3746,2.4442,2.6271,3.0584,3.3435,3.7048,4.2319,0.0,4.6146,0.0,4.8198,4.7957,4.7173,4.8165,4.8302,4.7172,4.7315,4.742,4.7394,4.8494,4.895,4.869,4.9553,4.9995,5.0014,5.0618,5.1053,5.13,5.13,5.13,5.13,5.13,5.13,0.0,5.13,5.13,5.13,5.13,5.13,5.13,5.13,5.1294,5.1315,5.1388,5.1397,5.1405,5.1408,5.1396,5.1457,5.1708,5.1604,5.14,5.1397,5.1597,5.1933,5.2538,5.2695,5.248,5.16,5.1405,5.1404,5.1399,5.14,5.1147,5.0287,5.0818,5.1131,5.0289,5.0839,5.1406,5.1406,5.1406,5.1406,5.1406,5.0918,5.0762,5.1348,5.0332,4.9531,4.9297,4.9277,4.918,4.8926,4.8906,4.8906,4.8906,4.8906,4.8906,4.8906,4.8906,4.9023,4.9277,4.9023,4.9023,4.9277,4.9023,4.918,3.1685,3.3211,3.4333,3.3522,3.2661,3.1563,2.9889,2.6854,2.4144,2.3281,2.1768,2.0602,2.0604,2.0605,2.117,2.2842,2.4557,2.7189,3.1479,3.4331,3.7262,0.0,0.0,4.4413,4.6162,4.8602,4.9004,4.6415,4.7815,0.0,4.6314,4.7035,4.7474,4.7394,4.9089,4.9576,4.8719,4.9557,4.9995,4.9995,5.0014,5.0463,5.13,5.13,5.13,5.13,5.13,5.13,0.0,5.13,5.13,5.13,5.13,5.13,5.13,5.13,5.1294,5.1315,5.1388,5.1404,5.14,5.1391,5.1402,5.1563,5.2414,5.2077,5.1405,5.1404,5.2011,5.2695,5.2695,5.2695,5.248,5.16,5.1405,5.1404,5.1399,5.1402,5.1151,5.0369,5.0859,5.1133,5.0332,5.0879,5.1406,5.1406,5.1406,5.1406,5.1406,5.1387,5.1387,5.1406,5.1387,5.1055,5.0254,5.0195,4.9824,4.8945,4.8906,4.8906,4.8906,4.8906,4.8906,4.8906,4.8906,4.9316,5.0176,4.9316,4.9336,5.0176,4.9297,4.9785,2.7425,2.8801,3.0075,2.9877,2.9159,2.8533,2.8601,2.597,2.3431,2.3152,2.1774,2.0605,2.0605,2.0116,2.0854,2.4311,2.534,2.7209,0.0,0.0,0.0,4.0757,4.4183,4.6281,0.0,0.0,4.8611,4.7195,4.8157,4.8295,4.7152,4.7347,4.748,4.7474,4.8006,4.8162,4.7883,4.8142,4.8282,4.8302,4.9449,5.0131,5.0424,5.1028,5.13,5.13,5.13,5.13,5.13,5.13,5.13,5.13,5.13,5.13,5.1302,5.1298,5.1307,5.1317,5.1383,5.1394,5.14,5.1391,5.1402,5.1446,5.173,5.2034,5.2299,5.2299,5.2925,5.3317,5.2128,5.2245,5.248,5.1601,5.1406,5.1406,5.1406,5.0976,5.0332,4.9472,5.0,5.0312,4.9453,5.0469,5.1406,5.1406,5.1406,5.1406,5.1406,5.1406,5.1406,5.1406,5.1405,5.1308,5.1035,5.1015,5.0898,5.0625,5.0604,5.0603,5.0605,5.0605,5.0605,5.0605,5.0605,5.0742,5.1016,5.0742,5.0742,5.1016,5.0742,5.1211,2.4104,2.6049,2.7543,2.7289,2.6813,2.6472,2.6702,2.4612,2.2617,2.263,2.1562,2.0605,2.0605,2.0153,2.0872,2.4175,2.5262,2.7073,0.0,0.0,0.0,4.1206,0.0,0.0,0.0,4.7589,4.8298,4.7097,4.7811,4.7929,4.7057,4.7016,4.7016,4.7016,4.7659,4.7834,4.7503,4.7503,4.7503,4.7503,4.8553,4.9391,5.0014,5.056,5.0989,5.13,5.13,5.13,0.0,5.13,5.13,5.13,5.13,5.13,5.1302,5.1305,5.1292,5.1317,5.1389,5.1183,5.095,5.1294,5.1614,5.1892,5.189,5.2267,5.2705,5.2709,5.3335,5.3667,5.2264,5.2284,5.248,5.1601,5.1406,5.1328,5.1016,5.0547,4.9941,4.9062,4.9609,5.0039,4.9473,5.0508,5.1406,5.1406,5.1406,5.1406,5.1405,5.1406,5.1406,5.1403,5.1403,5.1404,5.1406,5.1404,5.1404,5.1405,5.1401,5.14,5.1403,5.1404,5.1405,5.1405,5.1406,5.1406,5.1406,5.1406,5.1406,5.1406,5.1738,5.2363,0.0,2.4269,2.5981,2.5248,2.5182,2.5155,2.4467,2.3018,0.0,2.1892,2.1211,2.0624,2.0681,2.064,2.1224,2.3157,2.4871,2.7171,0.0,3.4139,0.0,0.0,4.4065,0.0,4.4995,4.7257,4.8046,4.6415,4.7033,4.7151,4.6336,4.6236,4.6197,4.6197,4.7776,4.8224,4.7425,4.7405,4.7405,4.7405,4.7464,4.8321,4.9839,4.9956,5.0443,0.0,5.1261,5.13,5.13,5.13,5.13,5.13,5.13,5.13,5.1302,5.1307,5.1292,5.1315,5.139,5.0871,5.0323,5.1137,5.1941,5.2607,5.2618,5.2697,5.2778,5.2711,5.3279,5.3708,5.283,5.2656,5.248,5.1601,5.1406,5.1172,5.0371,5.0156,4.9863,4.9062,4.9609,5.0195,5.0195,5.082,5.1328,5.1387,5.1348,5.1347,5.1385,5.1404,5.1403,5.1398,5.1398,5.14,5.1404,5.1401,5.1398,5.1399,5.1398,5.1397,5.1398,5.1402,5.1404,5.1404,5.1406,5.1426,5.1484,5.1484,5.1523,5.1601,5.2422,5.3262,1.7088,0.0,1.9944,1.9754,2.1204,2.2829,0.0,2.2567,0.0,0.0,0.0,2.0801,2.1465,2.1051,2.2023,2.6363,2.7979,2.9888,3.3307,3.7305,0.0,4.4035,4.5334,4.5967,4.5895,4.7045,4.7637,4.7232,4.7382,4.7405,4.7211,4.6568,4.6197,4.6197,4.6607,4.6704,4.6509,4.6509,4.6509,4.6509,4.7172,4.7717,4.8126,4.941,5.0112,5.0346,5.1008,5.13,5.13,5.13,5.13,5.13,5.13,5.13,5.1304,5.1358,5.1333,5.1317,5.1375,5.1262,5.1131,5.133,5.1531,5.1709,5.1719,5.2639,5.3557,5.2897,5.2843,5.2806,5.1927,5.2204,5.248,5.1601,5.1406,5.1172,5.0371,4.9687,4.9141,4.8945,4.9609,5.0195,5.0195,5.0351,5.0683,5.1308,5.0879,5.0703,5.1323,5.1403,5.1402,5.1393,5.1392,5.1393,5.1395,5.1393,5.1396,5.1403,5.1393,5.1404,5.1392,5.1398,5.14,5.14,5.1405,5.1738,5.2383,5.2383,5.2734,5.3398,5.3594,5.416,1.3733,1.6298,1.9098,1.9083,2.0158,2.1425,2.23,0.0,0.0,0.0,0.0,2.0879,2.1738,2.1814,2.3042,2.7046,2.8763,0.0,0.0,0.0,4.2669,4.5285,4.6018,4.6283,0.0,4.6665,4.6946,4.6914,4.6908,4.6906,4.6901,4.6451,4.6197,4.6197,4.6197,4.6197,4.6197,4.6208,4.6208,4.6217,4.6676,4.7104,4.7522,4.8436,4.9274,5.0034,5.0502,5.093,5.13,5.13,5.13,5.13,5.13,5.13,5.1304,5.1382,5.1382,5.1354,5.1381,5.1406,5.1338,5.0921,5.1062,5.1395,5.1402,5.2066,5.2712,5.2232,5.2393,5.2493,5.1636,5.1756,5.1972,5.1504,5.1113,5.0723,5.0293,4.9199,4.8418,4.8828,4.8965,4.9121,4.9531,4.9608,4.9745,5.0195,5.0214,5.035,5.0755,5.1147,5.1399,5.1405,5.1407,5.1391,5.1394,5.1394,5.1396,5.14,5.1406,5.1399,5.1409,5.1396,5.1401,5.1404,5.1796,5.2226,5.2695,5.3105,5.3535,5.4004,5.4414,5.4843,1.202,1.6102,2.0248,1.9989,2.0313,2.0869,2.146,0.0,0.0,0.0,0.0,0.0,0.0,2.2948,0.0,0.0,0.0,0.0,3.938,4.1385,4.3178,4.5792,4.6097,0.0,4.5914,4.6148,4.6216,4.6011,4.6118,4.6192,4.6199,4.6197,4.6197,4.6197,4.6197,4.6197,4.6197,4.6204,4.6204,4.6197,4.6204,4.6594,4.7308,4.7444,4.8263,4.9625,4.9894,0.0,5.1104,5.1257,5.1296,5.13,5.13,5.13,5.1304,5.1359,5.1372,5.1396,5.1403,5.1393,5.1277,5.0535,5.0808,5.1394,5.1396,5.1395,5.1398,5.1395,5.1926,5.2337,5.1599,5.1503,5.1562,5.1426,5.0781,5.0195,5.0195,4.8828,4.7851,4.873,4.83,4.8026,4.8768,4.8785,4.8784,4.9061,4.9608,5.0076,5.0267,5.1067,5.1609,5.1593,5.1717,5.1802,5.1807,5.1808,5.1807,5.1803,5.1541,5.1403,5.1393,5.1534,5.1598,5.1601,5.2441,5.2969,5.3105,5.3848,5.4277,5.4414,5.5155,5.5506,1.4404,1.7055,1.9066,1.7636,1.9453,2.1446,2.0835,0.0,0.0,0.0,0.0,0.0,0.0,2.4726,2.6619,0.0,0.0,3.7493,0.0,0.0,4.2266,4.4894,0.0,4.4908,4.4178,4.5426,4.5961,4.5169,4.5777,4.62,4.6199,4.6197,4.6197,4.6197,4.6197,4.6197,4.6197,4.619,4.619,4.6197,4.6191,4.6268,4.6412,4.7152,4.7639,4.7969,0.0,5.0077,5.0266,5.1009,5.1304,5.13,5.13,5.13,5.1302,5.1309,5.1317,5.1322,5.1372,5.1407,5.1375,5.1238,5.1297,5.1396,5.1405,5.1402,5.1398,5.1395,5.1496,5.1575,5.1423,5.1953,5.2305,5.1582,5.0781,5.0195,5.0195,4.8828,4.7851,4.873,4.8788,4.8748,4.8885,4.8299,4.8299,4.9783,4.9492,4.9609,5.1014,5.1967,5.2509,5.25,5.3164,5.3596,5.3597,5.3603,5.3607,5.3591,5.2219,5.1398,5.1403,5.2107,5.2499,5.25,5.3359,5.416,5.4902,5.5039,5.5488,5.6191,5.6347,5.6406,1.3066,1.5836,1.8313,1.7582,1.9961,2.2635,2.3196,2.2585,0.0,0.0,0.0,0.0,0.0,0.0,2.9219,3.3515,0.0,4.0068,4.2118,4.2873,4.3648,0.0,0.0,4.4833,4.4439,4.5121,4.56,4.5593,4.5962,4.6206,4.6199,4.6197,4.6197,4.6197,4.6197,4.6197,4.6197,4.6196,4.6196,4.6197,4.6196,4.6196,4.6217,4.6607,4.7055,4.7542,0.0,4.8916,4.943,5.0258,5.0591,5.0638,5.1125,5.1008,5.0603,5.0633,5.0947,5.1352,5.1384,5.139,5.1395,5.1401,5.1399,5.1397,5.1391,5.1409,5.1407,5.14,5.1401,5.1302,5.0857,5.1367,5.1797,5.0957,5.0469,5.0312,5.0742,4.9512,4.8418,4.8828,4.8515,4.8201,4.8201,4.7478,4.7653,4.9861,4.9452,4.9511,5.117,5.2165,5.2709,5.2703,5.3487,5.3997,5.3997,5.4001,5.4001,5.4,5.3258,5.281,5.2791,5.3182,5.3398,5.3398,5.4258,5.4902,5.5293,5.5762,5.6211,5.6601,5.6601,5.6854,1.2485,1.5103,1.7817,1.868,2.0861,2.3241,2.4995,2.421,0.0,0.0,0.0,0.0,0.0,2.9375,0.0,3.6015,3.9136,4.1396,4.2276,4.3361,4.4154,4.4367,4.4386,4.4308,4.4113,4.4638,4.5176,4.5584,4.5989,4.6191,4.6199,4.6003,4.5983,4.6197,4.6003,4.5983,4.6197,4.6191,4.6191,4.6197,4.6206,4.6208,4.6197,4.6197,4.6568,4.7211,4.74,4.7868,4.8553,4.9366,4.9697,4.9781,5.0443,5.0426,5.0026,5.0082,5.0654,5.1391,5.1393,5.1396,5.1399,5.1407,5.1404,5.1401,5.1395,5.1393,5.1409,5.1401,5.1401,5.1263,5.0643,5.1093,5.1504,5.0683,5.0488,5.0644,5.1269,5.0078,4.8965,4.916,4.8496,4.7908,4.7908,4.7184,4.7495,5.0096,4.9588,4.9589,5.1464,5.2479,5.3005,5.3002,5.3962,5.4608,5.4608,5.4609,5.4609,5.4605,5.4412,5.4218,5.4003,5.4198,5.4296,5.4297,5.5156,5.5605,5.5605,5.6269,5.6601,5.6601,5.6816,5.7264,1.5371,1.6507,1.7542,2.0728,2.1706,2.2358,2.4104,2.3762,0.0,2.5335,0.0,0.0,0.0,3.2226,3.6172,3.8104,3.992,4.1402,4.2273,0.0,4.1681,4.2494,4.259,4.2279,4.146,4.3578,4.4698,4.3945,4.5316,4.6198,4.6199,4.5438,4.536,4.6178,4.5418,4.5379,4.6197,4.6199,4.6199,4.6197,4.6193,4.6193,4.6197,4.6197,4.6236,4.6332,4.7089,4.7482,4.7657,4.8452,4.8826,4.8884,4.8962,4.9441,5.0082,5.0096,5.0655,5.1401,5.1391,5.1401,5.1408,5.1409,5.1409,5.139,5.1397,5.1409,5.1398,5.1408,5.1395,5.1381,5.1328,5.1953,5.2383,5.1523,5.1308,5.1328,5.1387,5.0078,4.9141,4.9941,4.9394,4.8807,4.8807,4.8084,4.8377,5.0936,4.9941,4.9805,5.2285,5.3378,5.3904,5.3904,5.5408,5.6405,5.6406,5.6406,5.6406,5.6406,5.5644,5.4844,5.4023,5.4785,5.5215,5.5215,5.6055,5.6504,5.6502,5.6562,5.6601,5.6619,5.7422,5.7832,1.4025,1.6605,1.9245,2.0051,2.2258,0.0,0.0,2.6985,2.8376,3.0124,3.0754,0.0,0.0,0.0,3.5937,3.8222,4.0017,4.14,4.2275,4.2582,4.2633,4.2435,4.2395,4.2278,4.1947,4.329,4.4279,4.4482,4.5101,4.544,4.5397,4.4606,4.4523,4.5361,4.5076,4.5311,4.6197,4.6197,4.6197,4.6197,4.6204,4.6204,4.6197,4.6197,4.6197,4.6217,4.652,4.6676,4.6762,4.7609,4.7969,4.7988,4.7998,4.885,5.0034,4.948,5.0198,5.14,5.1403,5.1409,5.1396,5.14,5.1397,5.1393,5.1403,5.1401,5.1393,5.1402,5.1404,5.1288,5.0739,5.1249,5.168,5.0859,5.1445,5.2207,5.2207,5.2148,5.1855,5.1094,5.0683,5.0293,4.9785,4.8984,4.9277,5.1816,5.0781,5.043,5.2441,5.3457,5.4003,5.4003,5.5566,5.6601,5.6601,5.6601,5.6601,5.6601,5.6289,5.5957,5.5625,5.5937,5.6113,5.6113,5.6426,5.6601,5.6601,5.7148,5.7401,5.7439,5.8258,5.8943,1.4187,1.6995,2.0153,2.0426,0.0,0.0,2.7435,2.9177,3.0997,3.2996,3.3392,3.3572,3.4121,0.0,0.0,0.0,4.0016,4.1301,4.1904,4.2502,4.265,4.2064,4.1986,4.1986,4.1986,4.2784,4.3541,4.4136,4.4426,4.4573,4.4517,4.3739,4.3772,4.4861,4.4631,4.5037,4.6197,4.6204,4.6206,4.6206,4.6206,4.6203,4.6197,4.6197,4.6197,4.6197,4.6204,4.6206,4.6245,4.6835,4.7098,4.7128,4.7397,4.8402,4.9621,4.902,4.9893,5.1351,5.1096,5.1161,5.1401,5.1404,5.1401,5.1396,5.1405,5.1403,5.1398,5.1404,5.1406,5.1269,5.0679,5.1151,5.168,5.1113,5.207,5.3105,5.3105,5.3574,5.3652,5.2441,5.2226,5.1953,5.1133,5.0273,5.0469,5.2773,5.168,5.1289,5.3262,5.4043,5.4512,5.4785,5.5898,5.6601,5.6601,5.6601,5.6601,5.6601,5.6601,5.6601,5.6601,5.6601,5.6601,5.6601,5.6601,5.6601,5.6601,5.7206,5.7634,5.7927,5.8745,5.9585,1.6673,1.7949,1.9847,2.2455,0.0,0.0,2.8828,2.9636,3.0362,3.2918,3.3433,3.3964,3.5683,3.6718,0.0,3.8452,3.9994,4.1086,4.11,4.1093,4.1109,4.1109,4.1108,4.1108,4.1109,4.1899,4.2399,4.2399,4.3208,4.369,4.369,4.2858,4.316,4.4835,4.4059,4.444,4.6178,4.6196,4.6204,4.6185,4.6185,4.6195,4.6197,4.6197,4.6197,4.6199,4.6196,4.6204,4.6206,4.6202,4.6207,4.6287,4.7157,4.8021,4.8784,4.8795,4.9898,5.1273,5.0413,5.0676,5.1405,5.1405,5.1402,5.1399,5.1404,5.14,5.1391,5.1397,5.1402,5.1405,5.1405,5.2031,5.2695,5.2695,5.3379,5.4004,5.4004,5.4004,5.4004,5.4004,5.4004,5.373,5.2851,5.1992,5.2012,5.373,5.2539,5.2363,5.4961,5.5293,5.5625,5.6504,5.6601,5.6601,5.6601,5.6601,5.6601,5.6601,5.6601,5.6601,5.6601,5.6601,5.6601,5.6601,5.6601,5.6601,5.6619,5.6619,5.7068,5.7947,5.8826,5.9647,1.6625,1.8778,0.0,2.2753,0.0,0.0,0.0,3.1833,0.0,0.0,3.6621,3.6835,3.6129,3.6716,0.0,3.8455,3.9527,4.0443,4.1027,4.1097,4.1109,4.1109,4.1103,4.1101,4.1108,4.1881,4.2404,4.2391,4.2642,4.2794,4.2788,4.1963,4.2244,4.394,4.3739,4.4434,4.6178,4.6203,4.5894,4.529,4.529,4.5605,4.6196,4.6204,4.6197,4.6197,4.6204,4.6193,4.6206,4.6251,4.6279,4.63,4.6545,4.7193,4.8033,4.8648,4.9555,5.0537,5.0893,5.119,5.1406,5.1406,5.1404,5.14,5.1405,5.1403,5.1398,5.1404,5.1406,5.1406,5.1406,5.1582,5.1933,5.2558,5.3379,5.418,5.4785,5.4902,5.4902,5.4902,5.4414,5.3926,5.3652,5.3398,5.3398,5.3926,5.3555,5.373,5.5117,5.5293,5.5625,5.6504,5.6601,5.6601,5.6601,5.6601,5.6601,5.6601,5.6601,5.6601,5.6601,5.6601,5.6601,5.66,5.66,5.6893,5.7517,5.8077,5.8817,5.968,6.0555,6.1084,1.7961,2.0426,0.0,2.4731,2.7732,3.0775,3.2709,0.0,0.0,0.0,3.7715,3.7752,3.6714,3.695,0.0,3.8451,3.9328,4.0069,4.0516,4.088,4.0971,4.0615,4.0883,4.1096,4.1103,4.1586,4.1879,4.1888,4.1888,4.1885,4.1876,4.1382,4.1721,4.3083,4.3096,4.3749,4.5144,4.5171,4.4926,4.4424,4.44,4.4663,4.5206,4.5178,4.5358,4.5693,4.6057,4.6228,4.6244,4.6284,4.6291,4.6331,4.6688,4.7138,4.7705,4.8554,4.9381,5.0188,5.0739,5.1132,5.1406,5.1406,5.1405,5.1402,5.1406,5.1405,5.1402,5.1406,5.1406,5.1406,5.1406,5.1406,5.1621,5.248,5.3105,5.3828,5.5039,5.5293,5.539,5.5742,5.539,5.4921,5.4588,5.4511,5.4511,5.4511,5.4804,5.5215,5.5742,5.582,5.6015,5.6543,5.6601,5.6601,5.6601,5.6601,5.6601,5.6601,5.6601,5.6601,5.6601,5.6601,5.66,5.6597,5.6597,5.7027,5.7906,5.8365,5.9202,6.0419,6.094,6.1372,1.9903,2.2252,2.4834,2.7533,2.9098,0.0,3.4073,3.6108,3.7302,3.7305,0.0,3.75,3.7339,3.7497,3.7867,3.8499,3.9321,3.9888,3.9822,4.0484,4.0695,3.9883,4.0565,4.1093,4.1094,4.1094,4.1098,4.1108,4.1109,4.1105,4.1095,4.1103,4.1499,4.2365,4.2347,4.2728,4.3583,4.3604,4.3581,4.3573,4.3524,4.3472,4.3472,4.3568,4.4074,4.4957,4.5827,4.6236,4.6306,4.6296,4.6301,4.6379,4.7177,4.749,4.7588,4.8477,4.9304,5.0012,5.0232,5.0781,5.1406,5.1406,5.1406,5.1405,5.1406,5.1406,5.1405,5.1406,5.1406,5.1406,5.1406,5.1406,5.1621,5.248,5.2754,5.3301,5.5039,5.5293,5.5468,5.6424,5.6462,5.6169,5.5539,5.5426,5.5428,5.5428,5.6093,5.6601,5.6601,5.6601,5.6601,5.6601,5.6601,5.6601,5.6601,5.6601,5.6601,5.6601,5.66,5.6599,5.6598,5.6599,5.6597,5.6592,5.667,5.7138,5.8018,5.803,5.8889,6.0516,6.0529,6.0944,1.9005,2.1384,0.0,2.7396,3.0916,3.3964,3.5383,3.654,3.7304,3.7304,3.8397,3.8923,3.7549,3.8921,3.9919,3.8782,3.9329,3.9895,3.9874,3.9998,4.0004,3.9823,4.0576,4.1102,4.1093,4.1094,4.1098,4.1108,4.1109,4.1108,4.1106,4.1095,4.1494,4.2361,4.2384,4.2766,4.3583,4.3607,4.3285,4.2677,4.2655,4.2304,4.1703,4.3008,4.4078,4.4948,4.5883,4.6283,4.6306,4.6296,4.6301,4.632,4.6515,4.6573,4.6771,4.8308,4.8996,4.935,5.0683,5.1269,5.1406,5.1406,5.1406,5.1405,5.1406,5.1406,5.1405,5.1406,5.1406,5.1406,5.1406,5.1406,5.1621,5.248,5.3223,5.4199,5.5936,5.5253,5.4744,5.6302,5.5504,5.4939,5.613,5.6327,5.6328,5.6328,5.6484,5.66,5.66,5.66,5.6599,5.6596,5.6599,5.66,5.66,5.66,5.66,5.66,5.6597,5.6592,5.6607,5.6592,5.6592,5.6604,5.7229,5.7971,5.8831,5.9504,6.0383,6.1427,6.1425,6.1524,1.9124,0.0,0.0,2.9623,0.0,3.4924,3.5794,3.6346,3.668,3.6679,3.7733,3.8513,3.8016,3.8665,3.8999,3.8114,3.9053,3.9619,3.8777,3.9685,4.0102,3.929,4.0322,4.1104,4.1104,4.0719,4.0649,4.1069,4.0718,4.0657,4.1082,4.1092,4.1316,4.1759,4.1785,4.1975,4.2409,4.2409,4.2183,4.1788,4.1781,4.1547,4.1142,4.2437,4.3273,4.3787,4.5108,4.5679,4.5719,4.612,4.6301,4.6301,4.6301,4.6557,4.709,4.8409,4.9155,4.9704,5.0957,5.1406,5.1406,5.1406,5.1406,5.1406,5.1406,5.1406,5.1406,5.1406,5.1406,5.1406,5.1406,5.1406,5.1718,5.3027,5.3359,5.3749,5.5076,5.4977,5.4897,5.5809,5.5576,5.5538,5.6433,5.6596,5.66,5.6601,5.6601,5.6599,5.6599,5.6598,5.6596,5.6593,5.6595,5.6597,5.6597,5.6598,5.6599,5.6599,5.6596,5.6591,5.6607,5.6604,5.6599,5.6595,5.7395,5.8235,5.9094,5.9967,6.0845,6.1709,6.1709,6.1693,1.8799,0.0,2.6909,3.1925,3.3945,0.0,3.5796,3.5996,3.6035,3.6189,3.6795,3.7516,3.8231,3.7902,3.7571,3.7716,3.8832,3.9224,3.7929,3.9548,4.0282,3.8699,3.9918,4.0818,4.0669,4.0014,3.9888,4.0599,3.9994,3.9972,4.0821,4.0734,4.0807,4.1097,4.0951,4.0951,4.1097,4.1097,4.1104,4.1096,4.1106,4.1106,4.1116,4.1848,4.2254,4.2508,4.4233,4.4997,4.5076,4.5946,4.6302,4.6302,4.6301,4.6737,4.7506,4.8527,4.9351,5.0116,5.1074,5.1406,5.1406,5.1406,5.1406,5.1406,5.1406,5.1406,5.1406,5.1406,5.1406,5.1406,5.1406,5.1406,5.1834,5.3591,5.3453,5.3199,5.4235,5.4896,5.534,5.5508,5.6113,5.66,5.6595,5.6605,5.6596,5.6601,5.6601,5.6599,5.6598,5.6595,5.6592,5.6609,5.6609,5.6609,5.6591,5.6595,5.6597,5.6597,5.6593,5.6609,5.6609,5.6595,5.6663,5.68,5.7601,5.8441,5.9338,6.0198,6.0998,6.1699,6.1699,6.1705,1.5721,0.0,2.6753,0.0,3.3509,3.4939,0.0,0.0,3.6206,0.0,3.7219,3.7338,3.7449,3.8,3.8666,3.9421,3.9108,3.8952,3.9479,3.9805,3.9601,3.8614,3.9363,3.9677,3.8926,3.8798,3.8782,3.8832,3.8782,3.9114,3.9925,3.9306,3.9598,4.1053,4.0367,4.0347,4.1091,4.1091,4.1096,4.1107,4.1106,4.1106,4.1107,4.1223,4.169,4.2509,4.4247,4.5009,4.5067,4.5948,4.6305,4.6291,4.6303,4.6369,4.6672,4.8294,4.8961,4.9296,5.0859,5.1406,5.1406,5.1406,5.1406,5.1406,5.1405,5.1406,5.1406,5.1405,5.1406,5.1406,5.1405,5.1405,5.1834,5.3588,5.3915,5.4262,5.5902,5.5746,5.5528,5.6278,5.6517,5.6605,5.6596,5.6595,5.6596,5.6601,5.66,5.6597,5.6594,5.6593,5.6607,5.6593,5.6591,5.6594,5.6602,5.6604,5.6605,5.6605,5.6596,5.6591,5.6591,5.6607,5.6938,5.7621,5.8499,5.9357,6.0237,6.1094,6.1582,6.1699,6.1699,6.1701,1.7965,2.2272,2.6615,0.0,3.2688,3.4197,3.5077,3.5644,3.6107,3.6493,3.6567,3.672,3.7208,3.7605,3.7998,3.8382,3.893,3.9283,3.9182,3.953,3.9484,3.8596,3.8878,3.8957,3.8537,3.8117,3.8062,3.8527,3.8589,3.8746,3.9113,3.9227,3.9617,4.034,4.0002,4.0216,4.1083,4.1103,4.1104,4.1109,4.1109,4.1091,4.1095,4.1095,4.1309,4.1738,4.3007,4.3536,4.3657,4.5005,4.5573,4.5614,4.6119,4.6592,4.7125,4.7887,4.8787,4.9726,5.0469,5.1016,5.1406,5.1406,5.1406,5.1406,5.1406,5.1406,5.1406,5.1406,5.1406,5.1504,5.1991,5.2126,5.2572,5.4304,5.4726,5.5071,5.634,5.6301,5.6144,5.6528,5.6609,5.6599,5.6594,5.6594,5.6596,5.6601,5.66,5.6597,5.6595,5.6607,5.6596,5.6606,5.6605,5.6607,5.6593,5.6598,5.6601,5.6601,5.6597,5.6595,5.6595,5.6608,5.6977,5.7778,5.8654,5.9533,6.0393,6.127,6.1699,6.1699,6.1699,6.1699,0.0,0.0,2.4665,2.8539,3.0971,3.2714,0.0,0.0,3.5676,0.0,3.586,3.6125,3.6559,3.6642,3.6858,3.7518,3.8341,3.8988,3.9197,3.9587,3.9585,3.8913,3.8882,3.8747,3.8249,3.7649,3.7476,3.7905,3.7946,3.8044,3.8259,3.8622,3.9149,3.9802,3.9403,3.9793,4.1089,4.1091,4.1093,4.1095,4.1093,4.1095,4.1101,4.1099,4.11,4.1142,4.202,4.2392,4.2532,4.429,4.4993,4.5092,4.595,4.6695,4.7323,4.7772,4.8749,4.9922,5.0351,5.0898,5.1406,5.1406,5.1406,5.1406,5.1406,5.1406,5.1406,5.1406,5.1406,5.1543,5.2205,5.2534,5.3037,5.4335,5.4972,5.5533,5.641,5.6605,5.6605,5.6605,5.6605,5.6592,5.6607,5.659,5.6594,5.6601,5.66,5.6598,5.6599,5.6604,5.6607,5.6592,5.6608,5.6605,5.6605,5.6594,5.6597,5.6597,5.6597,5.6597,5.6597,5.6591,5.6977,5.7778,5.8654,5.9533,6.0393,6.127,6.1697,6.1694,6.1697,6.1697,0.0,1.7662,0.0,2.4703,2.789,3.0233,0.0,0.0,3.4774,3.4774,3.5417,3.5767,3.4981,3.4837,3.5654,3.8122,3.7223,3.7321,4.0523,4.0353,3.9848,3.9741,3.9787,3.9184,3.7516,3.7321,3.6986,3.6197,3.6145,3.65,3.7321,3.6617,3.7322,3.9828,3.828,3.8609,4.109,4.1095,4.1101,4.1107,4.1101,4.1101,4.1107,4.1101,4.1104,4.115,4.2025,4.2395,4.2532,4.429,4.4995,4.5095,4.5952,4.6326,4.6562,4.8222,4.8886,4.9199,5.0781,5.1367,5.1406,5.1406,5.1406,5.1406,5.1405,5.1406,5.1406,5.1405,5.1406,5.1406,5.146,5.2082,5.2724,5.2806,5.411,5.5533,5.641,5.6605,5.6605,5.6605,5.6605,5.6609,5.66,5.6602,5.6606,5.6597,5.6597,5.6599,5.6601,5.6609,5.6592,5.6604,5.6595,5.6605,5.6605,5.6606,5.6606,5.6606,5.6606,5.6606,5.6606,5.6606,5.6977,5.7778,5.8654,5.9533,6.0393,6.127,6.1693,6.17,6.1693,6.1693,0.0,0.0,0.0,2.2377,2.5193,2.7558,2.9277,3.1403,3.3351,3.4462,3.4943,3.5075,3.4764,3.4704,3.5191,3.6696,3.6403,3.7007,3.9858,3.9569,3.9258,3.9741,3.9374,3.8593,3.7412,3.7298,3.6946,3.6078,3.652,3.6722,3.6489,3.6706,3.7528,3.9014,3.7916,3.8284,4.0316,4.0337,4.0595,4.1107,4.1105,4.1107,4.109,4.1109,4.111,4.1171,4.1484,4.1639,4.1757,4.3456,4.4179,4.4316,4.5741,4.6308,4.6445,4.7636,4.8418,4.9062,5.0234,5.0976,5.1406,5.1406,5.1406,5.1406,5.1406,5.1406,5.1406,5.1406,5.1406,5.1523,5.2084,5.2882,5.3816,5.4932,5.5689,5.6216,5.6527,5.6605,5.6605,5.6605,5.6605,5.6609,5.66,5.6601,5.6603,5.659,5.6591,5.6609,5.6607,5.6605,5.6602,5.6595,5.6608,5.6605,5.6605,5.6605,5.6605,5.6605,5.6605,5.6605,5.6605,5.7094,5.725,5.7035,5.8948,6.008,6.0393,6.1262,6.1709,6.1692,6.1707,6.1709,1.4123,0.0,0.0,0.0,2.2966,2.4941,2.6972,2.9412,3.1518,3.2373,3.3461,3.4178,3.3886,3.4061,3.4646,3.5817,3.5758,3.6461,3.9039,3.8942,3.8904,3.9746,3.9608,3.8979,3.7822,3.7455,3.6948,3.6063,3.627,3.6297,3.6026,3.6554,3.7121,3.7707,3.7725,3.8154,3.9016,3.9328,3.9877,4.07,4.0699,4.0856,4.1132,4.1112,4.1132,4.1191,4.1191,4.1191,4.1328,4.3008,4.3691,4.3867,4.5625,4.6308,4.6445,4.7617,4.8398,4.9062,5.0215,5.0957,5.1406,5.1406,5.1406,5.1406,5.1406,5.1406,5.1406,5.1406,5.1406,5.1523,5.2104,5.2684,5.3576,5.5301,5.5727,5.5805,5.6098,5.6391,5.6605,5.6605,5.6605,5.6608,5.6595,5.6596,5.6597,5.66,5.6602,5.6602,5.6593,5.6602,5.6605,5.6593,5.6607,5.6605,5.6605,5.6605,5.6605,5.6605,5.6605,5.6605,5.6605,5.7113,5.727,5.7016,5.8948,6.0119,6.0393,6.1277,6.1703,6.1693,6.1703,6.1706,0.0,0.0,0.0,0.0,2.1113,2.2441,2.4961,2.7558,2.9197,2.8489,3.095,3.302,3.2288,3.2812,3.3923,3.5641,3.5212,3.5565,3.8162,3.8513,3.8867,3.9791,4.0586,4.0387,3.863,3.7751,3.6911,3.5992,3.514,3.5049,3.5913,3.6007,3.6024,3.6005,3.7668,3.816,3.7303,3.8143,3.9003,3.9863,3.9882,4.0331,4.1152,4.1112,4.1132,4.1191,4.1191,4.1191,4.1328,4.3008,4.3691,4.3867,4.5625,4.6308,4.6504,4.8223,4.8887,4.9141,5.0781,5.1387,5.1406,5.1406,5.1406,5.1406,5.1406,5.1406,5.1406,5.1406,5.1406,5.1406,5.142,5.1447,5.1882,5.362,5.4049,5.4283,5.5143,5.6001,5.6605,5.6605,5.6605,5.6605,5.6605,5.6605,5.6605,5.6605,5.6595,5.6601,5.6601,5.6601,5.6601,5.6601,5.6593,5.6605,5.6605,5.6605,5.6605,5.6605,5.6605,5.6605,5.6624,5.6663,5.7035,5.7817,5.8713,5.9572,6.0393,6.1277,6.1699,6.1699,6.1699,6.1706,1.3858,0.0,0.0,0.0,0.0,0.0,2.1562,2.3515,2.5722,2.8648,2.9485,3.038,3.2624,3.2717,3.2812,3.3943,3.3924,3.4451,3.6442,3.6715,3.7497,3.9588,4.0061,3.9552,3.7803,3.7424,3.6413,0.0,3.3895,3.4135,3.5017,3.6268,3.6658,3.6029,3.7086,3.7537,3.7303,3.7538,3.8105,3.8965,3.9609,4.0039,4.0273,4.0898,4.1172,4.1191,4.1191,4.1191,4.1328,4.3008,4.3691,4.3867,4.5625,4.6308,4.6426,4.7558,4.8359,4.9062,5.0156,5.0918,5.1406,5.1406,5.1406,5.1406,5.1406,5.1406,5.1406,5.1406,5.1406,5.1543,5.2182,5.2346,5.2781,5.4538,5.4948,5.5181,5.6059,5.6429,5.6605,5.6605,5.6605,5.6605,5.6605,5.6605,5.6605,5.6605,5.6608,5.6591,5.6591,5.6591,5.6591,5.6591,5.6607,5.6605,5.6605,5.6605,5.6605,5.6605,5.6605,5.686,5.7445,5.8069,5.8518,5.8732,6.0216,6.0782,6.0393,6.1228,6.1649,6.1699,6.1699,6.1706,0.0,0.0,0.0,0.0,0.0,0.0,2.0195,2.1894,2.373,2.5933,2.7415,2.8917,3.0904,3.1428,3.1953,3.3201,3.3396,3.3748,3.4763,3.5543,3.6696,3.8536,3.8792,3.8418,3.7394,3.6645,3.5437,3.3534,3.341,3.3943,3.5174,3.621,3.6523,3.6012,3.6483,3.6757,3.6757,3.6757,3.7207,3.8066,3.8945,3.9551,3.9922,4.0801,4.1191,4.1191,4.1191,4.1387,4.1797,4.3144,4.3691,4.3848,4.5215,4.5976,4.6406,4.7285,4.8144,4.9023,4.9902,5.0723,5.1406,5.1406,5.1406,5.1406,5.1406,5.1406,5.1406,5.1406,5.1406,5.1521,5.2023,5.2168,5.2411,5.3431,5.4229,5.4792,5.4932,5.5827,5.6605,5.6605,5.6605,5.6605,5.6605,5.6605,5.6605,5.6605,5.6605,5.6605,5.6605,5.6605,5.6605,5.6605,5.6605,5.6605,5.6605,5.6605,5.6605,5.6605,5.6605,5.68,5.7289,5.8109,5.8732,5.9084,6.045,6.1092,6.0931,6.1376,6.1616,6.1657,6.1665,6.1678,0.0,0.0,0.0,0.0,1.9285,0.0,1.9882,2.1543,2.2656,2.2026,2.4858,2.7553,2.7936,2.9065,3.0528,3.2264,3.2791,3.3104,3.3494,3.488,3.6211,3.7176,3.721,3.7128,3.7011,3.5514,3.4168,3.3185,3.3218,3.3983,3.5623,3.5799,3.5897,3.5995,3.5996,3.5996,3.5996,3.5996,3.6387,3.7168,3.8144,3.9004,3.9785,4.0762,4.1191,4.1191,4.1191,4.166,4.2461,4.3242,4.3672,4.3926,4.4805,4.5625,4.6387,4.7168,4.8066,4.9004,4.9785,5.0644,5.1406,5.1406,5.1406,5.1406,5.1406,5.1406,5.1406,5.1406,5.1404,5.1396,5.1391,5.1403,5.1417,5.1523,5.2728,5.37,5.3104,5.4816,5.6488,5.6585,5.6605,5.6605,5.6605,5.6605,5.6605,5.6605,5.6605,5.6605,5.6605,5.6605,5.6605,5.6605,5.6605,5.6605,5.6605,5.6605,5.6605,5.6605,5.6605,5.6683,5.6878,5.7562,5.8402,5.9377,6.0159,6.0933,6.1699,6.1625,6.1607,6.161,6.1607,6.1646,0.0,0.0,0.0,0.0,1.9274,0.0,1.785,1.9335,2.1249,2.1796,2.201,2.2947,2.5698,2.5323,2.5162,2.6917,2.8967,3.131,3.4061,3.4744,3.5547,3.7116,3.669,3.5988,3.5285,3.4275,3.3026,3.15,3.203,3.287,3.3859,3.4569,3.5273,3.5975,3.5996,3.5996,3.5996,3.5996,3.6094,3.6269,3.7851,3.8691,3.8906,4.0488,4.1191,4.1191,4.1191,4.166,4.2402,4.2578,4.3476,4.4823,4.5703,4.6152,4.6327,4.6484,4.7558,4.8926,4.9082,5.0137,5.1406,5.1406,5.1406,5.1406,5.1406,5.1406,5.1406,5.1406,5.1401,5.1391,5.1409,5.1403,5.1571,5.2277,5.2705,5.329,5.452,5.5183,5.5767,5.6468,5.6605,5.6605,5.6605,5.6605,5.6605,5.6605,5.6605,5.6605,5.6605,5.6605,5.6605,5.6605,5.6605,5.6605,5.6605,5.6605,5.6605,5.6605,5.6605,5.721,5.8557,5.8752,5.9591,6.1153,6.1368,6.1537,6.1699,6.1625,6.1621,6.1688,6.1621,6.1633,0.0,0.0,0.0,2.0853,2.0513,0.0,0.0,1.9665,2.0858,2.1719,2.1875,2.2499,2.4665,2.4332,2.4466,2.6648,2.8092,2.9692,3.1857,3.2871,3.3887,3.5198,3.4969,3.4699,3.4699,3.3904,3.289,3.164,3.1913,3.2518,3.3356,3.4238,3.4902,3.5332,3.5762,3.5995,3.5995,3.5995,3.5995,3.6014,3.7773,3.8593,3.8652,4.041,4.1426,4.1777,4.1367,4.2148,4.3652,4.3222,4.4081,4.5604,4.5176,4.5527,4.6248,4.5801,4.6758,4.8242,4.8242,4.9375,5.0801,5.0801,5.1074,5.1406,5.1406,5.1406,5.1406,5.1403,5.1397,5.1408,5.1403,5.1398,5.1512,5.1948,5.2375,5.2822,5.3256,5.4249,5.5005,5.4887,5.5102,5.557,5.6449,5.6605,5.6605,5.6605,5.6605,5.6605,5.6605,5.6605,5.6605,5.6605,5.6605,5.6605,5.6605,5.6605,5.6605,5.6605,5.6977,5.7582,5.8421,5.93,6.0353,6.168,6.1699,6.1696,6.1709,6.1675,6.1648,6.1648,6.162,6.1649,0.0,0.0,0.0,0.0,0.0,2.1261,0.0,0.0,0.0,2.1328,2.1914,0.0,0.0,0.0,0.0,2.6222,0.0,0.0,0.0,2.9693,0.0,3.2286,3.2856,3.3309,3.3682,3.2789,3.2108,3.1953,3.1424,3.1717,3.3086,3.3984,3.4531,3.4686,3.5546,3.5994,3.5992,3.5992,3.5992,3.6012,3.7596,3.8436,3.8651,4.0234,4.1406,4.2129,4.1484,4.2558,4.4707,4.3984,4.4725,4.6131,4.457,4.4902,4.619,4.5312,4.6094,4.7598,4.7598,4.8633,4.998,5.0156,5.0742,5.1406,5.1406,5.1405,5.1403,5.1398,5.1393,5.1405,5.1396,5.1394,5.1396,5.1405,5.1947,5.2296,5.1776,5.3099,5.4166,5.3423,5.3755,5.4674,5.6312,5.6605,5.6605,5.6605,5.6605,5.6605,5.6605,5.6605,5.6605,5.6605,5.6605,5.6605,5.6605,5.6605,5.6605,5.6605,5.7367,5.7875,5.8031,5.9729,6.0978,6.1699,6.1699,6.1699,6.1699,6.1709,6.1676,6.1621,6.1621,6.1648,0.0,0.0,0.0,0.0,2.3547,2.3904,1.9338,0.0,2.1279,1.9881,0.0,0.0,0.0,0.0,0.0,0.0,0.0,0.0,2.2965,2.4878,2.7045,2.8682,3.0867,3.169,3.0311,2.869,2.8651,3.0878,2.8885,2.8944,3.2089,3.3066,3.3905,3.4686,3.5546,3.5995,3.5994,3.5996,3.5996,3.6014,3.6971,3.785,3.8632,3.9608,4.0527,4.1328,4.123,4.2207,4.3848,4.373,4.4726,4.6209,4.5233,4.5448,4.619,4.5312,4.6094,4.7598,4.7598,4.8242,4.918,4.9941,5.0742,5.1406,5.1405,5.1403,5.1398,5.1393,5.1404,5.1396,5.1394,5.1394,5.1394,5.1396,5.1473,5.1727,5.2412,5.2763,5.3133,5.3776,5.4342,5.5103,5.6371,5.6605,5.6605,5.6605,5.6605,5.6605,5.6605,5.6605,5.6605,5.6605,5.6605,5.6605,5.6605,5.6605,5.6605,5.6605,5.7367,5.8148,5.8928,6.0626,6.1602,6.1699,6.1699,6.1699,6.1699,6.1698,6.1691,6.1696,6.1696,6.1697,0.0,0.0,0.0,0.0,0.0,0.0,2.0925,2.0664,2.1043,2.0791,0.0,0.0,0.0,0.0,0.0,0.0,2.1269,2.1777,0.0,0.0,2.484,2.6576,0.0,0.0,2.9511,2.8944,2.8963,3.0058,2.8182,2.8065,3.0527,3.1953,3.3085,3.392,3.5271,3.5994,3.599,3.5993,3.5994,3.6012,3.7401,3.8241,3.8651,4.0039,4.1113,4.1875,4.1406,4.2441,4.4414,4.3906,4.4726,4.6152,4.4782,4.5094,4.6131,4.4745,4.5351,4.6855,4.6855,4.7421,4.8378,4.9745,5.0742,5.1406,5.1405,5.1402,5.1397,5.1391,5.1403,5.1394,5.1394,5.1394,5.1394,5.1394,5.1394,5.1648,5.2508,5.2293,5.2058,5.2429,5.2663,5.2995,5.3502,5.5258,5.6605,5.6605,5.6605,5.6605,5.6605,5.6605,5.6605,5.6605,5.6605,5.6605,5.6605,5.6605,5.68,5.727,5.8558,5.9475,5.9846,6.1036,6.1699,6.1699,6.1699,6.1699,6.1699,6.1699,6.1693,6.1699,6.1707,6.1691,2.6618,2.6919,2.7,2.4541,2.4347,2.4151,2.1947,2.1357,2.1327,2.1448,2.1374,0.0,0.0,0.0,0.0,0.0,0.0,2.0488,0.0,2.0545,0.0,0.0,2.4566,0.0,0.0,2.7674,2.7615,2.8808,2.6854,2.6776,2.9453,3.1035,3.2322,3.3367,3.4859,3.5758,3.6007,3.5992,3.611,3.6363,3.7635,3.8495,3.9003,4.0273,4.1289,4.2051,4.1699,4.2715,4.4609,4.4218,4.4941,4.6152,4.4644,4.4839,4.576,4.4257,4.4648,4.5976,4.6229,4.7028,4.8161,4.9431,5.0545,5.1405,5.1403,5.14,5.1395,5.1408,5.1401,5.1394,5.1394,5.1394,5.1395,5.1398,5.1396,5.1571,5.2219,5.1846,5.1394,5.1394,5.1397,5.1398,5.1394,5.3502,5.5492,5.6468,5.6605,5.6605,5.6605,5.6605,5.6605,5.6605,5.6605,5.6605,5.6605,5.6605,5.7053,5.8085,5.9572,6.0509,6.0759,6.1366,6.1699,6.1699,6.1699,6.1699,6.1699,6.1699,6.1694,6.1705,6.1694,6.1697,2.8011,2.8657,2.8304,2.4085,2.4315,2.4681,2.1313,2.1824,2.2573,2.096,2.1919,0.0,0.0,0.0,0.0,0.0,0.0,0.0,0.0,0.0,0.0,1.9409,2.1675,0.0,0.0,2.2829,2.2615,0.0,2.3964,2.4276,2.9335,3.0445,3.1692,3.3347,3.427,3.5151,3.5991,3.5995,3.6426,3.7264,3.7303,3.8221,3.9862,3.9921,4.0429,4.1289,4.2031,4.2891,4.3808,4.4629,4.5488,4.6209,4.5307,4.4995,4.492,4.4023,4.4277,4.5156,4.6012,4.7415,4.8879,4.8918,5.0051,5.1398,5.1393,5.139,5.1408,5.1398,5.1394,5.1394,5.1394,5.1394,5.1397,5.1407,5.1402,5.1417,5.1446,5.1421,5.1394,5.1394,5.1404,5.1408,5.1396,5.1492,5.2702,5.6097,5.6605,5.6605,5.6605,5.6605,5.6605,5.6605,5.6605,5.6605,5.6605,5.6605,5.7303,5.8949,5.9898,6.0777,6.1622,6.1693,6.1699,6.1699,6.1699,6.1699,6.1699,6.1699,6.1698,6.1698,6.1699,6.1692,2.9668,3.0035,2.964,2.7039,2.6421,2.5691,2.2816,2.2636,2.261,2.0885,2.1891,2.2838,0.0,0.0,0.0,0.0,0.0,0.0,0.0,0.0,1.7461,1.8339,2.0722,2.2304,0.0,0.0,0.0,0.0,2.4219,0.0,2.7713,2.9801,3.1399,3.2503,3.3939,3.5113,3.5987,3.5995,3.6445,3.7303,3.7889,3.8768,3.992,4.0447,4.117,4.2011,4.2285,4.3223,4.457,4.4883,4.5508,4.6152,4.4705,4.4139,4.4179,4.4451,4.4745,4.5117,4.5992,4.7412,4.8833,4.8833,5.0009,5.1397,5.1392,5.1409,5.1407,5.1397,5.1394,5.1394,5.1394,5.1394,5.1259,5.0676,5.0972,5.1406,5.1409,5.1407,5.1563,5.2153,5.2266,5.2323,5.2489,5.2524,5.3454,5.6197,5.6605,5.6605,5.6605,5.6605,5.6605,5.6605,5.6605,5.6605,5.6605,5.762,5.8496,5.9058,6.0467,6.1132,6.0855,6.1385,6.1699,6.1699,6.1699,6.1699,6.1699,6.1699,6.1699,6.1699,6.1699,6.1697,3.0977,3.1344,3.1103,2.9062,2.8408,2.7481,2.4587,2.4445,2.4321,2.2262,2.2745,2.3538,0.0,0.0,0.0,0.0,0.0,0.0,0.0,1.6775,0.0,1.707,1.9375,2.0996,0.0,0.0,0.0,0.0,0.0,0.0,0.0,2.9194,3.1084,3.252,3.3957,3.5111,3.5985,3.6305,3.6893,3.7771,3.8337,3.9215,4.0348,4.0857,4.158,4.242,4.2734,4.3672,4.5019,4.5332,4.5781,4.6152,4.4725,4.3964,4.3769,4.4334,4.4921,4.5546,4.611,4.7414,4.8833,4.8811,4.9986,5.1395,5.1407,5.1404,5.1403,5.1396,5.1394,5.1336,5.1022,5.118,5.1103,4.9953,5.0565,5.1312,5.1002,5.1177,5.1665,5.253,5.2701,5.2854,5.3331,5.3681,5.4495,5.6335,5.6605,5.6605,5.6605,5.6605,5.6605,5.6605,5.6605,5.6605,5.6605,5.8147,5.9101,5.9097,6.0741,6.1443,6.0893,6.1404,6.1699,6.1699,6.1699,6.1699,6.1699,6.1699,6.1699,6.1699,6.1699,6.1699]}]]